Wetterstation I Rotheul
Wetterdaten: aktuell Dienstag, 29.09.2020 16:56
Datum Zeit Temperatur Luftfeuchte Luftdruck Regen Wind Richtung Richtung Sonnenschein UV Solar Taupunkt Windchill Windben
29.09.2020 16:56 15,2 C 68 % 1017,1 hPa 0,0 l/m 1,8 km/h W-SW 254 1 min 0,0 UV-I 173 W/m 9,3 C 15,2 C 3,2 km/h
29.09.2020 16:55 15,1 C 69 % 1017,1 hPa 0,0 l/m 0,2 km/h W-SW 253 0 min 0,0 UV-I 121 W/m 9,5 C 15,1 C 1,6 km/h
29.09.2020 16:54 15,1 C 68 % 1017,1 hPa 0,0 l/m 0,5 km/h W 259 0 min 0,0 UV-I 118 W/m 9,2 C 15,1 C 1,6 km/h
29.09.2020 16:53 15,1 C 69 % 1017,1 hPa 0,0 l/m 2,7 km/h W 259 0 min 0,0 UV-I 112 W/m 9,5 C 15,1 C 4,8 km/h
29.09.2020 16:52 15,2 C 69 % 1017,1 hPa 0,0 l/m 1,5 km/h W-NW 285 0 min 0,0 UV-I 105 W/m 9,6 C 15,2 C 3,2 km/h
29.09.2020 16:51 15,2 C 69 % 1017,1 hPa 0,0 l/m 1,0 km/h W-NW 285 0 min 0,0 UV-I 104 W/m 9,6 C 15,2 C 3,2 km/h
29.09.2020 16:50 15,2 C 68 % 1017,0 hPa 0,0 l/m 0,9 km/h W-NW 285 0 min 0,0 UV-I 104 W/m 9,3 C 15,2 C 1,6 km/h
29.09.2020 16:49 15,2 C 68 % 1017,0 hPa 0,0 l/m 2,5 km/h W-NW 285 0 min 0,0 UV-I 100 W/m 9,3 C 15,2 C 3,2 km/h
29.09.2020 16:48 15,2 C 69 % 1017,0 hPa 0,0 l/m 1,7 km/h W 279 0 min 0,5 UV-I 94 W/m 9,6 C 15,2 C 3,2 km/h
29.09.2020 16:47 15,3 C 67 % 1017,0 hPa 0,0 l/m 3,3 km/h W 279 0 min 0,5 UV-I 88 W/m 9,2 C 15,3 C 4,8 km/h
29.09.2020 16:46 15,3 C 68 % 1017,0 hPa 0,0 l/m 5,6 km/h W 265 0 min 0,5 UV-I 87 W/m 9,4 C 15,3 C 6,4 km/h
29.09.2020 16:45 15,3 C 67 % 1016,9 hPa 0,0 l/m 5,6 km/h W 261 0 min 0,5 UV-I 95 W/m 9,2 C 15,3 C 9,7 km/h
29.09.2020 16:44 15,4 C 67 % 1017,0 hPa 0,0 l/m 7,8 km/h W-SW 251 0 min 0,5 UV-I 135 W/m 9,3 C 14,6 C 9,7 km/h
29.09.2020 16:43 15,4 C 67 % 1017,0 hPa 0,0 l/m 3,6 km/h W-NW 288 0 min 0,5 UV-I 157 W/m 9,3 C 15,4 C 6,4 km/h
29.09.2020 16:42 15,4 C 67 % 1017,0 hPa 0,0 l/m 2,5 km/h W 271 0 min 0,5 UV-I 161 W/m 9,3 C 15,4 C 4,8 km/h
29.09.2020 16:41 15,4 C 67 % 1017,0 hPa 0,0 l/m 2,7 km/h W 269 0 min 0,5 UV-I 148 W/m 9,3 C 15,4 C 4,8 km/h
29.09.2020 16:40 15,5 C 66 % 1016,9 hPa 0,0 l/m 4,6 km/h W 273 0 min 0,5 UV-I 144 W/m 9,2 C 15,5 C 6,4 km/h
29.09.2020 16:39 15,6 C 65 % 1016,9 hPa 0,0 l/m 2,5 km/h W-NW 296 0 min 0,5 UV-I 106 W/m 9,0 C 15,6 C 4,8 km/h
29.09.2020 16:38 15,7 C 66 % 1016,9 hPa 0,0 l/m 5,4 km/h N-NW 329 0 min 0,5 UV-I 110 W/m 9,4 C 15,7 C 11,3 km/h
29.09.2020 16:37 15,8 C 66 % 1016,9 hPa 0,0 l/m 6,1 km/h W-NW 286 0 min 0,6 UV-I 117 W/m 9,5 C 15,8 C 9,7 km/h
29.09.2020 16:36 15,8 C 65 % 1016,9 hPa 0,0 l/m 6,2 km/h NW 315 0 min 0,6 UV-I 118 W/m 9,2 C 15,8 C 11,3 km/h
29.09.2020 16:35 15,9 C 65 % 1016,9 hPa 0,0 l/m 5,5 km/h NW 306 0 min 0,6 UV-I 126 W/m 9,3 C 15,9 C 11,3 km/h
29.09.2020 16:34 15,9 C 65 % 1016,9 hPa 0,0 l/m 5,9 km/h W 275 1 min 0,6 UV-I 234 W/m 9,3 C 15,9 C 11,3 km/h
29.09.2020 16:33 16,0 C 65 % 1016,9 hPa 0,0 l/m 4,7 km/h W-NW 294 1 min 0,7 UV-I 353 W/m 9,4 C 16,0 C 6,4 km/h
29.09.2020 16:32 15,9 C 66 % 1016,8 hPa 0,0 l/m 3,6 km/h NW 314 1 min 0,7 UV-I 390 W/m 9,6 C 15,9 C 8,0 km/h
29.09.2020 16:31 15,8 C 66 % 1016,9 hPa 0,0 l/m 2,6 km/h W-NW 290 1 min 0,7 UV-I 415 W/m 9,5 C 15,8 C 3,2 km/h
29.09.2020 16:30 15,8 C 66 % 1016,9 hPa 0,0 l/m 2,0 km/h W-NW 292 1 min 0,6 UV-I 417 W/m 9,5 C 15,8 C 3,2 km/h
29.09.2020 16:29 15,7 C 68 % 1016,9 hPa 0,0 l/m 1,9 km/h W 279 1 min 0,7 UV-I 410 W/m 9,8 C 15,7 C 3,2 km/h
29.09.2020 16:28 15,6 C 68 % 1016,9 hPa 0,0 l/m 2,7 km/h W 259 1 min 0,7 UV-I 398 W/m 9,7 C 15,6 C 4,8 km/h
29.09.2020 16:27 15,4 C 67 % 1016,9 hPa 0,0 l/m 4,5 km/h W 281 1 min 0,7 UV-I 385 W/m 9,3 C 15,4 C 9,7 km/h
29.09.2020 16:26 15,3 C 66 % 1016,9 hPa 0,0 l/m 3,2 km/h W-SW 252 1 min 0,7 UV-I 218 W/m 9,0 C 15,3 C 6,4 km/h
29.09.2020 16:25 15,2 C 66 % 1016,9 hPa 0,0 l/m 3,8 km/h W-SW 256 0 min 0,6 UV-I 165 W/m 8,9 C 15,2 C 6,4 km/h
29.09.2020 16:24 15,2 C 67 % 1016,9 hPa 0,0 l/m 4,4 km/h W-SW 246 0 min 0,6 UV-I 149 W/m 9,1 C 15,2 C 6,4 km/h
29.09.2020 16:23 15,2 C 69 % 1017,0 hPa 0,0 l/m 3,0 km/h W 269 0 min 0,7 UV-I 147 W/m 9,6 C 15,2 C 6,4 km/h
29.09.2020 16:22 15,2 C 69 % 1017,0 hPa 0,0 l/m 2,5 km/h W-SW 248 0 min 0,7 UV-I 168 W/m 9,6 C 15,2 C 3,2 km/h
29.09.2020 16:21 15,2 C 69 % 1016,9 hPa 0,0 l/m 1,5 km/h W-SW 252 0 min 0,7 UV-I 167 W/m 9,6 C 15,2 C 3,2 km/h
29.09.2020 16:20 15,3 C 68 % 1016,9 hPa 0,0 l/m 1,7 km/h W-SW 252 0 min 0,7 UV-I 147 W/m 9,4 C 15,3 C 3,2 km/h
29.09.2020 16:19 15,3 C 69 % 1016,9 hPa 0,0 l/m 0,7 km/h W-SW 248 0 min 0,7 UV-I 150 W/m 9,6 C 15,3 C 3,2 km/h
29.09.2020 16:18 15,3 C 69 % 1017,0 hPa 0,0 l/m 2,8 km/h W-SW 248 0 min 0,7 UV-I 145 W/m 9,6 C 15,3 C 4,8 km/h
29.09.2020 16:17 15,3 C 68 % 1016,9 hPa 0,0 l/m 2,3 km/h W-SW 250 0 min 0,7 UV-I 135 W/m 9,4 C 15,3 C 3,2 km/h
29.09.2020 16:16 15,3 C 69 % 1017,0 hPa 0,0 l/m 1,2 km/h W 261 0 min 0,7 UV-I 123 W/m 9,6 C 15,3 C 3,2 km/h
29.09.2020 16:15 15,4 C 68 % 1017,0 hPa 0,0 l/m 2,6 km/h W 261 0 min 0,7 UV-I 125 W/m 9,5 C 15,4 C 4,8 km/h
29.09.2020 16:14 15,4 C 68 % 1017,0 hPa 0,0 l/m 1,8 km/h W-SW 254 0 min 0,7 UV-I 131 W/m 9,5 C 15,4 C 3,2 km/h
29.09.2020 16:13 15,4 C 69 % 1017,0 hPa 0,0 l/m 1,4 km/h W-SW 243 0 min 0,7 UV-I 136 W/m 9,7 C 15,4 C 3,2 km/h
29.09.2020 16:12 15,4 C 68 % 1016,9 hPa 0,0 l/m 2,4 km/h W-SW 243 0 min 0,7 UV-I 142 W/m 9,5 C 15,4 C 4,8 km/h
29.09.2020 16:11 15,5 C 68 % 1017,0 hPa 0,0 l/m 3,2 km/h W-NW 284 0 min 0,7 UV-I 145 W/m 9,6 C 15,5 C 4,8 km/h
29.09.2020 16:10 15,5 C 69 % 1017,0 hPa 0,0 l/m 2,2 km/h W-SW 251 0 min 0,8 UV-I 149 W/m 9,8 C 15,5 C 4,8 km/h
29.09.2020 16:09 15,5 C 67 % 1017,0 hPa 0,0 l/m 2,3 km/h NW 306 0 min 0,8 UV-I 157 W/m 9,4 C 15,5 C 3,2 km/h
29.09.2020 16:08 15,5 C 68 % 1017,0 hPa 0,0 l/m 1,2 km/h W-NW 301 0 min 0,8 UV-I 163 W/m 9,6 C 15,5 C 3,2 km/h
29.09.2020 16:07 15,5 C 69 % 1017,0 hPa 0,0 l/m 1,1 km/h W-NW 294 0 min 0,8 UV-I 170 W/m 9,8 C 15,5 C 3,2 km/h
29.09.2020 16:06 15,5 C 67 % 1017,0 hPa 0,0 l/m 4,1 km/h NW 305 1 min 0,8 UV-I 318 W/m 9,4 C 15,5 C 6,4 km/h
29.09.2020 16:05 15,5 C 68 % 1017,0 hPa 0,0 l/m 6,0 km/h W-NW 292 1 min 0,9 UV-I 276 W/m 9,6 C 15,5 C 8,0 km/h
29.09.2020 16:04 15,5 C 68 % 1017,0 hPa 0,0 l/m 5,0 km/h W-SW 245 0 min 0,8 UV-I 199 W/m 9,6 C 15,5 C 6,4 km/h
29.09.2020 16:03 15,5 C 68 % 1017,0 hPa 0,0 l/m 2,8 km/h W 259 0 min 0,8 UV-I 198 W/m 9,6 C 15,5 C 4,8 km/h
29.09.2020 16:02 15,6 C 68 % 1017,0 hPa 0,0 l/m 3,7 km/h W 264 0 min 0,8 UV-I 200 W/m 9,7 C 15,6 C 6,4 km/h
29.09.2020 16:01 15,5 C 68 % 1017,0 hPa 0,0 l/m 1,8 km/h W-SW 244 0 min 0,8 UV-I 200 W/m 9,6 C 15,5 C 3,2 km/h
29.09.2020 16:00 15,5 C 68 % 1017,0 hPa 0,0 l/m 4,8 km/h W-SW 245 1 min 0,8 UV-I 350 W/m 9,6 C 15,5 C 6,4 km/h
29.09.2020 15:59 15,4 C 68 % 1017,0 hPa 0,0 l/m 2,0 km/h W-NW 290 1 min 0,8 UV-I 350 W/m 9,5 C 15,4 C 4,8 km/h
29.09.2020 15:58 15,4 C 67 % 1017,0 hPa 0,0 l/m 2,0 km/h W 281 1 min 0,9 UV-I 350 W/m 9,3 C 15,4 C 4,8 km/h
29.09.2020 15:57 15,4 C 66 % 1017,0 hPa 0,0 l/m 2,8 km/h W-NW 286 1 min 0,9 UV-I 328 W/m 9,1 C 15,4 C 4,8 km/h
29.09.2020 15:56 15,3 C 67 % 1017,0 hPa 0,0 l/m 3,5 km/h W-SW 250 0 min 0,9 UV-I 229 W/m 9,2 C 15,3 C 6,4 km/h
29.09.2020 15:55 15,3 C 67 % 1017,0 hPa 0,0 l/m 5,2 km/h W 277 0 min 0,8 UV-I 200 W/m 9,2 C 15,3 C 9,7 km/h
29.09.2020 15:54 15,3 C 66 % 1017,0 hPa 0,0 l/m 5,1 km/h NW 319 0 min 0,9 UV-I 203 W/m 9,0 C 15,3 C 6,4 km/h
29.09.2020 15:53 15,3 C 66 % 1016,9 hPa 0,0 l/m 6,6 km/h W 279 0 min 0,9 UV-I 189 W/m 9,0 C 15,2 C 11,3 km/h
29.09.2020 15:52 15,4 C 67 % 1017,0 hPa 0,0 l/m 3,4 km/h W 274 0 min 0,8 UV-I 184 W/m 9,3 C 15,4 C 6,4 km/h
29.09.2020 15:51 15,4 C 65 % 1017,0 hPa 0,0 l/m 3,6 km/h W-NW 290 0 min 0,8 UV-I 179 W/m 8,9 C 15,4 C 6,4 km/h
29.09.2020 15:50 15,4 C 65 % 1017,0 hPa 0,0 l/m 5,5 km/h W-NW 302 0 min 0,9 UV-I 179 W/m 8,9 C 15,4 C 9,7 km/h
29.09.2020 15:49 15,5 C 65 % 1017,0 hPa 0,0 l/m 5,0 km/h W-NW 282 0 min 0,9 UV-I 183 W/m 8,9 C 15,5 C 11,3 km/h
29.09.2020 15:48 15,6 C 64 % 1017,0 hPa 0,0 l/m 7,1 km/h W 263 0 min 0,9 UV-I 190 W/m 8,8 C 15,2 C 12,9 km/h
29.09.2020 15:47 15,6 C 63 % 1016,9 hPa 0,0 l/m 10,8 km/h W-NW 291 0 min 0,9 UV-I 190 W/m 8,6 C 13,4 C 16,1 km/h
29.09.2020 15:46 15,7 C 65 % 1016,9 hPa 0,0 l/m 7,8 km/h W-SW 256 0 min 0,9 UV-I 227 W/m 9,1 C 14,9 C 12,9 km/h
29.09.2020 15:45 15,8 C 63 % 1016,9 hPa 0,0 l/m 7,1 km/h N-NW 328 0 min 0,9 UV-I 219 W/m 8,8 C 15,4 C 11,3 km/h
29.09.2020 15:44 15,9 C 64 % 1016,9 hPa 0,0 l/m 5,8 km/h W 268 0 min 0,8 UV-I 169 W/m 9,1 C 15,9 C 11,3 km/h
29.09.2020 15:43 16,0 C 63 % 1016,9 hPa 0,0 l/m 8,5 km/h W-NW 292 1 min 0,8 UV-I 342 W/m 9,0 C 14,9 C 12,9 km/h
29.09.2020 15:42 16,1 C 66 % 1016,9 hPa 0,0 l/m 5,9 km/h W 259 1 min 1,0 UV-I 315 W/m 9,7 C 16,1 C 12,9 km/h
29.09.2020 15:41 16,1 C 63 % 1016,9 hPa 0,0 l/m 7,1 km/h W-NW 289 0 min 1,0 UV-I 209 W/m 9,1 C 15,7 C 11,3 km/h
29.09.2020 15:40 16,1 C 64 % 1016,9 hPa 0,0 l/m 1,2 km/h W-SW 246 0 min 1,0 UV-I 189 W/m 9,3 C 16,1 C 1,6 km/h
29.09.2020 15:39 16,1 C 63 % 1017,0 hPa 0,0 l/m 3,6 km/h W-SW 246 0 min 1,1 UV-I 172 W/m 9,1 C 16,1 C 4,8 km/h
29.09.2020 15:38 16,1 C 67 % 1016,9 hPa 0,0 l/m 3,4 km/h W-SW 247 0 min 1,0 UV-I 172 W/m 10,0 C 16,1 C 6,4 km/h
29.09.2020 15:37 16,1 C 64 % 1016,9 hPa 0,0 l/m 1,3 km/h W-SW 254 0 min 1,2 UV-I 172 W/m 9,3 C 16,1 C 3,2 km/h
29.09.2020 15:36 16,0 C 65 % 1016,9 hPa 0,0 l/m 1,5 km/h SW 236 0 min 1,3 UV-I 172 W/m 9,4 C 16,0 C 3,2 km/h
29.09.2020 15:35 15,9 C 65 % 1016,9 hPa 0,0 l/m 0,8 km/h W-SW 253 0 min 1,2 UV-I 172 W/m 9,3 C 15,9 C 3,2 km/h
29.09.2020 15:34 15,9 C 63 % 1016,9 hPa 0,0 l/m 3,4 km/h W-SW 252 1 min 1,1 UV-I 362 W/m 8,9 C 15,9 C 4,8 km/h
29.09.2020 15:33 16,1 C 66 % 1016,9 hPa 0,0 l/m 4,3 km/h W-SW 239 1 min 1,3 UV-I 497 W/m 9,7 C 16,1 C 6,4 km/h
29.09.2020 15:32 15,9 C 67 % 1016,9 hPa 0,0 l/m 3,1 km/h W 261 1 min 1,3 UV-I 475 W/m 9,8 C 15,9 C 4,8 km/h
29.09.2020 15:31 15,9 C 66 % 1016,9 hPa 0,0 l/m 3,4 km/h W-SW 246 1 min 1,4 UV-I 468 W/m 9,6 C 15,9 C 4,8 km/h
29.09.2020 15:30 15,9 C 63 % 1016,9 hPa 0,0 l/m 2,3 km/h W-SW 246 0 min 1,2 UV-I 155 W/m 8,9 C 15,9 C 4,8 km/h
29.09.2020 15:29 15,9 C 63 % 1016,9 hPa 0,0 l/m 1,3 km/h NW 306 0 min 1,1 UV-I 225 W/m 8,9 C 15,9 C 3,2 km/h
29.09.2020 15:28 16,0 C 63 % 1017,0 hPa 0,0 l/m 4,1 km/h NW 306 1 min 1,2 UV-I 308 W/m 9,0 C 16,0 C 8,0 km/h
29.09.2020 15:27 16,2 C 63 % 1017,0 hPa 0,0 l/m 4,2 km/h W-NW 289 1 min 1,3 UV-I 308 W/m 9,1 C 16,2 C 8,0 km/h
29.09.2020 15:26 16,3 C 63 % 1017,0 hPa 0,0 l/m 7,1 km/h NW 309 1 min 1,3 UV-I 493 W/m 9,2 C 15,9 C 11,3 km/h
29.09.2020 15:25 16,4 C 64 % 1017,0 hPa 0,0 l/m 5,9 km/h W 263 1 min 1,4 UV-I 510 W/m 9,6 C 16,4 C 11,3 km/h
29.09.2020 15:24 16,3 C 65 % 1017,0 hPa 0,0 l/m 3,0 km/h O-NO 59 1 min 1,4 UV-I 508 W/m 9,7 C 16,3 C 4,8 km/h
29.09.2020 15:23 16,2 C 64 % 1017,0 hPa 0,0 l/m 3,1 km/h S-SW 209 1 min 1,5 UV-I 507 W/m 9,4 C 16,2 C 4,8 km/h
29.09.2020 15:22 16,2 C 67 % 1017,0 hPa 0,0 l/m 3,2 km/h SW 221 1 min 1,5 UV-I 522 W/m 10,1 C 16,2 C 6,4 km/h
29.09.2020 15:21 16,1 C 64 % 1017,0 hPa 0,0 l/m 2,7 km/h W-SW 258 1 min 1,5 UV-I 549 W/m 9,3 C 16,1 C 4,8 km/h
29.09.2020 15:20 16,1 C 64 % 1017,0 hPa 0,0 l/m 4,1 km/h SW 225 1 min 1,5 UV-I 537 W/m 9,3 C 16,1 C 6,4 km/h
29.09.2020 15:19 16,1 C 66 % 1017,0 hPa 0,0 l/m 4,3 km/h W 260 1 min 1,5 UV-I 473 W/m 9,7 C 16,1 C 6,4 km/h
29.09.2020 15:18 15,9 C 68 % 1017,0 hPa 0,0 l/m 2,5 km/h W-SW 241 1 min 1,5 UV-I 559 W/m 10,0 C 15,9 C 4,8 km/h
29.09.2020 15:17 15,8 C 66 % 1017,0 hPa 0,0 l/m 1,5 km/h W 273 1 min 1,6 UV-I 576 W/m 9,5 C 15,8 C 3,2 km/h
29.09.2020 15:16 15,6 C 69 % 1017,0 hPa 0,0 l/m 2,3 km/h W-SW 244 1 min 1,6 UV-I 587 W/m 9,9 C 15,6 C 4,8 km/h
29.09.2020 15:15 15,4 C 66 % 1017,0 hPa 0,0 l/m 3,1 km/h W-SW 254 0 min 1,5 UV-I 239 W/m 9,1 C 15,4 C 4,8 km/h
29.09.2020 15:14 15,3 C 66 % 1017,0 hPa 0,0 l/m 1,8 km/h W-SW 243 0 min 1,4 UV-I 146 W/m 9,0 C 15,3 C 4,8 km/h
29.09.2020 15:13 15,4 C 65 % 1017,0 hPa 0,0 l/m 3,5 km/h W-SW 254 0 min 1,4 UV-I 146 W/m 8,9 C 15,4 C 6,4 km/h
29.09.2020 15:12 15,6 C 64 % 1017,0 hPa 0,0 l/m 7,0 km/h W-SW 254 0 min 1,2 UV-I 141 W/m 8,8 C 15,3 C 11,3 km/h
29.09.2020 15:11 15,7 C 64 % 1017,0 hPa 0,0 l/m 5,5 km/h W-SW 252 0 min 1,2 UV-I 125 W/m 8,9 C 15,7 C 9,7 km/h
29.09.2020 15:10 15,8 C 66 % 1017,0 hPa 0,0 l/m 8,0 km/h W-SW 242 0 min 1,2 UV-I 126 W/m 9,5 C 14,9 C 11,3 km/h
29.09.2020 15:09 15,9 C 64 % 1017,1 hPa 0,0 l/m 8,8 km/h W-SW 244 0 min 1,3 UV-I 128 W/m 9,1 C 14,7 C 17,7 km/h
29.09.2020 15:08 15,9 C 64 % 1017,0 hPa 0,0 l/m 4,1 km/h W-NW 292 1 min 1,4 UV-I 495 W/m 9,1 C 15,9 C 4,8 km/h
29.09.2020 15:07 15,9 C 65 % 1017,0 hPa 0,0 l/m 3,6 km/h W-SW 254 1 min 1,7 UV-I 508 W/m 9,3 C 15,9 C 6,4 km/h
29.09.2020 15:06 15,8 C 66 % 1017,0 hPa 0,0 l/m 2,6 km/h W 279 1 min 1,6 UV-I 478 W/m 9,5 C 15,8 C 6,4 km/h
29.09.2020 15:05 15,7 C 64 % 1017,0 hPa 0,0 l/m 1,0 km/h W 281 1 min 1,7 UV-I 534 W/m 8,9 C 15,7 C 3,2 km/h
29.09.2020 15:04 15,7 C 68 % 1017,0 hPa 0,0 l/m 6,4 km/h W 281 1 min 1,4 UV-I 580 W/m 9,8 C 15,7 C 11,3 km/h
29.09.2020 15:03 15,7 C 64 % 1017,0 hPa 0,0 l/m 7,8 km/h W 281 1 min 1,8 UV-I 580 W/m 8,9 C 14,9 C 17,7 km/h
29.09.2020 15:02 15,8 C 64 % 1017,0 hPa 0,0 l/m 7,8 km/h W-SW 257 1 min 1,8 UV-I 579 W/m 9,0 C 15,0 C 11,3 km/h
29.09.2020 15:01 15,8 C 64 % 1017,0 hPa 0,0 l/m 6,6 km/h W 260 1 min 1,8 UV-I 569 W/m 9,0 C 15,7 C 11,3 km/h
29.09.2020 15:00 15,7 C 68 % 1017,0 hPa 0,0 l/m 4,0 km/h SW 235 1 min 1,7 UV-I 554 W/m 9,8 C 15,7 C 4,8 km/h
29.09.2020 14:59 15,7 C 66 % 1017,0 hPa 0,0 l/m 4,6 km/h SW 234 1 min 1,7 UV-I 554 W/m 9,4 C 15,7 C 6,4 km/h
29.09.2020 14:58 15,7 C 67 % 1017,0 hPa 0,0 l/m 3,7 km/h S-SW 205 1 min 1,6 UV-I 554 W/m 9,6 C 15,7 C 6,4 km/h
29.09.2020 14:57 15,7 C 68 % 1017,0 hPa 0,0 l/m 3,0 km/h W-SW 245 1 min 1,8 UV-I 571 W/m 9,8 C 15,7 C 4,8 km/h
29.09.2020 14:56 15,5 C 67 % 1017,0 hPa 0,0 l/m 1,0 km/h W-SW 248 0 min 1,8 UV-I 266 W/m 9,4 C 15,5 C 3,2 km/h
29.09.2020 14:55 15,4 C 67 % 1017,1 hPa 0,0 l/m 2,8 km/h W-SW 247 0 min 1,7 UV-I 253 W/m 9,3 C 15,4 C 4,8 km/h
29.09.2020 14:54 15,3 C 68 % 1017,0 hPa 0,0 l/m 2,5 km/h W-NW 283 1 min 1,5 UV-I 303 W/m 9,4 C 15,3 C 4,8 km/h
29.09.2020 14:53 15,3 C 68 % 1017,1 hPa 0,0 l/m 4,4 km/h W 281 1 min 1,4 UV-I 374 W/m 9,4 C 15,3 C 6,4 km/h
29.09.2020 14:52 15,3 C 69 % 1017,1 hPa 0,0 l/m 2,4 km/h W 263 0 min 1,7 UV-I 186 W/m 9,6 C 15,3 C 4,8 km/h
29.09.2020 14:51 15,2 C 67 % 1017,1 hPa 0,0 l/m 5,0 km/h W 262 0 min 1,7 UV-I 109 W/m 9,1 C 15,2 C 6,4 km/h
29.09.2020 14:50 15,3 C 67 % 1017,1 hPa 0,0 l/m 5,5 km/h NW 307 0 min 1,8 UV-I 109 W/m 9,2 C 15,3 C 12,9 km/h
29.09.2020 14:49 15,4 C 66 % 1017,0 hPa 0,0 l/m 6,8 km/h N-NW 334 0 min 1,4 UV-I 109 W/m 9,1 C 15,2 C 9,7 km/h
29.09.2020 14:48 15,5 C 66 % 1017,1 hPa 0,0 l/m 8,7 km/h NW 317 0 min 1,3 UV-I 104 W/m 9,2 C 14,3 C 14,5 km/h
29.09.2020 14:47 15,6 C 67 % 1017,1 hPa 0,0 l/m 3,3 km/h NW 315 0 min 1,4 UV-I 99 W/m 9,5 C 15,6 C 4,8 km/h
29.09.2020 14:46 15,6 C 68 % 1017,1 hPa 0,0 l/m 3,3 km/h W-NW 298 1 min 1,4 UV-I 425 W/m 9,7 C 15,6 C 4,8 km/h
29.09.2020 14:45 15,6 C 67 % 1017,0 hPa 0,0 l/m 3,1 km/h W-SW 246 1 min 1,9 UV-I 559 W/m 9,5 C 15,6 C 4,8 km/h
29.09.2020 14:44 15,5 C 67 % 1017,0 hPa 0,0 l/m 2,5 km/h W-SW 257 1 min 1,9 UV-I 550 W/m 9,4 C 15,5 C 3,2 km/h
29.09.2020 14:43 15,4 C 67 % 1017,0 hPa 0,0 l/m 4,2 km/h W-SW 257 1 min 2,0 UV-I 550 W/m 9,3 C 15,4 C 6,4 km/h
29.09.2020 14:42 15,4 C 68 % 1017,1 hPa 0,0 l/m 4,6 km/h W-SW 248 1 min 2,0 UV-I 556 W/m 9,5 C 15,4 C 6,4 km/h
29.09.2020 14:41 15,3 C 68 % 1017,1 hPa 0,0 l/m 2,2 km/h W-SW 255 1 min 2,0 UV-I 564 W/m 9,4 C 15,3 C 6,4 km/h
29.09.2020 14:40 15,3 C 66 % 1017,1 hPa 0,0 l/m 5,5 km/h W-NW 288 1 min 2,0 UV-I 574 W/m 9,0 C 15,3 C 11,3 km/h
29.09.2020 14:39 15,3 C 69 % 1017,1 hPa 0,0 l/m 6,6 km/h W-NW 298 1 min 2,0 UV-I 587 W/m 9,6 C 15,2 C 11,3 km/h
29.09.2020 14:38 15,2 C 69 % 1017,1 hPa 0,0 l/m 5,1 km/h W-NW 286 1 min 1,8 UV-I 473 W/m 9,6 C 15,2 C 6,4 km/h
29.09.2020 14:37 15,2 C 69 % 1017,1 hPa 0,0 l/m 3,8 km/h NW 306 0 min 1,6 UV-I 148 W/m 9,6 C 15,2 C 4,8 km/h
29.09.2020 14:36 15,2 C 68 % 1017,1 hPa 0,0 l/m 6,9 km/h W-NW 284 0 min 1,5 UV-I 140 W/m 9,3 C 14,9 C 12,9 km/h
29.09.2020 14:35 15,3 C 69 % 1017,1 hPa 0,0 l/m 6,6 km/h W 271 1 min 1,6 UV-I 427 W/m 9,6 C 15,2 C 9,7 km/h
29.09.2020 14:34 15,3 C 69 % 1017,1 hPa 0,0 l/m 3,7 km/h W-SW 256 1 min 1,7 UV-I 603 W/m 9,6 C 15,3 C 6,4 km/h
29.09.2020 14:33 15,3 C 71 % 1017,1 hPa 0,0 l/m 2,3 km/h W-SW 242 1 min 2,1 UV-I 578 W/m 10,1 C 15,3 C 4,8 km/h
29.09.2020 14:32 15,1 C 68 % 1017,1 hPa 0,0 l/m 2,5 km/h W-SW 246 1 min 1,9 UV-I 575 W/m 9,2 C 15,1 C 4,8 km/h
29.09.2020 14:31 15,2 C 69 % 1017,1 hPa 0,0 l/m 4,2 km/h W-SW 251 1 min 1,9 UV-I 575 W/m 9,6 C 15,2 C 6,4 km/h
29.09.2020 14:30 15,2 C 68 % 1017,1 hPa 0,0 l/m 8,3 km/h W-SW 252 1 min 1,9 UV-I 575 W/m 9,3 C 14,2 C 12,9 km/h
29.09.2020 14:29 15,3 C 68 % 1017,1 hPa 0,0 l/m 11,3 km/h W 266 1 min 1,9 UV-I 604 W/m 9,4 C 12,9 C 12,9 km/h
29.09.2020 14:28 15,4 C 68 % 1017,1 hPa 0,0 l/m 7,1 km/h W 274 1 min 1,7 UV-I 624 W/m 9,5 C 15,0 C 12,9 km/h
29.09.2020 14:27 15,6 C 66 % 1017,0 hPa 0,0 l/m 11,7 km/h SW 229 1 min 2,1 UV-I 624 W/m 9,3 C 13,1 C 14,5 km/h
29.09.2020 14:26 15,8 C 68 % 1017,1 hPa 0,0 l/m 14,8 km/h W-SW 249 1 min 2,1 UV-I 623 W/m 9,9 C 12,2 C 17,7 km/h
29.09.2020 14:25 15,9 C 68 % 1017,1 hPa 0,0 l/m 8,6 km/h W-SW 247 1 min 2,1 UV-I 626 W/m 10,0 C 14,8 C 14,5 km/h
29.09.2020 14:24 15,8 C 69 % 1017,1 hPa 0,0 l/m 2,7 km/h W-SW 246 1 min 2,1 UV-I 632 W/m 10,1 C 15,8 C 4,8 km/h
29.09.2020 14:23 15,7 C 70 % 1017,1 hPa 0,0 l/m 2,4 km/h W 265 1 min 2,1 UV-I 614 W/m 10,2 C 15,7 C 4,8 km/h
29.09.2020 14:22 15,5 C 69 % 1017,1 hPa 0,0 l/m 4,0 km/h W 270 1 min 2,2 UV-I 651 W/m 9,8 C 15,5 C 9,7 km/h
29.09.2020 14:21 15,4 C 70 % 1017,1 hPa 0,0 l/m 5,0 km/h W-SW 246 1 min 2,2 UV-I 649 W/m 10,0 C 15,4 C 6,4 km/h
29.09.2020 14:20 15,3 C 70 % 1017,1 hPa 0,0 l/m 1,1 km/h W 266 1 min 2,2 UV-I 622 W/m 9,9 C 15,3 C 4,8 km/h
29.09.2020 14:19 15,3 C 68 % 1017,1 hPa 0,0 l/m 1,6 km/h NW 307 1 min 2,2 UV-I 611 W/m 9,4 C 15,3 C 3,2 km/h
29.09.2020 14:18 15,3 C 68 % 1017,1 hPa 0,0 l/m 4,7 km/h NW 306 1 min 2,2 UV-I 606 W/m 9,4 C 15,3 C 6,4 km/h
29.09.2020 14:17 15,3 C 69 % 1017,1 hPa 0,0 l/m 5,1 km/h NW 309 1 min 2,2 UV-I 622 W/m 9,6 C 15,3 C 6,4 km/h
29.09.2020 14:16 15,2 C 69 % 1017,1 hPa 0,0 l/m 6,4 km/h NW 308 1 min 2,2 UV-I 624 W/m 9,6 C 15,2 C 8,0 km/h
29.09.2020 14:15 15,3 C 68 % 1017,1 hPa 0,0 l/m 8,3 km/h NW 306 1 min 2,2 UV-I 625 W/m 9,4 C 14,3 C 12,9 km/h
29.09.2020 14:14 15,3 C 69 % 1017,1 hPa 0,0 l/m 6,0 km/h N-NW 341 1 min 2,2 UV-I 633 W/m 9,6 C 15,3 C 8,0 km/h
29.09.2020 14:13 15,3 C 70 % 1017,1 hPa 0,0 l/m 3,6 km/h NW 309 1 min 2,0 UV-I 638 W/m 9,9 C 15,3 C 8,0 km/h
29.09.2020 14:12 15,3 C 72 % 1017,2 hPa 0,0 l/m 2,4 km/h NW 308 1 min 1,8 UV-I 638 W/m 10,3 C 15,3 C 4,8 km/h
29.09.2020 14:11 15,3 C 70 % 1017,2 hPa 0,0 l/m 2,1 km/h W-NW 288 1 min 2,1 UV-I 638 W/m 9,9 C 15,3 C 3,2 km/h
29.09.2020 14:10 15,2 C 70 % 1017,2 hPa 0,0 l/m 1,8 km/h W-NW 286 1 min 2,2 UV-I 640 W/m 9,8 C 15,2 C 3,2 km/h
29.09.2020 14:09 15,1 C 69 % 1017,2 hPa 0,0 l/m 2,2 km/h W 276 1 min 2,2 UV-I 582 W/m 9,5 C 15,1 C 4,8 km/h
29.09.2020 14:08 15,2 C 70 % 1017,2 hPa 0,0 l/m 5,8 km/h W-SW 258 1 min 2,1 UV-I 635 W/m 9,8 C 15,2 C 9,7 km/h
29.09.2020 14:07 15,2 C 70 % 1017,2 hPa 0,0 l/m 6,6 km/h W-NW 288 1 min 2,1 UV-I 635 W/m 9,8 C 15,1 C 11,3 km/h
29.09.2020 14:06 15,3 C 70 % 1017,2 hPa 0,0 l/m 5,2 km/h NW 325 1 min 2,2 UV-I 631 W/m 9,9 C 15,3 C 6,4 km/h
29.09.2020 14:05 15,4 C 70 % 1017,2 hPa 0,0 l/m 3,7 km/h W-SW 249 1 min 1,8 UV-I 628 W/m 10,0 C 15,4 C 4,8 km/h
29.09.2020 14:04 15,6 C 69 % 1017,2 hPa 0,0 l/m 4,2 km/h NW 316 1 min 2,3 UV-I 628 W/m 9,9 C 15,6 C 6,4 km/h
29.09.2020 14:03 15,5 C 72 % 1017,2 hPa 0,0 l/m 1,6 km/h W-NW 288 1 min 2,3 UV-I 628 W/m 10,5 C 15,5 C 3,2 km/h
29.09.2020 14:02 15,4 C 69 % 1017,2 hPa 0,0 l/m 4,8 km/h W-SW 248 1 min 2,3 UV-I 627 W/m 9,7 C 15,4 C 6,4 km/h
29.09.2020 14:01 15,4 C 68 % 1017,2 hPa 0,0 l/m 7,2 km/h W 273 1 min 2,3 UV-I 636 W/m 9,5 C 15,0 C 11,3 km/h
29.09.2020 14:00 15,4 C 67 % 1017,2 hPa 0,0 l/m 3,8 km/h W-SW 238 1 min 2,3 UV-I 638 W/m 9,3 C 15,4 C 6,4 km/h
29.09.2020 13:59 15,4 C 68 % 1017,2 hPa 0,0 l/m 3,7 km/h W 271 1 min 1,9 UV-I 586 W/m 9,5 C 15,4 C 6,4 km/h
29.09.2020 13:58 15,4 C 73 % 1017,2 hPa 0,0 l/m 3,6 km/h W-SW 237 1 min 2,4 UV-I 654 W/m 10,6 C 15,4 C 8,0 km/h
29.09.2020 13:57 15,2 C 70 % 1017,3 hPa 0,0 l/m 6,8 km/h SW 234 1 min 2,3 UV-I 652 W/m 9,8 C 15,0 C 9,7 km/h
29.09.2020 13:56 15,1 C 69 % 1017,3 hPa 0,0 l/m 7,5 km/h SW 215 1 min 2,3 UV-I 646 W/m 9,5 C 14,5 C 11,3 km/h
29.09.2020 13:55 14,9 C 70 % 1017,2 hPa 0,0 l/m 6,0 km/h W-SW 238 1 min 2,3 UV-I 655 W/m 9,5 C 14,9 C 11,3 km/h
29.09.2020 13:54 14,8 C 69 % 1017,3 hPa 0,0 l/m 5,4 km/h SW 223 1 min 2,3 UV-I 665 W/m 9,2 C 14,8 C 11,3 km/h
29.09.2020 13:53 14,7 C 68 % 1017,3 hPa 0,0 l/m 0,5 km/h W-SW 247 0 min 2,1 UV-I 289 W/m 8,9 C 14,7 C 1,6 km/h
29.09.2020 13:52 14,6 C 68 % 1017,3 hPa 0,0 l/m 1,7 km/h W-SW 254 0 min 2,2 UV-I 162 W/m 8,8 C 14,6 C 4,8 km/h
29.09.2020 13:51 14,6 C 69 % 1017,3 hPa 0,0 l/m 4,9 km/h W-SW 254 0 min 1,9 UV-I 162 W/m 9,0 C 14,6 C 9,7 km/h
29.09.2020 13:50 14,7 C 69 % 1017,3 hPa 0,0 l/m 3,5 km/h W-NW 283 0 min 1,6 UV-I 159 W/m 9,1 C 14,7 C 8,0 km/h
29.09.2020 13:49 14,8 C 69 % 1017,4 hPa 0,0 l/m 3,6 km/h W-NW 301 0 min 1,6 UV-I 154 W/m 9,2 C 14,8 C 4,8 km/h
29.09.2020 13:48 14,9 C 67 % 1017,4 hPa 0,0 l/m 6,0 km/h NW 322 0 min 1,7 UV-I 166 W/m 8,8 C 14,9 C 12,9 km/h
29.09.2020 13:47 15,1 C 68 % 1017,3 hPa 0,0 l/m 7,8 km/h W-NW 300 1 min 1,7 UV-I 585 W/m 9,2 C 14,3 C 12,9 km/h
29.09.2020 13:46 15,2 C 70 % 1017,4 hPa 0,0 l/m 7,4 km/h W 259 1 min 2,0 UV-I 694 W/m 9,8 C 14,6 C 12,9 km/h
29.09.2020 13:45 15,1 C 72 % 1017,3 hPa 0,0 l/m 0,9 km/h W-SW 244 1 min 2,4 UV-I 697 W/m 10,1 C 15,1 C 3,2 km/h
29.09.2020 13:44 14,9 C 72 % 1017,4 hPa 0,0 l/m 3,1 km/h SW 229 1 min 2,4 UV-I 708 W/m 9,9 C 14,9 C 4,8 km/h
29.09.2020 13:43 14,8 C 69 % 1017,5 hPa 0,0 l/m 2,6 km/h W-SW 238 1 min 2,0 UV-I 710 W/m 9,2 C 14,8 C 4,8 km/h
29.09.2020 13:42 14,9 C 70 % 1017,4 hPa 0,0 l/m 6,2 km/h S 189 1 min 2,2 UV-I 710 W/m 9,5 C 14,9 C 8,0 km/h
29.09.2020 13:41 14,9 C 69 % 1017,4 hPa 0,0 l/m 7,1 km/h S-SW 194 1 min 2,0 UV-I 710 W/m 9,3 C 14,5 C 9,7 km/h
29.09.2020 13:40 14,9 C 70 % 1017,5 hPa 0,0 l/m 6,2 km/h S-SW 192 1 min 2,4 UV-I 712 W/m 9,5 C 14,9 C 9,7 km/h
29.09.2020 13:39 14,8 C 68 % 1017,5 hPa 0,0 l/m 5,6 km/h S 187 1 min 2,4 UV-I 726 W/m 9,0 C 14,8 C 8,0 km/h
29.09.2020 13:38 14,8 C 71 % 1017,5 hPa 0,0 l/m 8,2 km/h SW 221 1 min 2,3 UV-I 707 W/m 9,6 C 13,8 C 9,7 km/h
29.09.2020 13:37 14,7 C 70 % 1017,5 hPa 0,0 l/m 5,2 km/h SW 217 1 min 2,3 UV-I 686 W/m 9,3 C 14,7 C 8,0 km/h
29.09.2020 13:36 14,6 C 71 % 1017,5 hPa 0,0 l/m 6,5 km/h S 190 1 min 2,4 UV-I 686 W/m 9,4 C 14,6 C 12,9 km/h
29.09.2020 13:35 14,6 C 71 % 1017,4 hPa 0,0 l/m 7,0 km/h SW 228 1 min 2,3 UV-I 640 W/m 9,4 C 14,3 C 12,9 km/h
29.09.2020 13:34 14,6 C 70 % 1017,4 hPa 0,0 l/m 6,7 km/h W-NW 288 1 min 2,0 UV-I 635 W/m 9,2 C 14,4 C 11,3 km/h
29.09.2020 13:33 14,6 C 71 % 1017,4 hPa 0,0 l/m 3,6 km/h W-NW 292 1 min 2,0 UV-I 635 W/m 9,4 C 14,6 C 8,0 km/h
29.09.2020 13:32 14,6 C 70 % 1017,4 hPa 0,0 l/m 7,9 km/h W-NW 297 1 min 2,4 UV-I 637 W/m 9,2 C 13,7 C 11,3 km/h
29.09.2020 13:31 14,7 C 70 % 1017,4 hPa 0,0 l/m 5,8 km/h W 259 1 min 2,4 UV-I 621 W/m 9,3 C 14,7 C 11,3 km/h
29.09.2020 13:30 14,6 C 70 % 1017,4 hPa 0,0 l/m 4,7 km/h SW 220 1 min 2,5 UV-I 634 W/m 9,2 C 14,6 C 8,0 km/h
29.09.2020 13:29 14,6 C 72 % 1017,4 hPa 0,0 l/m 6,1 km/h S-SW 213 1 min 2,5 UV-I 651 W/m 9,6 C 14,6 C 9,7 km/h
29.09.2020 13:28 14,5 C 71 % 1017,4 hPa 0,0 l/m 2,7 km/h SW 225 0 min 2,3 UV-I 125 W/m 9,3 C 14,5 C 4,8 km/h
29.09.2020 13:27 14,6 C 69 % 1017,4 hPa 0,0 l/m 2,8 km/h W-NW 289 0 min 1,6 UV-I 116 W/m 9,0 C 14,6 C 4,8 km/h
29.09.2020 13:26 14,8 C 69 % 1017,4 hPa 0,0 l/m 2,7 km/h W-NW 291 0 min 1,6 UV-I 99 W/m 9,2 C 14,8 C 4,8 km/h
29.09.2020 13:25 14,9 C 69 % 1017,4 hPa 0,0 l/m 5,3 km/h W 268 0 min 1,7 UV-I 98 W/m 9,3 C 14,9 C 9,7 km/h
29.09.2020 13:24 15,0 C 70 % 1017,4 hPa 0,0 l/m 3,8 km/h W-SW 250 1 min 1,7 UV-I 505 W/m 9,6 C 15,0 C 6,4 km/h
29.09.2020 13:23 15,0 C 74 % 1017,4 hPa 0,0 l/m 2,9 km/h NW 308 1 min 2,5 UV-I 622 W/m 10,4 C 15,0 C 6,4 km/h
29.09.2020 13:22 14,9 C 70 % 1017,4 hPa 0,0 l/m 8,0 km/h W-SW 257 1 min 2,4 UV-I 616 W/m 9,5 C 14,0 C 11,3 km/h
29.09.2020 13:21 14,9 C 70 % 1017,3 hPa 0,0 l/m 5,6 km/h W-SW 244 1 min 2,4 UV-I 606 W/m 9,5 C 14,9 C 11,3 km/h
29.09.2020 13:20 14,8 C 71 % 1017,4 hPa 0,0 l/m 6,6 km/h SW 216 1 min 2,4 UV-I 626 W/m 9,6 C 14,7 C 9,7 km/h
29.09.2020 13:19 14,8 C 70 % 1017,4 hPa 0,0 l/m 8,0 km/h W-SW 246 1 min 2,0 UV-I 643 W/m 9,4 C 13,9 C 11,3 km/h
29.09.2020 13:18 14,9 C 70 % 1017,4 hPa 0,0 l/m 6,2 km/h SW 224 1 min 1,9 UV-I 643 W/m 9,5 C 14,9 C 9,7 km/h
29.09.2020 13:17 14,9 C 70 % 1017,4 hPa 0,0 l/m 4,6 km/h S-SW 202 1 min 2,5 UV-I 630 W/m 9,5 C 14,9 C 8,0 km/h
29.09.2020 13:16 14,8 C 69 % 1017,4 hPa 0,0 l/m 5,2 km/h SW 224 1 min 2,5 UV-I 630 W/m 9,2 C 14,8 C 8,0 km/h
29.09.2020 13:15 15,1 C 70 % 1017,3 hPa 0,0 l/m 9,4 km/h W-SW 237 1 min 2,5 UV-I 622 W/m 9,7 C 13,5 C 14,5 km/h
29.09.2020 13:14 15,1 C 70 % 1017,3 hPa 0,0 l/m 6,2 km/h SW 221 1 min 2,5 UV-I 619 W/m 9,7 C 15,1 C 8,0 km/h
29.09.2020 13:13 15,0 C 69 % 1017,4 hPa 0,0 l/m 6,6 km/h S-SW 197 1 min 2,5 UV-I 620 W/m 9,4 C 14,9 C 11,3 km/h
29.09.2020 13:12 14,9 C 68 % 1017,3 hPa 0,0 l/m 5,5 km/h S 187 1 min 2,5 UV-I 623 W/m 9,0 C 14,9 C 8,0 km/h
29.09.2020 13:11 14,9 C 70 % 1017,3 hPa 0,0 l/m 6,7 km/h S-SW 200 1 min 2,6 UV-I 629 W/m 9,5 C 14,7 C 9,7 km/h
29.09.2020 13:10 14,8 C 69 % 1017,3 hPa 0,0 l/m 6,0 km/h S 186 1 min 2,6 UV-I 634 W/m 9,2 C 14,8 C 8,0 km/h
29.09.2020 13:09 14,9 C 69 % 1017,3 hPa 0,0 l/m 9,5 km/h S 190 1 min 2,5 UV-I 630 W/m 9,3 C 13,2 C 12,9 km/h
29.09.2020 13:08 14,9 C 70 % 1017,4 hPa 0,0 l/m 9,2 km/h S 184 1 min 2,5 UV-I 626 W/m 9,5 C 13,4 C 11,3 km/h
29.09.2020 13:07 14,9 C 71 % 1017,4 hPa 0,0 l/m 2,2 km/h S 173 1 min 2,5 UV-I 622 W/m 9,7 C 14,9 C 8,0 km/h
29.09.2020 13:06 14,8 C 69 % 1017,3 hPa 0,0 l/m 0,8 km/h SW 217 1 min 2,5 UV-I 619 W/m 9,2 C 14,8 C 1,6 km/h
29.09.2020 13:05 14,8 C 70 % 1017,3 hPa 0,0 l/m 4,4 km/h SW 234 1 min 2,5 UV-I 625 W/m 9,4 C 14,8 C 8,0 km/h
29.09.2020 13:04 14,8 C 70 % 1017,4 hPa 0,0 l/m 3,9 km/h S 190 1 min 2,6 UV-I 631 W/m 9,4 C 14,8 C 6,4 km/h
29.09.2020 13:03 14,7 C 70 % 1017,4 hPa 0,0 l/m 2,8 km/h S-SW 213 1 min 2,5 UV-I 629 W/m 9,3 C 14,7 C 4,8 km/h
29.09.2020 13:02 14,8 C 71 % 1017,4 hPa 0,0 l/m 5,9 km/h S-SW 210 1 min 2,5 UV-I 622 W/m 9,6 C 14,8 C 8,0 km/h
29.09.2020 13:01 14,7 C 71 % 1017,4 hPa 0,0 l/m 7,6 km/h S-SW 194 1 min 2,5 UV-I 618 W/m 9,5 C 14,0 C 9,7 km/h
29.09.2020 13:00 14,7 C 70 % 1017,4 hPa 0,0 l/m 4,7 km/h SW 232 1 min 2,4 UV-I 594 W/m 9,3 C 14,7 C 11,3 km/h
29.09.2020 12:59 14,8 C 71 % 1017,4 hPa 0,0 l/m 5,6 km/h SW 220 1 min 2,4 UV-I 565 W/m 9,6 C 14,8 C 12,9 km/h
29.09.2020 12:58 14,8 C 71 % 1017,4 hPa 0,0 l/m 3,0 km/h SW 233 1 min 2,5 UV-I 613 W/m 9,6 C 14,8 C 4,8 km/h
29.09.2020 12:57 14,8 C 74 % 1017,4 hPa 0,0 l/m 4,0 km/h S-SW 202 1 min 2,5 UV-I 612 W/m 10,2 C 14,8 C 6,4 km/h
29.09.2020 12:56 14,7 C 74 % 1017,4 hPa 0,0 l/m 3,3 km/h S-SO 168 1 min 2,5 UV-I 616 W/m 10,1 C 14,7 C 6,4 km/h
29.09.2020 12:55 14,6 C 77 % 1017,4 hPa 0,0 l/m 2,9 km/h S-SW 196 1 min 2,5 UV-I 616 W/m 10,6 C 14,6 C 4,8 km/h
29.09.2020 12:54 14,5 C 74 % 1017,4 hPa 0,0 l/m 0,7 km/h N-NW 329 1 min 2,5 UV-I 613 W/m 9,9 C 14,5 C 1,6 km/h
29.09.2020 12:53 14,4 C 73 % 1017,4 hPa 0,0 l/m 3,8 km/h N-NW 330 1 min 2,4 UV-I 606 W/m 9,6 C 14,4 C 4,8 km/h
29.09.2020 12:52 14,4 C 75 % 1017,4 hPa 0,0 l/m 3,6 km/h N-NW 335 1 min 2,5 UV-I 609 W/m 10,0 C 14,4 C 4,8 km/h
29.09.2020 12:51 14,4 C 76 % 1017,4 hPa 0,0 l/m 7,2 km/h N-NW 329 1 min 2,5 UV-I 609 W/m 10,2 C 13,9 C 11,3 km/h
29.09.2020 12:50 14,3 C 73 % 1017,4 hPa 0,0 l/m 5,4 km/h SW 236 1 min 2,5 UV-I 600 W/m 9,5 C 14,3 C 8,0 km/h
29.09.2020 12:49 14,3 C 74 % 1017,4 hPa 0,0 l/m 2,3 km/h W-SW 239 1 min 2,4 UV-I 595 W/m 9,7 C 14,3 C 4,8 km/h
29.09.2020 12:48 14,3 C 73 % 1017,4 hPa 0,0 l/m 1,7 km/h W-SW 256 1 min 2,4 UV-I 597 W/m 9,5 C 14,3 C 4,8 km/h
29.09.2020 12:47 14,3 C 75 % 1017,4 hPa 0,0 l/m 4,1 km/h W-SW 256 1 min 2,5 UV-I 596 W/m 9,9 C 14,3 C 9,7 km/h
29.09.2020 12:46 14,4 C 74 % 1017,4 hPa 0,0 l/m 4,8 km/h NW 305 1 min 2,5 UV-I 595 W/m 9,8 C 14,4 C 6,4 km/h
29.09.2020 12:45 14,3 C 76 % 1017,4 hPa 0,0 l/m 2,4 km/h NW 310 1 min 2,4 UV-I 591 W/m 10,1 C 14,3 C 4,8 km/h
29.09.2020 12:44 14,3 C 74 % 1017,3 hPa 0,0 l/m 5,2 km/h NW 319 1 min 2,4 UV-I 594 W/m 9,7 C 14,3 C 8,0 km/h
29.09.2020 12:43 14,3 C 78 % 1017,4 hPa 0,0 l/m 3,4 km/h NW 319 1 min 2,5 UV-I 596 W/m 10,5 C 14,3 C 6,4 km/h
29.09.2020 12:42 14,2 C 76 % 1017,4 hPa 0,0 l/m 4,8 km/h W-SW 240 1 min 2,4 UV-I 588 W/m 10,0 C 14,2 C 8,0 km/h
29.09.2020 12:41 14,1 C 78 % 1017,4 hPa 0,0 l/m 3,0 km/h NW 323 1 min 2,4 UV-I 591 W/m 10,3 C 14,1 C 4,8 km/h
29.09.2020 12:40 13,9 C 76 % 1017,4 hPa 0,0 l/m 3,8 km/h NW 315 1 min 2,4 UV-I 590 W/m 9,7 C 13,9 C 4,8 km/h
29.09.2020 12:39 13,8 C 76 % 1017,4 hPa 0,0 l/m 3,6 km/h N-NW 344 1 min 2,4 UV-I 582 W/m 9,6 C 13,8 C 6,4 km/h
29.09.2020 12:38 13,8 C 74 % 1017,4 hPa 0,0 l/m 4,2 km/h W 266 1 min 2,3 UV-I 573 W/m 9,2 C 13,8 C 6,4 km/h
29.09.2020 12:37 13,8 C 75 % 1017,4 hPa 0,0 l/m 6,4 km/h W-NW 286 1 min 2,4 UV-I 579 W/m 9,4 C 13,8 C 11,3 km/h
29.09.2020 12:36 13,9 C 75 % 1017,4 hPa 0,0 l/m 3,8 km/h W-SW 254 1 min 2,4 UV-I 587 W/m 9,5 C 13,9 C 6,4 km/h
29.09.2020 12:35 13,9 C 78 % 1017,4 hPa 0,0 l/m 5,0 km/h W-SW 248 1 min 2,4 UV-I 589 W/m 10,1 C 13,9 C 9,7 km/h
29.09.2020 12:34 13,9 C 77 % 1017,4 hPa 0,0 l/m 5,3 km/h W 259 1 min 2,4 UV-I 589 W/m 9,9 C 13,9 C 6,4 km/h
29.09.2020 12:33 13,9 C 75 % 1017,4 hPa 0,0 l/m 2,9 km/h W 261 1 min 2,4 UV-I 581 W/m 9,5 C 13,9 C 4,8 km/h
29.09.2020 12:32 13,9 C 75 % 1017,4 hPa 0,0 l/m 2,8 km/h SW 227 1 min 2,3 UV-I 576 W/m 9,5 C 13,9 C 4,8 km/h
29.09.2020 12:31 13,9 C 74 % 1017,4 hPa 0,0 l/m 2,4 km/h W-SW 248 1 min 2,3 UV-I 575 W/m 9,3 C 13,9 C 4,8 km/h
29.09.2020 12:30 13,8 C 75 % 1017,5 hPa 0,0 l/m 1,7 km/h W-SW 252 1 min 2,3 UV-I 568 W/m 9,4 C 13,8 C 3,2 km/h
29.09.2020 12:29 13,8 C 73 % 1017,5 hPa 0,0 l/m 1,4 km/h W-SW 252 1 min 2,3 UV-I 571 W/m 9,0 C 13,8 C 3,2 km/h
29.09.2020 12:28 13,8 C 75 % 1017,4 hPa 0,0 l/m 4,3 km/h W-SW 252 1 min 2,3 UV-I 573 W/m 9,4 C 13,8 C 6,4 km/h
29.09.2020 12:27 13,9 C 76 % 1017,5 hPa 0,0 l/m 4,6 km/h W-SW 255 1 min 2,3 UV-I 572 W/m 9,7 C 13,9 C 6,4 km/h
29.09.2020 12:26 13,8 C 73 % 1017,5 hPa 0,0 l/m 1,2 km/h W 277 1 min 2,3 UV-I 574 W/m 9,0 C 13,8 C 3,2 km/h
29.09.2020 12:25 13,8 C 74 % 1017,5 hPa 0,0 l/m 2,6 km/h W 277 1 min 2,3 UV-I 577 W/m 9,2 C 13,8 C 3,2 km/h
29.09.2020 12:24 13,9 C 73 % 1017,5 hPa 0,0 l/m 5,3 km/h W-NW 302 1 min 2,3 UV-I 575 W/m 9,1 C 13,9 C 8,0 km/h
29.09.2020 12:23 14,0 C 74 % 1017,5 hPa 0,0 l/m 3,8 km/h NW 323 1 min 2,3 UV-I 575 W/m 9,4 C 14,0 C 8,0 km/h
29.09.2020 12:22 14,1 C 73 % 1017,6 hPa 0,0 l/m 3,0 km/h W-NW 294 1 min 2,1 UV-I 574 W/m 9,3 C 14,1 C 6,4 km/h
29.09.2020 12:21 14,3 C 74 % 1017,5 hPa 0,0 l/m 2,3 km/h W-NW 288 1 min 2,2 UV-I 573 W/m 9,7 C 14,3 C 6,4 km/h
29.09.2020 12:20 14,3 C 77 % 1017,5 hPa 0,0 l/m 2,5 km/h N-NO 18 1 min 2,3 UV-I 573 W/m 10,3 C 14,3 C 4,8 km/h
29.09.2020 12:19 14,1 C 77 % 1017,6 hPa 0,0 l/m 1,3 km/h SW 219 1 min 2,3 UV-I 575 W/m 10,1 C 14,1 C 1,6 km/h
29.09.2020 12:18 13,8 C 74 % 1017,6 hPa 0,0 l/m 0,7 km/h SW 234 1 min 2,3 UV-I 573 W/m 9,2 C 13,8 C 1,6 km/h
29.09.2020 12:17 13,7 C 76 % 1017,6 hPa 0,0 l/m 0,6 km/h SW 234 1 min 2,3 UV-I 571 W/m 9,5 C 13,7 C 1,6 km/h
29.09.2020 12:16 13,6 C 75 % 1017,6 hPa 0,0 l/m 2,8 km/h W-SW 239 1 min 2,3 UV-I 570 W/m 9,3 C 13,6 C 4,8 km/h
29.09.2020 12:15 13,6 C 76 % 1017,6 hPa 0,0 l/m 0,8 km/h W-SW 248 1 min 2,3 UV-I 570 W/m 9,4 C 13,6 C 3,2 km/h
29.09.2020 12:14 13,3 C 75 % 1017,6 hPa 0,0 l/m 0,0 km/h W-SW 248 1 min 2,3 UV-I 569 W/m 9,0 C 13,3 C 0,0 km/h
29.09.2020 12:13 13,2 C 75 % 1017,6 hPa 0,0 l/m 0,5 km/h W-SW 248 1 min 2,3 UV-I 566 W/m 8,9 C 13,2 C 1,6 km/h
29.09.2020 12:12 13,2 C 75 % 1017,6 hPa 0,0 l/m 4,6 km/h W-SW 248 1 min 2,2 UV-I 564 W/m 8,9 C 13,2 C 6,4 km/h
29.09.2020 12:11 13,3 C 76 % 1017,6 hPa 0,0 l/m 5,9 km/h W-SW 256 1 min 2,2 UV-I 562 W/m 9,2 C 13,3 C 8,0 km/h
29.09.2020 12:10 13,3 C 77 % 1017,6 hPa 0,0 l/m 4,8 km/h W 261 1 min 2,2 UV-I 561 W/m 9,4 C 13,3 C 6,4 km/h
29.09.2020 12:09 13,5 C 76 % 1017,6 hPa 0,0 l/m 6,5 km/h W 273 1 min 2,2 UV-I 559 W/m 9,4 C 13,5 C 9,7 km/h
29.09.2020 12:08 13,6 C 75 % 1017,6 hPa 0,0 l/m 6,3 km/h W 261 1 min 2,2 UV-I 554 W/m 9,3 C 13,6 C 9,7 km/h
29.09.2020 12:07 13,7 C 75 % 1017,6 hPa 0,0 l/m 3,0 km/h W-NW 288 1 min 2,2 UV-I 549 W/m 9,3 C 13,7 C 4,8 km/h
29.09.2020 12:06 13,8 C 77 % 1017,6 hPa 0,0 l/m 0,4 km/h W 271 1 min 2,2 UV-I 554 W/m 9,8 C 13,8 C 1,6 km/h
29.09.2020 12:05 13,6 C 78 % 1017,6 hPa 0,0 l/m 0,6 km/h W 271 1 min 2,2 UV-I 556 W/m 9,8 C 13,6 C 1,6 km/h
29.09.2020 12:04 13,6 C 76 % 1017,6 hPa 0,0 l/m 1,1 km/h W 271 1 min 2,2 UV-I 557 W/m 9,4 C 13,6 C 1,6 km/h
29.09.2020 12:03 13,6 C 77 % 1017,6 hPa 0,0 l/m 2,3 km/h W 271 1 min 2,2 UV-I 556 W/m 9,6 C 13,6 C 4,8 km/h
29.09.2020 12:02 13,7 C 76 % 1017,6 hPa 0,0 l/m 3,6 km/h W 271 1 min 2,2 UV-I 557 W/m 9,5 C 13,7 C 4,8 km/h
29.09.2020 12:01 13,7 C 77 % 1017,6 hPa 0,0 l/m 3,4 km/h SW 217 1 min 2,2 UV-I 555 W/m 9,7 C 13,7 C 4,8 km/h
29.09.2020 12:00 13,6 C 77 % 1017,6 hPa 0,0 l/m 1,4 km/h S 188 1 min 2,2 UV-I 554 W/m 9,6 C 13,6 C 3,2 km/h
29.09.2020 11:59 13,5 C 77 % 1017,7 hPa 0,0 l/m 0,3 km/h S 188 1 min 2,2 UV-I 554 W/m 9,5 C 13,5 C 1,6 km/h
29.09.2020 11:58 13,4 C 75 % 1017,7 hPa 0,0 l/m 2,7 km/h S 188 1 min 2,1 UV-I 551 W/m 9,1 C 13,4 C 4,8 km/h
29.09.2020 11:57 13,5 C 79 % 1017,7 hPa 0,0 l/m 3,9 km/h S-SW 206 1 min 2,1 UV-I 548 W/m 9,9 C 13,5 C 6,4 km/h
29.09.2020 11:56 13,4 C 78 % 1017,7 hPa 0,0 l/m 0,5 km/h W-SW 251 1 min 2,1 UV-I 546 W/m 9,6 C 13,4 C 1,6 km/h
29.09.2020 11:55 13,3 C 78 % 1017,7 hPa 0,0 l/m 0,1 km/h W-SW 251 1 min 2,1 UV-I 545 W/m 9,5 C 13,3 C 1,6 km/h
29.09.2020 11:54 13,1 C 77 % 1017,7 hPa 0,0 l/m 0,1 km/h W-SW 251 1 min 2,1 UV-I 543 W/m 9,2 C 13,1 C 1,6 km/h
29.09.2020 11:53 13,1 C 78 % 1017,7 hPa 0,0 l/m 2,2 km/h W-SW 251 1 min 2,1 UV-I 543 W/m 9,4 C 13,1 C 3,2 km/h
29.09.2020 11:52 13,1 C 79 % 1017,7 hPa 0,0 l/m 4,2 km/h W-SW 247 1 min 2,1 UV-I 542 W/m 9,5 C 13,1 C 6,4 km/h
29.09.2020 11:51 13,2 C 77 % 1017,7 hPa 0,0 l/m 2,3 km/h W-SW 248 1 min 2,1 UV-I 540 W/m 9,3 C 13,2 C 3,2 km/h
29.09.2020 11:50 13,2 C 77 % 1017,7 hPa 0,0 l/m 0,6 km/h W 274 1 min 2,1 UV-I 538 W/m 9,3 C 13,2 C 3,2 km/h
29.09.2020 11:49 13,2 C 78 % 1017,7 hPa 0,0 l/m 2,3 km/h W 278 1 min 2,0 UV-I 536 W/m 9,4 C 13,2 C 4,8 km/h
29.09.2020 11:48 13,3 C 79 % 1017,7 hPa 0,0 l/m 4,0 km/h W 272 1 min 2,0 UV-I 536 W/m 9,7 C 13,3 C 4,8 km/h
29.09.2020 11:47 13,2 C 79 % 1017,7 hPa 0,0 l/m 1,4 km/h W-NW 296 1 min 2,0 UV-I 535 W/m 9,6 C 13,2 C 3,2 km/h
29.09.2020 11:46 13,1 C 79 % 1017,7 hPa 0,0 l/m 0,1 km/h S-SW 207 1 min 2,0 UV-I 532 W/m 9,5 C 13,1 C 1,6 km/h
29.09.2020 11:45 13,0 C 78 % 1017,7 hPa 0,0 l/m 0,7 km/h S-SW 207 1 min 2,0 UV-I 515 W/m 9,3 C 13,0 C 1,6 km/h
29.09.2020 11:44 12,9 C 80 % 1017,7 hPa 0,0 l/m 1,2 km/h S-SW 207 1 min 2,0 UV-I 433 W/m 9,5 C 12,9 C 3,2 km/h
29.09.2020 11:43 12,8 C 84 % 1017,6 hPa 0,0 l/m 1,3 km/h S-SW 207 1 min 2,0 UV-I 375 W/m 10,2 C 12,8 C 1,6 km/h
29.09.2020 11:42 12,7 C 81 % 1017,7 hPa 0,0 l/m 2,3 km/h S-SW 207 1 min 1,9 UV-I 456 W/m 9,5 C 12,7 C 3,2 km/h
29.09.2020 11:41 12,6 C 81 % 1017,7 hPa 0,0 l/m 1,9 km/h W 259 1 min 1,9 UV-I 506 W/m 9,4 C 12,6 C 3,2 km/h
29.09.2020 11:40 12,4 C 80 % 1017,6 hPa 0,0 l/m 2,9 km/h W 259 1 min 1,9 UV-I 523 W/m 9,0 C 12,4 C 3,2 km/h
29.09.2020 11:39 12,4 C 82 % 1017,6 hPa 0,0 l/m 3,3 km/h W 260 1 min 1,9 UV-I 524 W/m 9,4 C 12,4 C 4,8 km/h
29.09.2020 11:38 12,4 C 80 % 1017,6 hPa 0,0 l/m 3,2 km/h W 261 1 min 1,9 UV-I 522 W/m 9,0 C 12,4 C 6,4 km/h
29.09.2020 11:37 12,4 C 81 % 1017,6 hPa 0,0 l/m 2,2 km/h W-SW 255 1 min 1,9 UV-I 520 W/m 9,2 C 12,4 C 6,4 km/h
29.09.2020 11:36 12,3 C 83 % 1017,6 hPa 0,0 l/m 1,1 km/h W-NW 287 1 min 1,9 UV-I 520 W/m 9,5 C 12,3 C 3,2 km/h
29.09.2020 11:35 12,2 C 81 % 1017,7 hPa 0,0 l/m 2,7 km/h W-NW 287 1 min 1,9 UV-I 519 W/m 9,0 C 12,2 C 4,8 km/h
29.09.2020 11:34 12,2 C 81 % 1017,6 hPa 0,0 l/m 3,9 km/h W-NW 285 1 min 1,9 UV-I 518 W/m 9,0 C 12,2 C 6,4 km/h
29.09.2020 11:33 12,3 C 80 % 1017,6 hPa 0,0 l/m 4,0 km/h W 261 1 min 1,9 UV-I 517 W/m 8,9 C 12,3 C 6,4 km/h
29.09.2020 11:32 12,4 C 81 % 1017,6 hPa 0,0 l/m 5,4 km/h W 265 1 min 1,9 UV-I 515 W/m 9,2 C 12,4 C 6,4 km/h
29.09.2020 11:31 12,4 C 84 % 1017,6 hPa 0,0 l/m 2,2 km/h W 262 1 min 1,9 UV-I 513 W/m 9,8 C 12,4 C 6,4 km/h
29.09.2020 11:30 12,4 C 80 % 1017,6 hPa 0,0 l/m 2,7 km/h S-SW 202 1 min 1,9 UV-I 511 W/m 9,0 C 12,4 C 6,4 km/h
29.09.2020 11:29 12,3 C 83 % 1017,6 hPa 0,0 l/m 0,6 km/h SW 236 1 min 1,8 UV-I 509 W/m 9,5 C 12,3 C 3,2 km/h
29.09.2020 11:28 12,2 C 82 % 1017,6 hPa 0,0 l/m 3,2 km/h SW 236 1 min 1,8 UV-I 507 W/m 9,2 C 12,2 C 6,4 km/h
29.09.2020 11:27 12,2 C 81 % 1017,6 hPa 0,0 l/m 2,3 km/h W 279 1 min 1,8 UV-I 505 W/m 9,0 C 12,2 C 3,2 km/h
29.09.2020 11:26 12,1 C 82 % 1017,6 hPa 0,0 l/m 1,3 km/h W-NW 301 1 min 1,8 UV-I 504 W/m 9,1 C 12,1 C 3,2 km/h
29.09.2020 11:25 11,9 C 81 % 1017,7 hPa 0,0 l/m 1,4 km/h NW 305 1 min 1,8 UV-I 503 W/m 8,7 C 11,9 C 1,6 km/h
29.09.2020 11:24 11,9 C 83 % 1017,6 hPa 0,0 l/m 2,4 km/h SW 220 1 min 1,8 UV-I 499 W/m 9,1 C 11,9 C 4,8 km/h
29.09.2020 11:23 11,9 C 82 % 1017,6 hPa 0,0 l/m 0,7 km/h SW 219 1 min 1,8 UV-I 495 W/m 8,9 C 11,9 C 1,6 km/h
29.09.2020 11:22 11,8 C 82 % 1017,7 hPa 0,0 l/m 1,8 km/h SW 219 1 min 1,8 UV-I 495 W/m 8,8 C 11,8 C 3,2 km/h
29.09.2020 11:21 11,8 C 81 % 1017,7 hPa 0,0 l/m 3,5 km/h SW 220 1 min 1,8 UV-I 494 W/m 8,6 C 11,8 C 4,8 km/h
29.09.2020 11:20 11,9 C 81 % 1017,7 hPa 0,0 l/m 3,6 km/h SW 220 1 min 1,7 UV-I 492 W/m 8,7 C 11,9 C 4,8 km/h
29.09.2020 11:19 11,9 C 84 % 1017,7 hPa 0,0 l/m 3,9 km/h SW 219 1 min 1,7 UV-I 492 W/m 9,3 C 11,9 C 6,4 km/h
29.09.2020 11:18 11,9 C 83 % 1017,7 hPa 0,0 l/m 1,8 km/h SW 228 1 min 1,7 UV-I 491 W/m 9,1 C 11,9 C 4,8 km/h
29.09.2020 11:17 11,8 C 82 % 1017,7 hPa 0,0 l/m 0,1 km/h W 275 1 min 1,7 UV-I 495 W/m 8,8 C 11,8 C 1,6 km/h
29.09.2020 11:16 11,7 C 83 % 1017,7 hPa 0,0 l/m 1,1 km/h W 275 1 min 1,7 UV-I 490 W/m 8,9 C 11,7 C 3,2 km/h
29.09.2020 11:15 11,7 C 82 % 1017,7 hPa 0,0 l/m 1,7 km/h W 275 1 min 1,7 UV-I 485 W/m 8,7 C 11,7 C 3,2 km/h
29.09.2020 11:14 11,6 C 84 % 1017,7 hPa 0,0 l/m 2,9 km/h W 275 1 min 1,7 UV-I 482 W/m 9,0 C 11,6 C 4,8 km/h
29.09.2020 11:13 11,6 C 83 % 1017,7 hPa 0,0 l/m 2,4 km/h W 279 1 min 1,7 UV-I 483 W/m 8,8 C 11,6 C 3,2 km/h
29.09.2020 11:12 11,6 C 83 % 1017,7 hPa 0,0 l/m 2,6 km/h W 279 1 min 1,7 UV-I 483 W/m 8,8 C 11,6 C 6,4 km/h
29.09.2020 11:11 11,7 C 83 % 1017,7 hPa 0,0 l/m 1,7 km/h W 278 1 min 1,6 UV-I 484 W/m 8,9 C 11,7 C 4,8 km/h
29.09.2020 11:10 11,6 C 85 % 1017,7 hPa 0,0 l/m 1,7 km/h W-SW 252 1 min 1,6 UV-I 483 W/m 9,2 C 11,6 C 3,2 km/h
29.09.2020 11:09 11,6 C 83 % 1017,7 hPa 0,0 l/m 3,0 km/h W-SW 252 1 min 1,6 UV-I 483 W/m 8,8 C 11,6 C 6,4 km/h
29.09.2020 11:08 11,5 C 85 % 1017,7 hPa 0,0 l/m 4,8 km/h W-SW 258 1 min 1,6 UV-I 482 W/m 9,1 C 11,5 C 6,4 km/h
29.09.2020 11:07 11,6 C 83 % 1017,6 hPa 0,0 l/m 3,4 km/h W-SW 258 1 min 1,6 UV-I 479 W/m 8,8 C 11,6 C 6,4 km/h
29.09.2020 11:06 11,6 C 84 % 1017,6 hPa 0,0 l/m 0,0 km/h W 259 1 min 1,6 UV-I 476 W/m 9,0 C 11,6 C 0,0 km/h
29.09.2020 11:05 11,6 C 84 % 1017,7 hPa 0,0 l/m 0,0 km/h SW 223 1 min 1,6 UV-I 475 W/m 9,0 C 11,6 C 0,0 km/h
29.09.2020 11:04 11,5 C 83 % 1017,6 hPa 0,0 l/m 0,0 km/h W-NW 285 1 min 1,6 UV-I 474 W/m 8,7 C 11,5 C 0,0 km/h
29.09.2020 11:03 11,4 C 83 % 1017,6 hPa 0,0 l/m 0,0 km/h NW 304 1 min 1,6 UV-I 471 W/m 8,6 C 11,4 C 0,0 km/h
29.09.2020 11:02 11,5 C 83 % 1017,7 hPa 0,0 l/m 0,0 km/h NW 311 1 min 1,5 UV-I 468 W/m 8,7 C 11,5 C 0,0 km/h
29.09.2020 11:01 11,6 C 83 % 1017,7 hPa 0,0 l/m 0,0 km/h NW 311 1 min 1,5 UV-I 468 W/m 8,8 C 11,6 C 0,0 km/h
29.09.2020 11:00 11,6 C 82 % 1017,7 hPa 0,0 l/m 0,0 km/h NW 311 1 min 1,5 UV-I 466 W/m 8,6 C 11,6 C 0,0 km/h
29.09.2020 10:59 11,6 C 84 % 1017,6 hPa 0,0 l/m 0,0 km/h NW 313 1 min 1,5 UV-I 465 W/m 9,0 C 11,6 C 0,0 km/h
29.09.2020 10:58 11,4 C 85 % 1017,6 hPa 0,0 l/m 0,0 km/h W 260 1 min 1,5 UV-I 464 W/m 9,0 C 11,4 C 0,0 km/h
29.09.2020 10:57 11,4 C 85 % 1017,6 hPa 0,0 l/m 0,0 km/h W 260 1 min 1,5 UV-I 466 W/m 9,0 C 11,4 C 0,0 km/h
29.09.2020 10:56 11,3 C 86 % 1017,6 hPa 0,0 l/m 0,0 km/h W 260 1 min 1,5 UV-I 457 W/m 9,0 C 11,3 C 0,0 km/h
29.09.2020 10:55 11,3 C 85 % 1017,6 hPa 0,0 l/m 0,0 km/h W 260 1 min 1,5 UV-I 457 W/m 8,9 C 11,3 C 0,0 km/h
29.09.2020 10:54 11,2 C 85 % 1017,6 hPa 0,0 l/m 0,0 km/h W-SW 248 1 min 1,4 UV-I 454 W/m 8,8 C 11,2 C 0,0 km/h
29.09.2020 10:53 11,2 C 84 % 1017,6 hPa 0,0 l/m 0,0 km/h W-SW 257 1 min 1,4 UV-I 436 W/m 8,6 C 11,2 C 0,0 km/h
29.09.2020 10:52 11,2 C 83 % 1017,6 hPa 0,0 l/m 0,0 km/h W-NW 287 1 min 1,4 UV-I 449 W/m 8,4 C 11,2 C 0,0 km/h
29.09.2020 10:51 11,2 C 83 % 1017,6 hPa 0,0 l/m 0,0 km/h W 274 1 min 1,4 UV-I 461 W/m 8,4 C 11,2 C 0,0 km/h
29.09.2020 10:50 11,3 C 87 % 1017,6 hPa 0,0 l/m 0,0 km/h W 273 1 min 1,4 UV-I 433 W/m 9,2 C 11,3 C 0,0 km/h
29.09.2020 10:49 11,2 C 85 % 1017,6 hPa 0,0 l/m 0,0 km/h W 273 1 min 1,4 UV-I 457 W/m 8,8 C 11,2 C 0,0 km/h
29.09.2020 10:48 11,2 C 84 % 1017,6 hPa 0,0 l/m 0,0 km/h NW 304 1 min 1,4 UV-I 448 W/m 8,6 C 11,2 C 0,0 km/h
29.09.2020 10:47 11,2 C 83 % 1017,6 hPa 0,0 l/m 0,0 km/h W-NW 303 1 min 1,4 UV-I 444 W/m 8,4 C 11,2 C 0,0 km/h
29.09.2020 10:46 11,2 C 83 % 1017,7 hPa 0,0 l/m 0,0 km/h W-NW 299 1 min 1,4 UV-I 445 W/m 8,4 C 11,2 C 0,0 km/h
29.09.2020 10:45 11,3 C 84 % 1017,6 hPa 0,0 l/m 0,0 km/h W-NW 299 1 min 1,3 UV-I 443 W/m 8,7 C 11,3 C 0,0 km/h
29.09.2020 10:44 11,2 C 84 % 1017,6 hPa 0,0 l/m 0,0 km/h W-NW 299 1 min 1,3 UV-I 440 W/m 8,6 C 11,2 C 0,0 km/h
29.09.2020 10:43 11,1 C 84 % 1017,6 hPa 0,0 l/m 0,0 km/h W-NW 298 1 min 1,3 UV-I 437 W/m 8,5 C 11,1 C 0,0 km/h
29.09.2020 10:42 11,0 C 86 % 1017,6 hPa 0,0 l/m 0,0 km/h W-NW 298 1 min 1,3 UV-I 435 W/m 8,7 C 11,0 C 0,0 km/h
29.09.2020 10:41 10,9 C 84 % 1017,6 hPa 0,0 l/m 0,0 km/h W-NW 298 1 min 1,3 UV-I 431 W/m 8,3 C 10,9 C 0,0 km/h
29.09.2020 10:40 10,9 C 86 % 1017,6 hPa 0,0 l/m 0,0 km/h W-NW 298 1 min 1,3 UV-I 431 W/m 8,7 C 10,9 C 0,0 km/h
29.09.2020 10:39 10,8 C 86 % 1017,6 hPa 0,0 l/m 0,0 km/h W-NW 298 1 min 1,3 UV-I 429 W/m 8,6 C 10,8 C 0,0 km/h
29.09.2020 10:38 10,6 C 86 % 1017,6 hPa 0,0 l/m 0,0 km/h W-NW 298 1 min 1,3 UV-I 429 W/m 8,4 C 10,6 C 0,0 km/h
29.09.2020 10:37 10,6 C 86 % 1017,6 hPa 0,0 l/m 0,0 km/h W-NW 298 1 min 1,3 UV-I 429 W/m 8,4 C 10,6 C 0,0 km/h
29.09.2020 10:36 10,6 C 85 % 1017,5 hPa 0,0 l/m 0,0 km/h W-NW 298 1 min 1,3 UV-I 429 W/m 8,2 C 10,6 C 0,0 km/h
29.09.2020 10:35 10,7 C 88 % 1017,6 hPa 0,0 l/m 0,0 km/h W-NW 298 1 min 1,2 UV-I 426 W/m 8,8 C 10,7 C 0,0 km/h
29.09.2020 10:34 10,6 C 86 % 1017,6 hPa 0,0 l/m 0,0 km/h W 263 1 min 1,2 UV-I 423 W/m 8,4 C 10,6 C 0,0 km/h
29.09.2020 10:33 10,5 C 85 % 1017,6 hPa 0,0 l/m 0,0 km/h W 263 1 min 1,2 UV-I 417 W/m 8,1 C 10,5 C 0,0 km/h
29.09.2020 10:32 10,6 C 85 % 1017,5 hPa 0,0 l/m 0,0 km/h W 263 1 min 1,2 UV-I 415 W/m 8,2 C 10,6 C 0,0 km/h
29.09.2020 10:31 10,6 C 87 % 1017,6 hPa 0,0 l/m 0,0 km/h W 265 1 min 1,2 UV-I 414 W/m 8,5 C 10,6 C 0,0 km/h
29.09.2020 10:30 10,6 C 85 % 1017,5 hPa 0,0 l/m 0,0 km/h SW 234 1 min 1,2 UV-I 413 W/m 8,2 C 10,6 C 0,0 km/h
29.09.2020 10:29 10,7 C 85 % 1017,5 hPa 0,0 l/m 0,0 km/h SW 234 1 min 1,2 UV-I 414 W/m 8,3 C 10,7 C 0,0 km/h
29.09.2020 10:28 10,7 C 85 % 1017,5 hPa 0,0 l/m 0,0 km/h SW 234 1 min 1,2 UV-I 412 W/m 8,3 C 10,7 C 0,0 km/h
29.09.2020 10:27 10,8 C 85 % 1017,5 hPa 0,0 l/m 0,0 km/h SO 130 1 min 1,2 UV-I 408 W/m 8,4 C 10,8 C 0,0 km/h
29.09.2020 10:26 10,7 C 86 % 1017,5 hPa 0,0 l/m 0,0 km/h SO 130 1 min 1,1 UV-I 404 W/m 8,5 C 10,7 C 0,0 km/h
29.09.2020 10:25 10,8 C 85 % 1017,5 hPa 0,0 l/m 0,0 km/h SO 130 1 min 1,1 UV-I 402 W/m 8,4 C 10,8 C 0,0 km/h
29.09.2020 10:24 10,9 C 88 % 1017,5 hPa 0,0 l/m 0,0 km/h O-SO 105 1 min 1,1 UV-I 398 W/m 9,0 C 10,9 C 0,0 km/h
29.09.2020 10:23 10,8 C 87 % 1017,5 hPa 0,0 l/m 0,0 km/h O-SO 105 1 min 1,1 UV-I 396 W/m 8,7 C 10,8 C 0,0 km/h
29.09.2020 10:22 10,7 C 88 % 1017,5 hPa 0,0 l/m 0,0 km/h O-SO 105 1 min 1,1 UV-I 396 W/m 8,8 C 10,7 C 0,0 km/h
29.09.2020 10:21 10,6 C 88 % 1017,5 hPa 0,0 l/m 0,0 km/h O-SO 105 1 min 1,1 UV-I 394 W/m 8,7 C 10,6 C 0,0 km/h
29.09.2020 10:20 10,4 C 88 % 1017,5 hPa 0,0 l/m 0,0 km/h O-SO 105 1 min 1,1 UV-I 389 W/m 8,5 C 10,4 C 0,0 km/h
29.09.2020 10:19 10,3 C 87 % 1017,5 hPa 0,0 l/m 0,0 km/h O-SO 105 1 min 1,0 UV-I 386 W/m 8,2 C 10,3 C 0,0 km/h
29.09.2020 10:18 10,2 C 89 % 1017,5 hPa 0,0 l/m 0,0 km/h O-SO 112 1 min 1,0 UV-I 384 W/m 8,5 C 10,2 C 0,0 km/h
29.09.2020 10:17 10,1 C 88 % 1017,5 hPa 0,0 l/m 0,0 km/h O-SO 112 1 min 1,0 UV-I 383 W/m 8,2 C 10,1 C 0,0 km/h
29.09.2020 10:16 9,9 C 87 % 1017,5 hPa 0,0 l/m 0,0 km/h O-SO 112 1 min 1,0 UV-I 380 W/m 7,8 C 9,9 C 0,0 km/h
29.09.2020 10:15 9,9 C 88 % 1017,5 hPa 0,0 l/m 0,0 km/h O-SO 112 1 min 1,0 UV-I 378 W/m 8,0 C 9,9 C 0,0 km/h
29.09.2020 10:14 9,8 C 88 % 1017,5 hPa 0,0 l/m 0,0 km/h O-SO 112 1 min 1,0 UV-I 376 W/m 7,9 C 9,8 C 0,0 km/h
29.09.2020 10:13 9,8 C 87 % 1017,4 hPa 0,0 l/m 0,0 km/h O-SO 112 1 min 1,0 UV-I 375 W/m 7,7 C 9,8 C 0,0 km/h
29.09.2020 10:12 9,7 C 88 % 1017,4 hPa 0,0 l/m 0,0 km/h O-SO 112 1 min 0,9 UV-I 374 W/m 7,8 C 9,7 C 0,0 km/h
29.09.2020 10:11 9,8 C 88 % 1017,4 hPa 0,0 l/m 0,0 km/h O-SO 112 1 min 0,9 UV-I 372 W/m 7,9 C 9,8 C 0,0 km/h
29.09.2020 10:10 9,7 C 88 % 1017,4 hPa 0,0 l/m 0,0 km/h O-NO 69 1 min 0,9 UV-I 368 W/m 7,8 C 9,7 C 0,0 km/h
29.09.2020 10:09 9,6 C 89 % 1017,4 hPa 0,0 l/m 0,0 km/h O-NO 69 1 min 0,9 UV-I 366 W/m 7,9 C 9,6 C 0,0 km/h
29.09.2020 10:08 9,5 C 89 % 1017,4 hPa 0,0 l/m 0,0 km/h O-NO 69 1 min 0,9 UV-I 365 W/m 7,8 C 9,5 C 0,0 km/h
29.09.2020 10:07 9,4 C 89 % 1017,4 hPa 0,0 l/m 0,0 km/h O-NO 69 1 min 0,9 UV-I 361 W/m 7,7 C 9,4 C 0,0 km/h
29.09.2020 10:06 9,4 C 90 % 1017,4 hPa 0,0 l/m 0,0 km/h O-NO 69 1 min 0,8 UV-I 356 W/m 7,8 C 9,4 C 0,0 km/h
29.09.2020 10:05 9,3 C 90 % 1017,4 hPa 0,0 l/m 0,0 km/h O-NO 69 1 min 0,8 UV-I 352 W/m 7,7 C 9,3 C 0,0 km/h
29.09.2020 10:04 9,2 C 89 % 1017,4 hPa 0,0 l/m 0,0 km/h O-NO 69 1 min 0,8 UV-I 352 W/m 7,5 C 9,2 C 0,0 km/h
29.09.2020 10:03 9,1 C 89 % 1017,4 hPa 0,0 l/m 0,0 km/h O-NO 69 1 min 0,8 UV-I 352 W/m 7,4 C 9,1 C 0,0 km/h
29.09.2020 10:02 9,1 C 90 % 1017,4 hPa 0,0 l/m 0,0 km/h O-NO 69 1 min 0,8 UV-I 350 W/m 7,5 C 9,1 C 0,0 km/h
29.09.2020 10:01 8,9 C 90 % 1017,4 hPa 0,0 l/m 0,0 km/h O-NO 69 1 min 0,8 UV-I 347 W/m 7,4 C 8,9 C 0,0 km/h
29.09.2020 10:00 8,9 C 89 % 1017,4 hPa 0,0 l/m 0,0 km/h O-NO 69 1 min 0,8 UV-I 346 W/m 7,2 C 8,9 C 0,0 km/h
29.09.2020 09:59 8,9 C 90 % 1017,3 hPa 0,0 l/m 0,0 km/h O-NO 69 1 min 0,8 UV-I 343 W/m 7,4 C 8,9 C 0,0 km/h
29.09.2020 09:58 8,9 C 89 % 1017,4 hPa 0,0 l/m 0,0 km/h O-NO 69 1 min 0,8 UV-I 341 W/m 7,2 C 8,9 C 0,0 km/h
29.09.2020 09:57 8,8 C 89 % 1017,4 hPa 0,0 l/m 0,0 km/h O-NO 69 1 min 0,7 UV-I 338 W/m 7,1 C 8,8 C 0,0 km/h
29.09.2020 09:56 8,8 C 89 % 1017,3 hPa 0,0 l/m 0,0 km/h O-NO 62 1 min 0,7 UV-I 335 W/m 7,1 C 8,8 C 0,0 km/h
29.09.2020 09:55 8,9 C 91 % 1017,3 hPa 0,0 l/m 0,0 km/h NO 36 1 min 0,7 UV-I 328 W/m 7,5 C 8,9 C 0,0 km/h
29.09.2020 09:54 8,7 C 91 % 1017,4 hPa 0,0 l/m 0,0 km/h NO 35 1 min 0,7 UV-I 322 W/m 7,3 C 8,7 C 0,0 km/h
29.09.2020 09:53 8,7 C 90 % 1017,4 hPa 0,0 l/m 0,0 km/h NO 35 1 min 0,7 UV-I 319 W/m 7,2 C 8,7 C 0,0 km/h
29.09.2020 09:52 8,6 C 89 % 1017,4 hPa 0,0 l/m 0,0 km/h NO 35 1 min 0,7 UV-I 315 W/m 6,9 C 8,6 C 0,0 km/h
29.09.2020 09:51 8,6 C 90 % 1017,3 hPa 0,0 l/m 0,0 km/h NO 35 1 min 0,7 UV-I 313 W/m 7,1 C 8,6 C 0,0 km/h
29.09.2020 09:50 8,6 C 91 % 1017,3 hPa 0,0 l/m 0,0 km/h NO 35 1 min 0,7 UV-I 312 W/m 7,2 C 8,6 C 0,0 km/h
29.09.2020 09:49 8,4 C 90 % 1017,3 hPa 0,0 l/m 0,0 km/h NO 35 1 min 0,7 UV-I 310 W/m 6,9 C 8,4 C 0,0 km/h
29.09.2020 09:48 8,4 C 91 % 1017,3 hPa 0,0 l/m 0,0 km/h NO 35 1 min 0,7 UV-I 308 W/m 7,0 C 8,4 C 0,0 km/h
29.09.2020 09:47 8,3 C 91 % 1017,3 hPa 0,0 l/m 0,0 km/h N 5 1 min 0,6 UV-I 305 W/m 6,9 C 8,3 C 0,0 km/h
29.09.2020 09:46 8,3 C 92 % 1017,3 hPa 0,0 l/m 0,0 km/h N 5 1 min 0,6 UV-I 302 W/m 7,1 C 8,3 C 0,0 km/h
29.09.2020 09:45 8,2 C 91 % 1017,2 hPa 0,0 l/m 0,0 km/h N 360 1 min 0,6 UV-I 301 W/m 6,8 C 8,2 C 0,0 km/h
29.09.2020 09:44 8,1 C 91 % 1017,3 hPa 0,0 l/m 0,0 km/h N 360 1 min 0,6 UV-I 296 W/m 6,7 C 8,1 C 0,0 km/h
29.09.2020 09:43 8,1 C 92 % 1017,3 hPa 0,0 l/m 0,0 km/h N 360 1 min 0,6 UV-I 294 W/m 6,9 C 8,1 C 0,0 km/h
29.09.2020 09:42 8,0 C 92 % 1017,3 hPa 0,0 l/m 0,0 km/h N 360 1 min 0,6 UV-I 291 W/m 6,8 C 8,0 C 0,0 km/h
29.09.2020 09:41 7,9 C 92 % 1017,3 hPa 0,0 l/m 0,0 km/h N 360 1 min 0,6 UV-I 288 W/m 6,7 C 7,9 C 0,0 km/h
29.09.2020 09:40 7,8 C 92 % 1017,3 hPa 0,0 l/m 0,0 km/h N 360 1 min 0,6 UV-I 285 W/m 6,6 C 7,8 C 0,0 km/h
29.09.2020 09:39 7,8 C 92 % 1017,3 hPa 0,0 l/m 0,0 km/h N 360 1 min 0,6 UV-I 285 W/m 6,6 C 7,8 C 0,0 km/h
29.09.2020 09:38 7,7 C 92 % 1017,2 hPa 0,0 l/m 0,0 km/h N 360 1 min 0,6 UV-I 283 W/m 6,5 C 7,7 C 0,0 km/h
29.09.2020 09:37 7,7 C 92 % 1017,2 hPa 0,0 l/m 0,0 km/h N 360 1 min 0,5 UV-I 279 W/m 6,5 C 7,7 C 0,0 km/h
29.09.2020 09:36 7,6 C 92 % 1017,2 hPa 0,0 l/m 0,0 km/h N 360 1 min 0,5 UV-I 277 W/m 6,4 C 7,6 C 0,0 km/h
29.09.2020 09:35 7,5 C 92 % 1017,2 hPa 0,0 l/m 0,0 km/h N 360 1 min 0,5 UV-I 274 W/m 6,3 C 7,5 C 0,0 km/h
29.09.2020 09:34 7,5 C 92 % 1017,2 hPa 0,0 l/m 0,0 km/h N 360 1 min 0,5 UV-I 274 W/m 6,3 C 7,5 C 0,0 km/h
29.09.2020 09:33 7,4 C 92 % 1017,2 hPa 0,0 l/m 0,0 km/h N 360 1 min 0,5 UV-I 272 W/m 6,2 C 7,4 C 0,0 km/h
29.09.2020 09:32 7,4 C 92 % 1017,2 hPa 0,0 l/m 0,0 km/h N 360 1 min 0,5 UV-I 270 W/m 6,2 C 7,4 C 0,0 km/h
29.09.2020 09:31 7,4 C 94 % 1017,3 hPa 0,0 l/m 0,0 km/h O-SO 115 1 min 0,5 UV-I 268 W/m 6,5 C 7,4 C 0,0 km/h
29.09.2020 09:30 7,4 C 94 % 1017,2 hPa 0,0 l/m 0,0 km/h O-SO 115 1 min 0,5 UV-I 267 W/m 6,5 C 7,4 C 0,0 km/h
29.09.2020 09:29 7,3 C 95 % 1017,1 hPa 0,0 l/m 0,0 km/h O-SO 115 1 min 0,5 UV-I 265 W/m 6,6 C 7,3 C 0,0 km/h
29.09.2020 09:28 7,2 C 94 % 1017,2 hPa 0,0 l/m 0,0 km/h O-SO 115 1 min 0,5 UV-I 264 W/m 6,3 C 7,2 C 0,0 km/h
29.09.2020 09:27 7,1 C 94 % 1017,2 hPa 0,0 l/m 0,0 km/h O-SO 115 1 min 0,5 UV-I 261 W/m 6,2 C 7,1 C 0,0 km/h
29.09.2020 09:26 7,1 C 94 % 1017,2 hPa 0,0 l/m 0,0 km/h O-SO 115 1 min 0,5 UV-I 259 W/m 6,2 C 7,1 C 0,0 km/h
29.09.2020 09:25 7,0 C 95 % 1017,2 hPa 0,0 l/m 0,0 km/h O-SO 115 1 min 0,5 UV-I 256 W/m 6,3 C 7,0 C 0,0 km/h
29.09.2020 09:24 6,9 C 95 % 1017,1 hPa 0,0 l/m 0,0 km/h O-SO 115 1 min 0,1 UV-I 252 W/m 6,2 C 6,9 C 0,0 km/h
29.09.2020 09:23 6,8 C 95 % 1017,1 hPa 0,0 l/m 0,0 km/h O-SO 115 1 min 0,0 UV-I 248 W/m 6,1 C 6,8 C 0,0 km/h
29.09.2020 09:22 6,7 C 95 % 1017,1 hPa 0,0 l/m 0,0 km/h O-SO 115 1 min 0,0 UV-I 246 W/m 6,0 C 6,7 C 0,0 km/h
29.09.2020 09:21 6,7 C 95 % 1017,1 hPa 0,0 l/m 0,0 km/h O-SO 115 1 min 0,0 UV-I 245 W/m 6,0 C 6,7 C 0,0 km/h
29.09.2020 09:20 6,6 C 95 % 1017,1 hPa 0,0 l/m 0,0 km/h O-SO 115 1 min 0,0 UV-I 244 W/m 5,9 C 6,6 C 0,0 km/h
29.09.2020 09:19 6,6 C 95 % 1017,1 hPa 0,0 l/m 0,0 km/h O-SO 115 1 min 0,0 UV-I 241 W/m 5,9 C 6,6 C 0,0 km/h
29.09.2020 09:18 6,6 C 95 % 1017,1 hPa 0,0 l/m 0,0 km/h O-SO 115 1 min 0,0 UV-I 238 W/m 5,9 C 6,6 C 0,0 km/h
29.09.2020 09:17 6,5 C 96 % 1017,1 hPa 0,0 l/m 0,0 km/h O-SO 115 1 min 0,0 UV-I 236 W/m 5,9 C 6,5 C 0,0 km/h
29.09.2020 09:16 6,4 C 96 % 1017,1 hPa 0,0 l/m 0,0 km/h O-SO 115 1 min 0,0 UV-I 234 W/m 5,8 C 6,4 C 0,0 km/h
29.09.2020 09:15 6,3 C 96 % 1017,0 hPa 0,0 l/m 0,0 km/h O-SO 115 1 min 0,0 UV-I 231 W/m 5,7 C 6,3 C 0,0 km/h
29.09.2020 09:14 6,3 C 97 % 1017,0 hPa 0,0 l/m 0,0 km/h O-SO 115 1 min 0,0 UV-I 230 W/m 5,9 C 6,3 C 0,0 km/h
29.09.2020 09:13 6,3 C 97 % 1017,1 hPa 0,0 l/m 0,0 km/h O-SO 115 1 min 0,0 UV-I 229 W/m 5,9 C 6,3 C 0,0 km/h
29.09.2020 09:12 6,3 C 97 % 1017,0 hPa 0,0 l/m 0,0 km/h O-SO 115 1 min 0,0 UV-I 228 W/m 5,9 C 6,3 C 0,0 km/h
29.09.2020 09:11 6,3 C 97 % 1017,0 hPa 0,0 l/m 0,0 km/h O-SO 115 1 min 0,0 UV-I 227 W/m 5,9 C 6,3 C 0,0 km/h
29.09.2020 09:10 6,2 C 97 % 1017,0 hPa 0,0 l/m 0,0 km/h O-SO 115 1 min 0,0 UV-I 224 W/m 5,8 C 6,2 C 0,0 km/h
29.09.2020 09:09 6,2 C 98 % 1017,0 hPa 0,0 l/m 0,0 km/h O-SO 115 1 min 0,0 UV-I 220 W/m 5,9 C 6,2 C 0,0 km/h
29.09.2020 09:08 6,1 C 98 % 1017,0 hPa 0,0 l/m 0,0 km/h O-SO 115 1 min 0,0 UV-I 217 W/m 5,8 C 6,1 C 0,0 km/h
29.09.2020 09:07 6,1 C 98 % 1017,0 hPa 0,0 l/m 0,0 km/h O-SO 115 1 min 0,0 UV-I 214 W/m 5,8 C 6,1 C 0,0 km/h
29.09.2020 09:06 6,0 C 98 % 1017,0 hPa 0,0 l/m 0,0 km/h O-SO 115 1 min 0,0 UV-I 210 W/m 5,7 C 6,0 C 0,0 km/h
29.09.2020 09:05 5,9 C 98 % 1017,0 hPa 0,0 l/m 0,0 km/h O-SO 115 1 min 0,0 UV-I 209 W/m 5,6 C 5,9 C 0,0 km/h
29.09.2020 09:04 5,8 C 98 % 1017,0 hPa 0,0 l/m 0,0 km/h O-SO 115 1 min 0,0 UV-I 209 W/m 5,5 C 5,8 C 0,0 km/h
29.09.2020 09:03 5,8 C 98 % 1017,0 hPa 0,0 l/m 0,0 km/h O-SO 115 1 min 0,0 UV-I 208 W/m 5,5 C 5,8 C 0,0 km/h
29.09.2020 09:02 5,8 C 98 % 1017,0 hPa 0,0 l/m 0,0 km/h O-SO 115 1 min 0,0 UV-I 206 W/m 5,5 C 5,8 C 0,0 km/h
29.09.2020 09:01 5,8 C 98 % 1017,0 hPa 0,0 l/m 0,0 km/h O-SO 115 1 min 0,0 UV-I 204 W/m 5,5 C 5,8 C 0,0 km/h
29.09.2020 09:00 5,7 C 98 % 1017,0 hPa 0,0 l/m 0,0 km/h O-SO 115 1 min 0,0 UV-I 201 W/m 5,4 C 5,7 C 0,0 km/h
29.09.2020 08:59 5,6 C 98 % 1016,9 hPa 0,0 l/m 0,0 km/h O-SO 115 1 min 0,0 UV-I 199 W/m 5,3 C 5,6 C 0,0 km/h
29.09.2020 08:58 5,4 C 98 % 1016,9 hPa 0,0 l/m 0,0 km/h O-SO 115 1 min 0,0 UV-I 196 W/m 5,1 C 5,4 C 0,0 km/h
29.09.2020 08:57 5,3 C 98 % 1016,9 hPa 0,0 l/m 0,0 km/h O-SO 115 1 min 0,0 UV-I 194 W/m 5,0 C 5,3 C 0,0 km/h
29.09.2020 08:56 5,2 C 98 % 1016,9 hPa 0,0 l/m 0,0 km/h O-SO 115 1 min 0,0 UV-I 191 W/m 4,9 C 5,2 C 0,0 km/h
29.09.2020 08:55 5,2 C 98 % 1016,9 hPa 0,0 l/m 0,0 km/h O-SO 115 1 min 0,0 UV-I 189 W/m 4,9 C 5,2 C 0,0 km/h
29.09.2020 08:54 5,1 C 98 % 1016,9 hPa 0,0 l/m 0,0 km/h O-SO 115 1 min 0,0 UV-I 186 W/m 4,8 C 5,1 C 0,0 km/h
29.09.2020 08:53 5,1 C 98 % 1016,9 hPa 0,0 l/m 0,0 km/h O-SO 115 1 min 0,0 UV-I 185 W/m 4,8 C 5,1 C 0,0 km/h
29.09.2020 08:52 5,0 C 98 % 1016,9 hPa 0,0 l/m 0,0 km/h O-SO 115 1 min 0,0 UV-I 181 W/m 4,7 C 5,0 C 0,0 km/h
29.09.2020 08:51 4,9 C 98 % 1016,8 hPa 0,0 l/m 0,0 km/h O-SO 115 1 min 0,0 UV-I 177 W/m 4,6 C 4,9 C 0,0 km/h
29.09.2020 08:50 4,8 C 98 % 1016,8 hPa 0,0 l/m 0,0 km/h O-SO 115 1 min 0,0 UV-I 174 W/m 4,5 C 4,8 C 0,0 km/h
29.09.2020 08:49 4,8 C 98 % 1016,8 hPa 0,0 l/m 0,0 km/h O-SO 115 1 min 0,0 UV-I 169 W/m 4,5 C 4,8 C 0,0 km/h
29.09.2020 08:48 4,7 C 98 % 1016,8 hPa 0,0 l/m 0,0 km/h O-SO 115 0 min 0,0 UV-I 127 W/m 4,4 C 4,7 C 0,0 km/h
29.09.2020 08:47 4,7 C 97 % 1016,8 hPa 0,0 l/m 0,0 km/h O-SO 115 0 min 0,0 UV-I 57 W/m 4,3 C 4,7 C 0,0 km/h
29.09.2020 08:46 4,6 C 97 % 1016,8 hPa 0,0 l/m 0,0 km/h O-SO 115 0 min 0,0 UV-I 47 W/m 4,2 C 4,6 C 0,0 km/h
29.09.2020 08:45 4,6 C 97 % 1016,8 hPa 0,0 l/m 0,0 km/h O-SO 115 0 min 0,0 UV-I 47 W/m 4,2 C 4,6 C 0,0 km/h
29.09.2020 08:44 4,5 C 98 % 1016,8 hPa 0,0 l/m 0,0 km/h O-SO 115 0 min 0,0 UV-I 47 W/m 4,2 C 4,5 C 0,0 km/h
29.09.2020 08:43 4,4 C 98 % 1016,8 hPa 0,0 l/m 0,0 km/h O-SO 115 0 min 0,0 UV-I 46 W/m 4,1 C 4,4 C 0,0 km/h
29.09.2020 08:42 4,4 C 98 % 1016,8 hPa 0,0 l/m 0,0 km/h O-SO 115 0 min 0,0 UV-I 46 W/m 4,1 C 4,4 C 0,0 km/h
29.09.2020 08:41 4,3 C 98 % 1016,8 hPa 0,0 l/m 0,0 km/h O-SO 115 0 min 0,0 UV-I 46 W/m 4,0 C 4,3 C 0,0 km/h
29.09.2020 08:40 4,3 C 97 % 1016,8 hPa 0,0 l/m 0,0 km/h O-SO 115 0 min 0,0 UV-I 46 W/m 3,9 C 4,3 C 0,0 km/h
29.09.2020 08:39 4,2 C 97 % 1016,8 hPa 0,0 l/m 0,0 km/h O-SO 115 0 min 0,0 UV-I 46 W/m 3,8 C 4,2 C 0,0 km/h
29.09.2020 08:38 4,2 C 97 % 1016,8 hPa 0,0 l/m 0,0 km/h O-SO 115 0 min 0,0 UV-I 45 W/m 3,8 C 4,2 C 0,0 km/h
29.09.2020 08:37 4,2 C 98 % 1016,8 hPa 0,0 l/m 0,0 km/h O-SO 115 0 min 0,0 UV-I 44 W/m 3,9 C 4,2 C 0,0 km/h
29.09.2020 08:36 4,1 C 98 % 1016,8 hPa 0,0 l/m 0,0 km/h O-SO 115 0 min 0,0 UV-I 44 W/m 3,8 C 4,1 C 0,0 km/h
29.09.2020 08:35 4,1 C 98 % 1016,8 hPa 0,0 l/m 0,0 km/h O-SO 115 0 min 0,0 UV-I 42 W/m 3,8 C 4,1 C 0,0 km/h
29.09.2020 08:34 4,1 C 98 % 1016,8 hPa 0,0 l/m 0,0 km/h O-SO 115 0 min 0,0 UV-I 42 W/m 3,8 C 4,1 C 0,0 km/h
29.09.2020 08:33 4,0 C 98 % 1016,8 hPa 0,0 l/m 0,0 km/h O-SO 115 0 min 0,0 UV-I 41 W/m 3,7 C 4,0 C 0,0 km/h
29.09.2020 08:32 4,0 C 97 % 1016,7 hPa 0,0 l/m 0,0 km/h O-SO 115 0 min 0,0 UV-I 40 W/m 3,6 C 4,0 C 0,0 km/h
29.09.2020 08:31 3,9 C 97 % 1016,7 hPa 0,0 l/m 0,0 km/h O-SO 115 0 min 0,0 UV-I 39 W/m 3,5 C 3,9 C 0,0 km/h
29.09.2020 08:30 3,9 C 97 % 1016,7 hPa 0,0 l/m 0,0 km/h O-SO 115 0 min 0,0 UV-I 39 W/m 3,5 C 3,9 C 0,0 km/h
29.09.2020 08:29 3,8 C 97 % 1016,7 hPa 0,0 l/m 0,0 km/h O-SO 115 0 min 0,0 UV-I 39 W/m 3,4 C 3,8 C 0,0 km/h
29.09.2020 08:28 3,7 C 97 % 1016,7 hPa 0,0 l/m 0,0 km/h O-SO 115 0 min 0,0 UV-I 37 W/m 3,3 C 3,7 C 0,0 km/h
29.09.2020 08:27 3,6 C 97 % 1016,7 hPa 0,0 l/m 0,0 km/h O-SO 115 0 min 0,0 UV-I 37 W/m 3,2 C 3,6 C 0,0 km/h
29.09.2020 08:26 3,4 C 97 % 1016,7 hPa 0,0 l/m 0,0 km/h O-SO 115 0 min 0,0 UV-I 36 W/m 3,0 C 3,4 C 0,0 km/h
29.09.2020 08:25 3,3 C 97 % 1016,7 hPa 0,0 l/m 0,0 km/h O-SO 115 0 min 0,0 UV-I 35 W/m 2,9 C 3,3 C 0,0 km/h
29.09.2020 08:24 3,3 C 97 % 1016,7 hPa 0,0 l/m 0,0 km/h O-SO 115 0 min 0,0 UV-I 35 W/m 2,9 C 3,3 C 0,0 km/h
29.09.2020 08:23 3,2 C 97 % 1016,7 hPa 0,0 l/m 0,0 km/h O-SO 115 0 min 0,0 UV-I 35 W/m 2,8 C 3,2 C 0,0 km/h
29.09.2020 08:22 3,1 C 97 % 1016,7 hPa 0,0 l/m 0,0 km/h O-SO 115 0 min 0,0 UV-I 34 W/m 2,7 C 3,1 C 0,0 km/h
29.09.2020 08:21 3,1 C 97 % 1016,7 hPa 0,0 l/m 0,0 km/h O-SO 115 0 min 0,0 UV-I 33 W/m 2,7 C 3,1 C 0,0 km/h
29.09.2020 08:20 3,0 C 97 % 1016,7 hPa 0,0 l/m 0,0 km/h O-SO 115 0 min 0,0 UV-I 33 W/m 2,6 C 3,0 C 0,0 km/h
29.09.2020 08:19 2,9 C 97 % 1016,7 hPa 0,0 l/m 0,0 km/h O-SO 115 0 min 0,0 UV-I 33 W/m 2,5 C 2,9 C 0,0 km/h
29.09.2020 08:18 2,9 C 97 % 1016,6 hPa 0,0 l/m 0,0 km/h O-SO 115 0 min 0,0 UV-I 33 W/m 2,5 C 2,9 C 0,0 km/h
29.09.2020 08:17 2,8 C 97 % 1016,7 hPa 0,0 l/m 0,0 km/h O-SO 115 0 min 0,0 UV-I 33 W/m 2,4 C 2,8 C 0,0 km/h
29.09.2020 08:16 2,8 C 97 % 1016,7 hPa 0,0 l/m 0,0 km/h O-SO 115 0 min 0,0 UV-I 33 W/m 2,4 C 2,8 C 0,0 km/h
29.09.2020 08:15 2,8 C 97 % 1016,7 hPa 0,0 l/m 0,0 km/h O-SO 115 0 min 0,0 UV-I 33 W/m 2,4 C 2,8 C 0,0 km/h
29.09.2020 08:14 2,8 C 97 % 1016,7 hPa 0,0 l/m 0,0 km/h O-SO 115 0 min 0,0 UV-I 32 W/m 2,4 C 2,8 C 0,0 km/h
29.09.2020 08:13 2,8 C 97 % 1016,7 hPa 0,0 l/m 0,0 km/h O-SO 115 0 min 0,0 UV-I 32 W/m 2,4 C 2,8 C 0,0 km/h
29.09.2020 08:12 2,7 C 97 % 1016,7 hPa 0,0 l/m 0,0 km/h O-SO 115 0 min 0,0 UV-I 32 W/m 2,3 C 2,7 C 0,0 km/h
29.09.2020 08:11 2,7 C 97 % 1016,6 hPa 0,0 l/m 0,0 km/h O-SO 115 0 min 0,0 UV-I 32 W/m 2,3 C 2,7 C 0,0 km/h
29.09.2020 08:10 2,7 C 97 % 1016,6 hPa 0,0 l/m 0,0 km/h O-SO 115 0 min 0,0 UV-I 32 W/m 2,3 C 2,7 C 0,0 km/h
29.09.2020 08:09 2,6 C 97 % 1016,7 hPa 0,0 l/m 0,0 km/h O-SO 115 0 min 0,0 UV-I 31 W/m 2,2 C 2,6 C 0,0 km/h
29.09.2020 08:08 2,5 C 97 % 1016,7 hPa 0,0 l/m 0,0 km/h O-SO 115 0 min 0,0 UV-I 30 W/m 2,1 C 2,5 C 0,0 km/h
29.09.2020 08:07 2,4 C 97 % 1016,7 hPa 0,0 l/m 0,0 km/h O-SO 115 0 min 0,0 UV-I 30 W/m 2,0 C 2,4 C 0,0 km/h
29.09.2020 08:06 2,4 C 97 % 1016,6 hPa 0,0 l/m 0,0 km/h O-SO 115 0 min 0,0 UV-I 30 W/m 2,0 C 2,4 C 0,0 km/h
29.09.2020 08:05 2,4 C 97 % 1016,6 hPa 0,0 l/m 0,0 km/h O-SO 115 0 min 0,0 UV-I 29 W/m 2,0 C 2,4 C 0,0 km/h
29.09.2020 08:04 2,4 C 97 % 1016,6 hPa 0,0 l/m 0,0 km/h O-SO 115 0 min 0,0 UV-I 28 W/m 2,0 C 2,4 C 0,0 km/h
29.09.2020 08:03 2,4 C 97 % 1016,6 hPa 0,0 l/m 0,0 km/h O-SO 115 0 min 0,0 UV-I 28 W/m 2,0 C 2,4 C 0,0 km/h
29.09.2020 08:02 2,3 C 97 % 1016,6 hPa 0,0 l/m 0,0 km/h O-SO 115 0 min 0,0 UV-I 28 W/m 1,9 C 2,3 C 0,0 km/h
29.09.2020 08:01 2,4 C 97 % 1016,6 hPa 0,0 l/m 0,0 km/h O-SO 115 0 min 0,0 UV-I 28 W/m 2,0 C 2,4 C 0,0 km/h
29.09.2020 08:00 2,3 C 97 % 1016,6 hPa 0,0 l/m 0,0 km/h O-SO 115 0 min 0,0 UV-I 26 W/m 1,9 C 2,3 C 0,0 km/h
29.09.2020 07:59 2,3 C 97 % 1016,5 hPa 0,0 l/m 0,0 km/h O-SO 115 0 min 0,0 UV-I 26 W/m 1,9 C 2,3 C 0,0 km/h
29.09.2020 07:58 2,3 C 97 % 1016,6 hPa 0,0 l/m 0,0 km/h O-SO 115 0 min 0,0 UV-I 26 W/m 1,9 C 2,3 C 0,0 km/h
29.09.2020 07:57 2,3 C 97 % 1016,6 hPa 0,0 l/m 0,0 km/h O-SO 115 0 min 0,0 UV-I 26 W/m 1,9 C 2,3 C 0,0 km/h
29.09.2020 07:56 2,3 C 97 % 1016,6 hPa 0,0 l/m 0,0 km/h O-SO 115 0 min 0,0 UV-I 25 W/m 1,9 C 2,3 C 0,0 km/h
29.09.2020 07:55 2,3 C 97 % 1016,5 hPa 0,0 l/m 0,0 km/h O-SO 115 0 min 0,0 UV-I 25 W/m 1,9 C 2,3 C 0,0 km/h
29.09.2020 07:54 2,3 C 97 % 1016,5 hPa 0,0 l/m 0,0 km/h O-SO 115 0 min 0,0 UV-I 25 W/m 1,9 C 2,3 C 0,0 km/h
29.09.2020 07:53 2,3 C 97 % 1016,5 hPa 0,0 l/m 0,0 km/h O-SO 115 0 min 0,0 UV-I 24 W/m 1,9 C 2,3 C 0,0 km/h
29.09.2020 07:52 2,3 C 97 % 1016,6 hPa 0,0 l/m 0,0 km/h O-SO 115 0 min 0,0 UV-I 23 W/m 1,9 C 2,3 C 0,0 km/h
29.09.2020 07:51 2,3 C 97 % 1016,6 hPa 0,0 l/m 0,0 km/h O-SO 115 0 min 0,0 UV-I 23 W/m 1,9 C 2,3 C 0,0 km/h
29.09.2020 07:50 2,3 C 97 % 1016,6 hPa 0,0 l/m 0,0 km/h O-SO 115 0 min 0,0 UV-I 22 W/m 1,9 C 2,3 C 0,0 km/h
29.09.2020 07:49 2,3 C 97 % 1016,5 hPa 0,0 l/m 0,0 km/h O-SO 115 0 min 0,0 UV-I 21 W/m 1,9 C 2,3 C 0,0 km/h
29.09.2020 07:48 2,3 C 97 % 1016,6 hPa 0,0 l/m 0,0 km/h O-SO 115 0 min 0,0 UV-I 21 W/m 1,9 C 2,3 C 0,0 km/h
29.09.2020 07:47 2,3 C 97 % 1016,5 hPa 0,0 l/m 0,0 km/h O-SO 115 0 min 0,0 UV-I 21 W/m 1,9 C 2,3 C 0,0 km/h
29.09.2020 07:46 2,3 C 97 % 1016,5 hPa 0,0 l/m 0,0 km/h O-SO 115 0 min 0,0 UV-I 20 W/m 1,9 C 2,3 C 0,0 km/h
29.09.2020 07:45 2,3 C 97 % 1016,6 hPa 0,0 l/m 0,0 km/h O-SO 115 0 min 0,0 UV-I 19 W/m 1,9 C 2,3 C 0,0 km/h
29.09.2020 07:44 2,2 C 97 % 1016,6 hPa 0,0 l/m 0,0 km/h O-SO 115 0 min 0,0 UV-I 19 W/m 1,8 C 2,2 C 0,0 km/h
29.09.2020 07:43 2,2 C 97 % 1016,6 hPa 0,0 l/m 0,0 km/h O-SO 115 0 min 0,0 UV-I 19 W/m 1,8 C 2,2 C 0,0 km/h
29.09.2020 07:42 2,2 C 97 % 1016,5 hPa 0,0 l/m 0,0 km/h O-SO 115 0 min 0,0 UV-I 18 W/m 1,8 C 2,2 C 0,0 km/h
29.09.2020 07:41 2,2 C 97 % 1016,5 hPa 0,0 l/m 0,0 km/h O-SO 115 0 min 0,0 UV-I 18 W/m 1,8 C 2,2 C 0,0 km/h
29.09.2020 07:40 2,2 C 97 % 1016,5 hPa 0,0 l/m 0,0 km/h O-SO 115 0 min 0,0 UV-I 18 W/m 1,8 C 2,2 C 0,0 km/h
29.09.2020 07:39 2,2 C 97 % 1016,5 hPa 0,0 l/m 0,0 km/h O-SO 115 0 min 0,0 UV-I 17 W/m 1,8 C 2,2 C 0,0 km/h
29.09.2020 07:38 2,1 C 96 % 1016,5 hPa 0,0 l/m 0,0 km/h O-SO 115 0 min 0,0 UV-I 16 W/m 1,5 C 2,1 C 0,0 km/h
29.09.2020 07:37 2,1 C 96 % 1016,5 hPa 0,0 l/m 0,0 km/h O-SO 115 0 min 0,0 UV-I 16 W/m 1,5 C 2,1 C 0,0 km/h
29.09.2020 07:36 2,1 C 96 % 1016,5 hPa 0,0 l/m 0,0 km/h O-SO 115 0 min 0,0 UV-I 16 W/m 1,5 C 2,1 C 0,0 km/h
29.09.2020 07:35 2,1 C 96 % 1016,5 hPa 0,0 l/m 0,0 km/h O-SO 115 0 min 0,0 UV-I 14 W/m 1,5 C 2,1 C 0,0 km/h
29.09.2020 07:34 2,1 C 96 % 1016,5 hPa 0,0 l/m 0,0 km/h O-SO 115 0 min 0,0 UV-I 14 W/m 1,5 C 2,1 C 0,0 km/h
29.09.2020 07:33 2,1 C 96 % 1016,5 hPa 0,0 l/m 0,0 km/h O-SO 115 0 min 0,0 UV-I 13 W/m 1,5 C 2,1 C 0,0 km/h
29.09.2020 07:32 2,1 C 96 % 1016,4 hPa 0,0 l/m 0,0 km/h O-SO 115 0 min 0,0 UV-I 12 W/m 1,5 C 2,1 C 0,0 km/h
29.09.2020 07:31 2,1 C 96 % 1016,4 hPa 0,0 l/m 0,0 km/h O-SO 115 0 min 0,0 UV-I 12 W/m 1,5 C 2,1 C 0,0 km/h
29.09.2020 07:30 2,1 C 96 % 1016,4 hPa 0,0 l/m 0,0 km/h O-SO 115 0 min 0,0 UV-I 12 W/m 1,5 C 2,1 C 0,0 km/h
29.09.2020 07:29 2,1 C 96 % 1016,5 hPa 0,0 l/m 0,0 km/h O-SO 115 0 min 0,0 UV-I 12 W/m 1,5 C 2,1 C 0,0 km/h
29.09.2020 07:28 2,1 C 96 % 1016,5 hPa 0,0 l/m 0,0 km/h O-SO 115 0 min 0,0 UV-I 11 W/m 1,5 C 2,1 C 0,0 km/h
29.09.2020 07:27 2,1 C 96 % 1016,4 hPa 0,0 l/m 0,0 km/h O-SO 115 0 min 0,0 UV-I 11 W/m 1,5 C 2,1 C 0,0 km/h
29.09.2020 07:26 2,1 C 96 % 1016,4 hPa 0,0 l/m 0,0 km/h O-SO 115 0 min 0,0 UV-I 11 W/m 1,5 C 2,1 C 0,0 km/h
29.09.2020 07:25 2,1 C 96 % 1016,4 hPa 0,0 l/m 0,0 km/h O-SO 115 0 min 0,0 UV-I 9 W/m 1,5 C 2,1 C 0,0 km/h
29.09.2020 07:24 2,1 C 96 % 1016,4 hPa 0,0 l/m 0,0 km/h O-SO 115 0 min 0,0 UV-I 8 W/m 1,5 C 2,1 C 0,0 km/h
29.09.2020 07:23 2,1 C 96 % 1016,4 hPa 0,0 l/m 0,0 km/h O-SO 115 0 min 0,0 UV-I 7 W/m 1,5 C 2,1 C 0,0 km/h
29.09.2020 07:22 2,1 C 96 % 1016,4 hPa 0,0 l/m 0,0 km/h O-SO 115 0 min 0,0 UV-I 7 W/m 1,5 C 2,1 C 0,0 km/h
29.09.2020 07:21 2,1 C 96 % 1016,4 hPa 0,0 l/m 0,0 km/h O-SO 115 0 min 0,0 UV-I 6 W/m 1,5 C 2,1 C 0,0 km/h
29.09.2020 07:20 2,1 C 96 % 1016,4 hPa 0,0 l/m 0,0 km/h O-SO 115 0 min 0,0 UV-I 5 W/m 1,5 C 2,1 C 0,0 km/h
29.09.2020 07:19 2,1 C 96 % 1016,4 hPa 0,0 l/m 0,0 km/h O-SO 115 0 min 0,0 UV-I 5 W/m 1,5 C 2,1 C 0,0 km/h
29.09.2020 07:18 2,2 C 96 % 1016,4 hPa 0,0 l/m 0,0 km/h O-SO 115 0 min 0,0 UV-I 5 W/m 1,6 C 2,2 C 0,0 km/h
29.09.2020 07:17 2,2 C 96 % 1016,4 hPa 0,0 l/m 0,0 km/h O-SO 115 0 min 0,0 UV-I 3 W/m 1,6 C 2,2 C 0,0 km/h
29.09.2020 07:16 2,2 C 96 % 1016,3 hPa 0,0 l/m 0,0 km/h O-SO 115 0 min 0,0 UV-I 0 W/m 1,6 C 2,2 C 0,0 km/h
29.09.2020 07:15 2,2 C 96 % 1016,3 hPa 0,0 l/m 0,0 km/h O-SO 115 0 min 0,0 UV-I 0 W/m 1,6 C 2,2 C 0,0 km/h
29.09.2020 07:14 2,2 C 96 % 1016,3 hPa 0,0 l/m 0,0 km/h O-SO 115 0 min 0,0 UV-I 0 W/m 1,6 C 2,2 C 0,0 km/h
29.09.2020 07:13 2,2 C 96 % 1016,3 hPa 0,0 l/m 0,0 km/h O-SO 115 0 min 0,0 UV-I 0 W/m 1,6 C 2,2 C 0,0 km/h
29.09.2020 07:12 2,3 C 96 % 1016,2 hPa 0,0 l/m 0,0 km/h O-SO 115 0 min 0,0 UV-I 0 W/m 1,7 C 2,3 C 0,0 km/h
29.09.2020 07:11 2,3 C 96 % 1016,3 hPa 0,0 l/m 0,0 km/h O-SO 115 0 min 0,0 UV-I 0 W/m 1,7 C 2,3 C 0,0 km/h
29.09.2020 07:10 2,3 C 96 % 1016,3 hPa 0,0 l/m 0,0 km/h O-SO 115 0 min 0,0 UV-I 0 W/m 1,7 C 2,3 C 0,0 km/h
29.09.2020 07:09 2,3 C 96 % 1016,3 hPa 0,0 l/m 0,0 km/h O-SO 115 0 min 0,0 UV-I 0 W/m 1,7 C 2,3 C 0,0 km/h
29.09.2020 07:08 2,3 C 96 % 1016,2 hPa 0,0 l/m 0,0 km/h O-SO 115 0 min 0,0 UV-I 0 W/m 1,7 C 2,3 C 0,0 km/h
29.09.2020 07:07 2,3 C 96 % 1016,2 hPa 0,0 l/m 0,0 km/h O-SO 115 0 min 0,0 UV-I 0 W/m 1,7 C 2,3 C 0,0 km/h
29.09.2020 07:06 2,4 C 96 % 1016,2 hPa 0,0 l/m 0,0 km/h O-SO 115 0 min 0,0 UV-I 0 W/m 1,8 C 2,4 C 0,0 km/h
29.09.2020 07:05 2,4 C 96 % 1016,2 hPa 0,0 l/m 0,0 km/h O-SO 115 0 min 0,0 UV-I 0 W/m 1,8 C 2,4 C 0,0 km/h
29.09.2020 07:04 2,4 C 96 % 1016,2 hPa 0,0 l/m 0,0 km/h O-SO 115 0 min 0,0 UV-I 0 W/m 1,8 C 2,4 C 0,0 km/h
29.09.2020 07:03 2,4 C 96 % 1016,2 hPa 0,0 l/m 0,0 km/h O-SO 115 0 min 0,0 UV-I 0 W/m 1,8 C 2,4 C 0,0 km/h
29.09.2020 07:02 2,4 C 96 % 1016,1 hPa 0,0 l/m 0,0 km/h O-SO 115 0 min 0,0 UV-I 0 W/m 1,8 C 2,4 C 0,0 km/h
29.09.2020 07:01 2,4 C 96 % 1016,2 hPa 0,0 l/m 0,0 km/h O-SO 115 0 min 0,0 UV-I 0 W/m 1,8 C 2,4 C 0,0 km/h
29.09.2020 07:00 2,4 C 96 % 1016,2 hPa 0,0 l/m 0,0 km/h O-SO 115 0 min 0,0 UV-I 0 W/m 1,8 C 2,4 C 0,0 km/h
29.09.2020 06:59 2,4 C 96 % 1016,2 hPa 0,0 l/m 0,0 km/h O-SO 115 0 min 0,0 UV-I 0 W/m 1,8 C 2,4 C 0,0 km/h
29.09.2020 06:58 2,4 C 96 % 1016,2 hPa 0,0 l/m 0,0 km/h O-SO 115 0 min 0,0 UV-I 0 W/m 1,8 C 2,4 C 0,0 km/h
29.09.2020 06:57 2,5 C 96 % 1016,1 hPa 0,0 l/m 0,0 km/h O-SO 115 0 min 0,0 UV-I 0 W/m 1,9 C 2,5 C 0,0 km/h
29.09.2020 06:56 2,6 C 96 % 1016,1 hPa 0,0 l/m 0,0 km/h O-SO 115 0 min 0,0 UV-I 0 W/m 2,0 C 2,6 C 0,0 km/h
29.09.2020 06:55 2,5 C 96 % 1016,1 hPa 0,0 l/m 0,0 km/h O-SO 115 0 min 0,0 UV-I 0 W/m 1,9 C 2,5 C 0,0 km/h
29.09.2020 06:54 2,6 C 96 % 1016,1 hPa 0,0 l/m 0,0 km/h O-SO 115 0 min 0,0 UV-I 0 W/m 2,0 C 2,6 C 0,0 km/h
29.09.2020 06:53 2,6 C 96 % 1016,1 hPa 0,0 l/m 0,0 km/h O-SO 115 0 min 0,0 UV-I 0 W/m 2,0 C 2,6 C 0,0 km/h
29.09.2020 06:52 2,6 C 96 % 1016,1 hPa 0,0 l/m 0,0 km/h O-SO 115 0 min 0,0 UV-I 0 W/m 2,0 C 2,6 C 0,0 km/h
29.09.2020 06:51 2,6 C 96 % 1016,1 hPa 0,0 l/m 0,0 km/h O-SO 115 0 min 0,0 UV-I 0 W/m 2,0 C 2,6 C 0,0 km/h
29.09.2020 06:50 2,7 C 96 % 1016,1 hPa 0,0 l/m 0,0 km/h O-SO 115 0 min 0,0 UV-I 0 W/m 2,1 C 2,7 C 0,0 km/h
29.09.2020 06:49 2,7 C 96 % 1016,1 hPa 0,0 l/m 0,0 km/h O-SO 115 0 min 0,0 UV-I 0 W/m 2,1 C 2,7 C 0,0 km/h
29.09.2020 06:48 2,7 C 96 % 1016,1 hPa 0,0 l/m 0,0 km/h O-SO 115 0 min 0,0 UV-I 0 W/m 2,1 C 2,7 C 0,0 km/h
29.09.2020 06:47 2,7 C 96 % 1016,1 hPa 0,0 l/m 0,0 km/h O-SO 115 0 min 0,0 UV-I 0 W/m 2,1 C 2,7 C 0,0 km/h
29.09.2020 06:46 2,7 C 96 % 1016,1 hPa 0,0 l/m 0,0 km/h O-SO 115 0 min 0,0 UV-I 0 W/m 2,1 C 2,7 C 0,0 km/h
29.09.2020 06:45 2,7 C 96 % 1016,0 hPa 0,0 l/m 0,0 km/h O-SO 115 0 min 0,0 UV-I 0 W/m 2,1 C 2,7 C 0,0 km/h
29.09.2020 06:44 2,7 C 96 % 1016,0 hPa 0,0 l/m 0,0 km/h O-SO 115 0 min 0,0 UV-I 0 W/m 2,1 C 2,7 C 0,0 km/h
29.09.2020 06:43 2,7 C 96 % 1016,0 hPa 0,0 l/m 0,0 km/h O-SO 115 0 min 0,0 UV-I 0 W/m 2,1 C 2,7 C 0,0 km/h
29.09.2020 06:42 2,7 C 96 % 1015,9 hPa 0,0 l/m 0,0 km/h O-SO 115 0 min 0,0 UV-I 0 W/m 2,1 C 2,7 C 0,0 km/h
29.09.2020 06:41 2,7 C 96 % 1015,9 hPa 0,0 l/m 0,0 km/h O-SO 115 0 min 0,0 UV-I 0 W/m 2,1 C 2,7 C 0,0 km/h
29.09.2020 06:40 2,7 C 96 % 1015,9 hPa 0,0 l/m 0,0 km/h O-SO 115 0 min 0,0 UV-I 0 W/m 2,1 C 2,7 C 0,0 km/h
29.09.2020 06:39 2,7 C 96 % 1015,8 hPa 0,0 l/m 0,0 km/h O-SO 115 0 min 0,0 UV-I 0 W/m 2,1 C 2,7 C 0,0 km/h
29.09.2020 06:38 2,7 C 96 % 1015,9 hPa 0,0 l/m 0,0 km/h O-SO 115 0 min 0,0 UV-I 0 W/m 2,1 C 2,7 C 0,0 km/h
29.09.2020 06:37 2,7 C 96 % 1015,8 hPa 0,0 l/m 0,0 km/h O-SO 115 0 min 0,0 UV-I 0 W/m 2,1 C 2,7 C 0,0 km/h
29.09.2020 06:36 2,7 C 96 % 1015,8 hPa 0,0 l/m 0,0 km/h O-SO 115 0 min 0,0 UV-I 0 W/m 2,1 C 2,7 C 0,0 km/h
29.09.2020 06:35 2,7 C 96 % 1015,8 hPa 0,0 l/m 0,0 km/h O-SO 115 0 min 0,0 UV-I 0 W/m 2,1 C 2,7 C 0,0 km/h
29.09.2020 06:34 2,8 C 96 % 1015,8 hPa 0,0 l/m 0,0 km/h O-SO 115 0 min 0,0 UV-I 0 W/m 2,2 C 2,8 C 0,0 km/h
29.09.2020 06:33 2,8 C 96 % 1015,8 hPa 0,0 l/m 0,0 km/h O-SO 115 0 min 0,0 UV-I 0 W/m 2,2 C 2,8 C 0,0 km/h
29.09.2020 06:32 2,8 C 96 % 1015,8 hPa 0,0 l/m 0,0 km/h O-SO 115 0 min 0,0 UV-I 0 W/m 2,2 C 2,8 C 0,0 km/h
29.09.2020 06:31 2,8 C 96 % 1015,8 hPa 0,0 l/m 0,0 km/h O-SO 115 0 min 0,0 UV-I 0 W/m 2,2 C 2,8 C 0,0 km/h
29.09.2020 06:30 2,8 C 96 % 1015,8 hPa 0,0 l/m 0,0 km/h O-SO 115 0 min 0,0 UV-I 0 W/m 2,2 C 2,8 C 0,0 km/h
29.09.2020 06:29 2,9 C 96 % 1015,8 hPa 0,0 l/m 0,0 km/h O-SO 115 0 min 0,0 UV-I 0 W/m 2,3 C 2,9 C 0,0 km/h
29.09.2020 06:28 2,8 C 96 % 1015,8 hPa 0,0 l/m 0,0 km/h O-SO 115 0 min 0,0 UV-I 0 W/m 2,2 C 2,8 C 0,0 km/h
29.09.2020 06:27 2,9 C 97 % 1015,8 hPa 0,0 l/m 0,0 km/h O-SO 115 0 min 0,0 UV-I 0 W/m 2,5 C 2,9 C 0,0 km/h
29.09.2020 06:26 2,9 C 96 % 1015,8 hPa 0,0 l/m 0,0 km/h O-SO 115 0 min 0,0 UV-I 0 W/m 2,3 C 2,9 C 0,0 km/h
29.09.2020 06:25 2,9 C 96 % 1015,8 hPa 0,0 l/m 0,0 km/h O-SO 115 0 min 0,0 UV-I 0 W/m 2,3 C 2,9 C 0,0 km/h
29.09.2020 06:24 2,9 C 96 % 1015,8 hPa 0,0 l/m 0,0 km/h O-SO 115 0 min 0,0 UV-I 0 W/m 2,3 C 2,9 C 0,0 km/h
29.09.2020 06:23 2,9 C 96 % 1015,8 hPa 0,0 l/m 0,0 km/h O-SO 115 0 min 0,0 UV-I 0 W/m 2,3 C 2,9 C 0,0 km/h
29.09.2020 06:22 2,9 C 96 % 1015,8 hPa 0,0 l/m 0,0 km/h O-SO 115 0 min 0,0 UV-I 0 W/m 2,3 C 2,9 C 0,0 km/h
29.09.2020 06:21 2,9 C 96 % 1015,7 hPa 0,0 l/m 0,0 km/h O-SO 115 0 min 0,0 UV-I 0 W/m 2,3 C 2,9 C 0,0 km/h
29.09.2020 06:20 3,0 C 96 % 1015,8 hPa 0,0 l/m 0,0 km/h O-SO 115 0 min 0,0 UV-I 0 W/m 2,4 C 3,0 C 0,0 km/h
29.09.2020 06:19 2,9 C 96 % 1015,7 hPa 0,0 l/m 0,0 km/h O-SO 115 0 min 0,0 UV-I 0 W/m 2,3 C 2,9 C 0,0 km/h
29.09.2020 06:18 2,9 C 96 % 1015,7 hPa 0,0 l/m 0,0 km/h O-SO 115 0 min 0,0 UV-I 0 W/m 2,3 C 2,9 C 0,0 km/h
29.09.2020 06:17 3,0 C 96 % 1015,7 hPa 0,0 l/m 0,0 km/h O-SO 115 0 min 0,0 UV-I 0 W/m 2,4 C 3,0 C 0,0 km/h
29.09.2020 06:16 3,1 C 96 % 1015,7 hPa 0,0 l/m 0,0 km/h O-SO 115 0 min 0,0 UV-I 0 W/m 2,5 C 3,1 C 0,0 km/h
29.09.2020 06:15 3,1 C 96 % 1015,6 hPa 0,0 l/m 0,0 km/h O-SO 115 0 min 0,0 UV-I 0 W/m 2,5 C 3,1 C 0,0 km/h
29.09.2020 06:14 3,1 C 97 % 1015,6 hPa 0,0 l/m 0,0 km/h O-SO 115 0 min 0,0 UV-I 0 W/m 2,7 C 3,1 C 0,0 km/h
29.09.2020 06:13 3,1 C 97 % 1015,7 hPa 0,0 l/m 0,0 km/h O-SO 115 0 min 0,0 UV-I 0 W/m 2,7 C 3,1 C 0,0 km/h
29.09.2020 06:12 3,1 C 97 % 1015,7 hPa 0,0 l/m 0,0 km/h O-SO 115 0 min 0,0 UV-I 0 W/m 2,7 C 3,1 C 0,0 km/h
29.09.2020 06:11 3,1 C 97 % 1015,6 hPa 0,0 l/m 0,0 km/h O-SO 115 0 min 0,0 UV-I 0 W/m 2,7 C 3,1 C 0,0 km/h
29.09.2020 06:10 3,2 C 97 % 1015,7 hPa 0,0 l/m 0,0 km/h O-SO 115 0 min 0,0 UV-I 0 W/m 2,8 C 3,2 C 0,0 km/h
29.09.2020 06:09 3,2 C 97 % 1015,7 hPa 0,0 l/m 0,0 km/h O-SO 115 0 min 0,0 UV-I 0 W/m 2,8 C 3,2 C 0,0 km/h
29.09.2020 06:08 3,2 C 97 % 1015,7 hPa 0,0 l/m 0,0 km/h O-SO 115 0 min 0,0 UV-I 0 W/m 2,8 C 3,2 C 0,0 km/h
29.09.2020 06:07 3,2 C 97 % 1015,6 hPa 0,0 l/m 0,0 km/h O-SO 115 0 min 0,0 UV-I 0 W/m 2,8 C 3,2 C 0,0 km/h
29.09.2020 06:06 3,2 C 97 % 1015,6 hPa 0,0 l/m 0,0 km/h O-SO 115 0 min 0,0 UV-I 0 W/m 2,8 C 3,2 C 0,0 km/h
29.09.2020 06:05 3,2 C 97 % 1015,6 hPa 0,0 l/m 0,0 km/h O-SO 115 0 min 0,0 UV-I 0 W/m 2,8 C 3,2 C 0,0 km/h
29.09.2020 06:04 3,1 C 97 % 1015,6 hPa 0,0 l/m 0,0 km/h O-SO 115 0 min 0,0 UV-I 0 W/m 2,7 C 3,1 C 0,0 km/h
29.09.2020 06:03 3,1 C 96 % 1015,6 hPa 0,0 l/m 0,0 km/h O-SO 115 0 min 0,0 UV-I 0 W/m 2,5 C 3,1 C 0,0 km/h
29.09.2020 06:02 3,1 C 96 % 1015,5 hPa 0,0 l/m 0,0 km/h O-SO 115 0 min 0,0 UV-I 0 W/m 2,5 C 3,1 C 0,0 km/h
29.09.2020 06:01 3,1 C 96 % 1015,6 hPa 0,0 l/m 0,0 km/h O-SO 115 0 min 0,0 UV-I 0 W/m 2,5 C 3,1 C 0,0 km/h
29.09.2020 06:00 3,1 C 96 % 1015,6 hPa 0,0 l/m 0,0 km/h O-SO 115 0 min 0,0 UV-I 0 W/m 2,5 C 3,1 C 0,0 km/h
29.09.2020 05:59 3,1 C 96 % 1015,5 hPa 0,0 l/m 0,0 km/h O-SO 115 0 min 0,0 UV-I 0 W/m 2,5 C 3,1 C 0,0 km/h
29.09.2020 05:58 3,1 C 96 % 1015,5 hPa 0,0 l/m 0,0 km/h O-SO 115 0 min 0,0 UV-I 0 W/m 2,5 C 3,1 C 0,0 km/h
29.09.2020 05:57 3,1 C 96 % 1015,5 hPa 0,0 l/m 0,0 km/h O-SO 115 0 min 0,0 UV-I 0 W/m 2,5 C 3,1 C 0,0 km/h
29.09.2020 05:56 3,1 C 96 % 1015,5 hPa 0,0 l/m 0,0 km/h O-SO 115 0 min 0,0 UV-I 0 W/m 2,5 C 3,1 C 0,0 km/h
29.09.2020 05:55 3,1 C 96 % 1015,5 hPa 0,0 l/m 0,0 km/h O-SO 115 0 min 0,0 UV-I 0 W/m 2,5 C 3,1 C 0,0 km/h
29.09.2020 05:54 3,1 C 96 % 1015,5 hPa 0,0 l/m 0,0 km/h O-SO 115 0 min 0,0 UV-I 0 W/m 2,5 C 3,1 C 0,0 km/h
29.09.2020 05:53 3,1 C 96 % 1015,5 hPa 0,0 l/m 0,0 km/h O-SO 115 0 min 0,0 UV-I 0 W/m 2,5 C 3,1 C 0,0 km/h
29.09.2020 05:52 3,2 C 96 % 1015,5 hPa 0,0 l/m 0,0 km/h O-SO 115 0 min 0,0 UV-I 0 W/m 2,6 C 3,2 C 0,0 km/h
29.09.2020 05:51 3,2 C 96 % 1015,5 hPa 0,0 l/m 0,0 km/h O-SO 115 0 min 0,0 UV-I 0 W/m 2,6 C 3,2 C 0,0 km/h
29.09.2020 05:50 3,2 C 96 % 1015,5 hPa 0,0 l/m 0,0 km/h O-SO 115 0 min 0,0 UV-I 0 W/m 2,6 C 3,2 C 0,0 km/h
29.09.2020 05:49 3,2 C 96 % 1015,5 hPa 0,0 l/m 0,0 km/h O-SO 115 0 min 0,0 UV-I 0 W/m 2,6 C 3,2 C 0,0 km/h
29.09.2020 05:48 3,2 C 96 % 1015,5 hPa 0,0 l/m 0,0 km/h O-SO 115 0 min 0,0 UV-I 0 W/m 2,6 C 3,2 C 0,0 km/h
29.09.2020 05:47 3,3 C 96 % 1015,5 hPa 0,0 l/m 0,0 km/h O-SO 115 0 min 0,0 UV-I 0 W/m 2,7 C 3,3 C 0,0 km/h
29.09.2020 05:46 3,3 C 96 % 1015,5 hPa 0,0 l/m 0,0 km/h O-SO 115 0 min 0,0 UV-I 0 W/m 2,7 C 3,3 C 0,0 km/h
29.09.2020 05:45 3,3 C 96 % 1015,5 hPa 0,0 l/m 0,0 km/h O-SO 115 0 min 0,0 UV-I 0 W/m 2,7 C 3,3 C 0,0 km/h
29.09.2020 05:44 3,3 C 96 % 1015,5 hPa 0,0 l/m 0,0 km/h O-SO 115 0 min 0,0 UV-I 0 W/m 2,7 C 3,3 C 0,0 km/h
29.09.2020 05:43 3,3 C 96 % 1015,5 hPa 0,0 l/m 0,0 km/h O-SO 115 0 min 0,0 UV-I 0 W/m 2,7 C 3,3 C 0,0 km/h
29.09.2020 05:42 3,3 C 96 % 1015,5 hPa 0,0 l/m 0,0 km/h O-SO 115 0 min 0,0 UV-I 0 W/m 2,7 C 3,3 C 0,0 km/h
29.09.2020 05:41 3,3 C 96 % 1015,5 hPa 0,0 l/m 0,0 km/h O-SO 115 0 min 0,0 UV-I 0 W/m 2,7 C 3,3 C 0,0 km/h
29.09.2020 05:40 3,3 C 96 % 1015,5 hPa 0,0 l/m 0,0 km/h O-SO 115 0 min 0,0 UV-I 0 W/m 2,7 C 3,3 C 0,0 km/h
29.09.2020 05:39 3,3 C 96 % 1015,5 hPa 0,0 l/m 0,0 km/h O-SO 115 0 min 0,0 UV-I 0 W/m 2,7 C 3,3 C 0,0 km/h
29.09.2020 05:38 3,3 C 96 % 1015,5 hPa 0,0 l/m 0,0 km/h O-SO 115 0 min 0,0 UV-I 0 W/m 2,7 C 3,3 C 0,0 km/h
29.09.2020 05:37 3,3 C 96 % 1015,5 hPa 0,0 l/m 0,0 km/h O-SO 115 0 min 0,0 UV-I 0 W/m 2,7 C 3,3 C 0,0 km/h
29.09.2020 05:36 3,3 C 96 % 1015,4 hPa 0,0 l/m 0,0 km/h O-SO 115 0 min 0,0 UV-I 0 W/m 2,7 C 3,3 C 0,0 km/h
29.09.2020 05:35 3,4 C 96 % 1015,5 hPa 0,0 l/m 0,0 km/h O-SO 115 0 min 0,0 UV-I 0 W/m 2,8 C 3,4 C 0,0 km/h
29.09.2020 05:34 3,4 C 96 % 1015,4 hPa 0,0 l/m 0,0 km/h O-SO 115 0 min 0,0 UV-I 0 W/m 2,8 C 3,4 C 0,0 km/h
29.09.2020 05:33 3,4 C 96 % 1015,4 hPa 0,0 l/m 0,0 km/h O-SO 115 0 min 0,0 UV-I 0 W/m 2,8 C 3,4 C 0,0 km/h
29.09.2020 05:32 3,5 C 96 % 1015,3 hPa 0,0 l/m 0,0 km/h O-SO 115 0 min 0,0 UV-I 0 W/m 2,9 C 3,5 C 0,0 km/h
29.09.2020 05:31 3,5 C 96 % 1015,4 hPa 0,0 l/m 0,0 km/h O-SO 115 0 min 0,0 UV-I 0 W/m 2,9 C 3,5 C 0,0 km/h
29.09.2020 05:30 3,6 C 96 % 1015,4 hPa 0,0 l/m 0,0 km/h O-SO 115 0 min 0,0 UV-I 0 W/m 3,0 C 3,6 C 0,0 km/h
29.09.2020 05:29 3,6 C 96 % 1015,4 hPa 0,0 l/m 0,0 km/h O-SO 115 0 min 0,0 UV-I 0 W/m 3,0 C 3,6 C 0,0 km/h
29.09.2020 05:28 3,6 C 96 % 1015,4 hPa 0,0 l/m 0,0 km/h O-SO 115 0 min 0,0 UV-I 0 W/m 3,0 C 3,6 C 0,0 km/h
29.09.2020 05:27 3,7 C 96 % 1015,4 hPa 0,0 l/m 0,0 km/h O-SO 115 0 min 0,0 UV-I 0 W/m 3,1 C 3,7 C 0,0 km/h
29.09.2020 05:26 3,7 C 97 % 1015,4 hPa 0,0 l/m 0,0 km/h O-SO 115 0 min 0,0 UV-I 0 W/m 3,3 C 3,7 C 0,0 km/h
29.09.2020 05:25 3,7 C 97 % 1015,4 hPa 0,0 l/m 0,0 km/h O-SO 115 0 min 0,0 UV-I 0 W/m 3,3 C 3,7 C 0,0 km/h
29.09.2020 05:24 3,7 C 97 % 1015,3 hPa 0,0 l/m 0,0 km/h O-SO 115 0 min 0,0 UV-I 0 W/m 3,3 C 3,7 C 0,0 km/h
29.09.2020 05:23 3,7 C 97 % 1015,3 hPa 0,0 l/m 0,0 km/h O-SO 115 0 min 0,0 UV-I 0 W/m 3,3 C 3,7 C 0,0 km/h
29.09.2020 05:22 3,7 C 97 % 1015,4 hPa 0,0 l/m 0,0 km/h O-SO 115 0 min 0,0 UV-I 0 W/m 3,3 C 3,7 C 0,0 km/h
29.09.2020 05:21 3,8 C 97 % 1015,4 hPa 0,0 l/m 0,0 km/h O-SO 115 0 min 0,0 UV-I 0 W/m 3,4 C 3,8 C 0,0 km/h
29.09.2020 05:20 3,8 C 97 % 1015,4 hPa 0,0 l/m 0,0 km/h O-SO 115 0 min 0,0 UV-I 0 W/m 3,4 C 3,8 C 0,0 km/h
29.09.2020 05:19 3,7 C 97 % 1015,3 hPa 0,0 l/m 0,0 km/h O-SO 115 0 min 0,0 UV-I 0 W/m 3,3 C 3,7 C 0,0 km/h
29.09.2020 05:18 3,8 C 97 % 1015,3 hPa 0,0 l/m 0,0 km/h O-SO 115 0 min 0,0 UV-I 0 W/m 3,4 C 3,8 C 0,0 km/h
29.09.2020 05:17 3,8 C 97 % 1015,4 hPa 0,0 l/m 0,0 km/h O-SO 115 0 min 0,0 UV-I 0 W/m 3,4 C 3,8 C 0,0 km/h
29.09.2020 05:16 3,8 C 97 % 1015,3 hPa 0,0 l/m 0,0 km/h O-SO 115 0 min 0,0 UV-I 0 W/m 3,4 C 3,8 C 0,0 km/h
29.09.2020 05:15 3,8 C 97 % 1015,3 hPa 0,0 l/m 0,0 km/h O 101 0 min 0,0 UV-I 0 W/m 3,4 C 3,8 C 0,0 km/h
29.09.2020 05:14 3,8 C 97 % 1015,4 hPa 0,0 l/m 0,0 km/h O 97 0 min 0,0 UV-I 0 W/m 3,4 C 3,8 C 0,0 km/h
29.09.2020 05:13 3,9 C 97 % 1015,4 hPa 0,0 l/m 0,0 km/h O 97 0 min 0,0 UV-I 0 W/m 3,5 C 3,9 C 0,0 km/h
29.09.2020 05:12 3,9 C 97 % 1015,4 hPa 0,0 l/m 0,0 km/h O 97 0 min 0,0 UV-I 0 W/m 3,5 C 3,9 C 0,0 km/h
29.09.2020 05:11 3,9 C 97 % 1015,4 hPa 0,0 l/m 0,0 km/h O 97 0 min 0,0 UV-I 0 W/m 3,5 C 3,9 C 0,0 km/h
29.09.2020 05:10 3,9 C 97 % 1015,3 hPa 0,0 l/m 0,0 km/h O 97 0 min 0,0 UV-I 0 W/m 3,5 C 3,9 C 0,0 km/h
29.09.2020 05:09 3,9 C 97 % 1015,3 hPa 0,0 l/m 0,0 km/h O 97 0 min 0,0 UV-I 0 W/m 3,5 C 3,9 C 0,0 km/h
29.09.2020 05:08 3,9 C 97 % 1015,3 hPa 0,0 l/m 0,0 km/h O 97 0 min 0,0 UV-I 0 W/m 3,5 C 3,9 C 0,0 km/h
29.09.2020 05:07 3,9 C 97 % 1015,3 hPa 0,0 l/m 0,0 km/h O 97 0 min 0,0 UV-I 0 W/m 3,5 C 3,9 C 0,0 km/h
29.09.2020 05:06 3,9 C 97 % 1015,3 hPa 0,0 l/m 0,0 km/h O 97 0 min 0,0 UV-I 0 W/m 3,5 C 3,9 C 0,0 km/h
29.09.2020 05:05 3,9 C 97 % 1015,4 hPa 0,0 l/m 0,0 km/h O 97 0 min 0,0 UV-I 0 W/m 3,5 C 3,9 C 0,0 km/h
29.09.2020 05:04 3,8 C 97 % 1015,3 hPa 0,0 l/m 0,0 km/h O 97 0 min 0,0 UV-I 0 W/m 3,4 C 3,8 C 0,0 km/h
29.09.2020 05:03 3,8 C 97 % 1015,3 hPa 0,0 l/m 0,0 km/h O 97 0 min 0,0 UV-I 0 W/m 3,4 C 3,8 C 0,0 km/h
29.09.2020 05:02 3,8 C 97 % 1015,4 hPa 0,0 l/m 0,0 km/h O 97 0 min 0,0 UV-I 0 W/m 3,4 C 3,8 C 0,0 km/h
29.09.2020 05:01 3,7 C 96 % 1015,3 hPa 0,0 l/m 0,0 km/h O 97 0 min 0,0 UV-I 0 W/m 3,1 C 3,7 C 0,0 km/h
29.09.2020 05:00 3,7 C 96 % 1015,4 hPa 0,0 l/m 0,0 km/h O 97 0 min 0,0 UV-I 0 W/m 3,1 C 3,7 C 0,0 km/h
29.09.2020 04:59 3,6 C 96 % 1015,3 hPa 0,0 l/m 0,0 km/h O 97 0 min 0,0 UV-I 0 W/m 3,0 C 3,6 C 0,0 km/h
29.09.2020 04:58 3,6 C 96 % 1015,3 hPa 0,0 l/m 0,0 km/h O 97 0 min 0,0 UV-I 0 W/m 3,0 C 3,6 C 0,0 km/h
29.09.2020 04:57 3,6 C 96 % 1015,3 hPa 0,0 l/m 0,0 km/h O 97 0 min 0,0 UV-I 0 W/m 3,0 C 3,6 C 0,0 km/h
29.09.2020 04:56 3,6 C 96 % 1015,3 hPa 0,0 l/m 0,0 km/h O 97 0 min 0,0 UV-I 0 W/m 3,0 C 3,6 C 0,0 km/h
29.09.2020 04:55 3,6 C 96 % 1015,3 hPa 0,0 l/m 0,0 km/h O 97 0 min 0,0 UV-I 0 W/m 3,0 C 3,6 C 0,0 km/h
29.09.2020 04:54 3,6 C 96 % 1015,3 hPa 0,0 l/m 0,0 km/h O 97 0 min 0,0 UV-I 0 W/m 3,0 C 3,6 C 0,0 km/h
29.09.2020 04:53 3,6 C 96 % 1015,3 hPa 0,0 l/m 0,0 km/h O 97 0 min 0,0 UV-I 0 W/m 3,0 C 3,6 C 0,0 km/h
29.09.2020 04:52 3,6 C 96 % 1015,2 hPa 0,0 l/m 0,0 km/h SO 125 0 min 0,0 UV-I 0 W/m 3,0 C 3,6 C 0,0 km/h
29.09.2020 04:51 3,6 C 96 % 1015,2 hPa 0,0 l/m 0,0 km/h SO 125 0 min 0,0 UV-I 0 W/m 3,0 C 3,6 C 0,0 km/h
29.09.2020 04:50 3,6 C 96 % 1015,2 hPa 0,0 l/m 0,0 km/h SO 125 0 min 0,0 UV-I 0 W/m 3,0 C 3,6 C 0,0 km/h
29.09.2020 04:49 3,7 C 96 % 1015,3 hPa 0,0 l/m 0,0 km/h SO 125 0 min 0,0 UV-I 0 W/m 3,1 C 3,7 C 0,0 km/h
29.09.2020 04:48 3,7 C 96 % 1015,2 hPa 0,0 l/m 0,0 km/h SO 125 0 min 0,0 UV-I 0 W/m 3,1 C 3,7 C 0,0 km/h
29.09.2020 04:47 3,7 C 96 % 1015,2 hPa 0,0 l/m 0,0 km/h SO 125 0 min 0,0 UV-I 0 W/m 3,1 C 3,7 C 0,0 km/h
29.09.2020 04:46 3,7 C 96 % 1015,2 hPa 0,0 l/m 0,0 km/h SO 125 0 min 0,0 UV-I 0 W/m 3,1 C 3,7 C 0,0 km/h
29.09.2020 04:45 3,7 C 96 % 1015,2 hPa 0,0 l/m 0,0 km/h SO 125 0 min 0,0 UV-I 0 W/m 3,1 C 3,7 C 0,0 km/h
29.09.2020 04:44 3,7 C 96 % 1015,2 hPa 0,0 l/m 0,0 km/h SO 125 0 min 0,0 UV-I 0 W/m 3,1 C 3,7 C 0,0 km/h
29.09.2020 04:43 3,7 C 96 % 1015,1 hPa 0,0 l/m 0,0 km/h SO 125 0 min 0,0 UV-I 0 W/m 3,1 C 3,7 C 0,0 km/h
29.09.2020 04:42 3,7 C 96 % 1015,1 hPa 0,0 l/m 0,0 km/h SO 125 0 min 0,0 UV-I 0 W/m 3,1 C 3,7 C 0,0 km/h
29.09.2020 04:41 3,7 C 96 % 1015,2 hPa 0,0 l/m 0,0 km/h SO 125 0 min 0,0 UV-I 0 W/m 3,1 C 3,7 C 0,0 km/h
29.09.2020 04:40 3,7 C 96 % 1015,2 hPa 0,0 l/m 0,0 km/h SO 125 0 min 0,0 UV-I 0 W/m 3,1 C 3,7 C 0,0 km/h
29.09.2020 04:39 3,7 C 96 % 1015,1 hPa 0,0 l/m 0,0 km/h SO 125 0 min 0,0 UV-I 0 W/m 3,1 C 3,7 C 0,0 km/h
29.09.2020 04:38 3,7 C 96 % 1015,1 hPa 0,0 l/m 0,0 km/h SO 125 0 min 0,0 UV-I 0 W/m 3,1 C 3,7 C 0,0 km/h
29.09.2020 04:37 3,8 C 96 % 1015,1 hPa 0,0 l/m 0,0 km/h SO 125 0 min 0,0 UV-I 0 W/m 3,2 C 3,8 C 0,0 km/h
29.09.2020 04:36 3,8 C 96 % 1015,1 hPa 0,0 l/m 0,0 km/h SO 125 0 min 0,0 UV-I 0 W/m 3,2 C 3,8 C 0,0 km/h
29.09.2020 04:35 3,8 C 96 % 1015,1 hPa 0,0 l/m 0,0 km/h SO 125 0 min 0,0 UV-I 0 W/m 3,2 C 3,8 C 0,0 km/h
29.09.2020 04:34 3,8 C 96 % 1015,1 hPa 0,0 l/m 0,0 km/h SO 125 0 min 0,0 UV-I 0 W/m 3,2 C 3,8 C 0,0 km/h
29.09.2020 04:33 3,8 C 96 % 1015,2 hPa 0,0 l/m 0,0 km/h SO 125 0 min 0,0 UV-I 0 W/m 3,2 C 3,8 C 0,0 km/h
29.09.2020 04:32 3,8 C 96 % 1015,2 hPa 0,0 l/m 0,0 km/h SO 125 0 min 0,0 UV-I 0 W/m 3,2 C 3,8 C 0,0 km/h
29.09.2020 04:31 3,8 C 96 % 1015,2 hPa 0,0 l/m 0,0 km/h SO 125 0 min 0,0 UV-I 0 W/m 3,2 C 3,8 C 0,0 km/h
29.09.2020 04:30 3,8 C 96 % 1015,2 hPa 0,0 l/m 0,0 km/h SO 125 0 min 0,0 UV-I 0 W/m 3,2 C 3,8 C 0,0 km/h
29.09.2020 04:29 3,8 C 96 % 1015,2 hPa 0,0 l/m 0,0 km/h SO 125 0 min 0,0 UV-I 0 W/m 3,2 C 3,8 C 0,0 km/h
29.09.2020 04:28 3,8 C 96 % 1015,2 hPa 0,0 l/m 0,0 km/h SO 125 0 min 0,0 UV-I 0 W/m 3,2 C 3,8 C 0,0 km/h
29.09.2020 04:27 3,9 C 96 % 1015,2 hPa 0,0 l/m 0,0 km/h SO 125 0 min 0,0 UV-I 0 W/m 3,3 C 3,9 C 0,0 km/h
29.09.2020 04:26 3,9 C 96 % 1015,2 hPa 0,0 l/m 0,0 km/h SO 125 0 min 0,0 UV-I 0 W/m 3,3 C 3,9 C 0,0 km/h
29.09.2020 04:25 3,9 C 96 % 1015,2 hPa 0,0 l/m 0,0 km/h SO 125 0 min 0,0 UV-I 0 W/m 3,3 C 3,9 C 0,0 km/h
29.09.2020 04:24 3,9 C 96 % 1015,2 hPa 0,0 l/m 0,0 km/h SO 125 0 min 0,0 UV-I 0 W/m 3,3 C 3,9 C 0,0 km/h
29.09.2020 04:23 3,9 C 96 % 1015,2 hPa 0,0 l/m 0,0 km/h SO 125 0 min 0,0 UV-I 0 W/m 3,3 C 3,9 C 0,0 km/h
29.09.2020 04:22 3,9 C 96 % 1015,2 hPa 0,0 l/m 0,0 km/h SO 125 0 min 0,0 UV-I 0 W/m 3,3 C 3,9 C 0,0 km/h
29.09.2020 04:21 3,9 C 96 % 1015,2 hPa 0,0 l/m 0,0 km/h SO 125 0 min 0,0 UV-I 0 W/m 3,3 C 3,9 C 0,0 km/h
29.09.2020 04:20 4,0 C 96 % 1015,2 hPa 0,0 l/m 0,0 km/h SO 125 0 min 0,0 UV-I 0 W/m 3,4 C 4,0 C 0,0 km/h
29.09.2020 04:19 4,1 C 96 % 1015,2 hPa 0,0 l/m 0,0 km/h SO 125 0 min 0,0 UV-I 0 W/m 3,5 C 4,1 C 0,0 km/h
29.09.2020 04:18 4,1 C 96 % 1015,2 hPa 0,0 l/m 0,0 km/h SO 125 0 min 0,0 UV-I 0 W/m 3,5 C 4,1 C 0,0 km/h
29.09.2020 04:16 4,2 C 96 % 1015,2 hPa 0,0 l/m 0,0 km/h N 0 0 min 0,0 UV-I 0 W/m 3,6 C 4,2 C 0,0 km/h
29.09.2020 04:15 4,2 C 96 % 1015,1 hPa 0,0 l/m 0,0 km/h SO 125 0 min 0,0 UV-I 0 W/m 3,6 C 4,2 C 0,0 km/h
29.09.2020 04:14 4,2 C 96 % 1015,1 hPa 0,0 l/m 0,0 km/h SO 125 0 min 0,0 UV-I 0 W/m 3,6 C 4,2 C 0,0 km/h
29.09.2020 04:13 4,3 C 96 % 1015,1 hPa 0,0 l/m 0,0 km/h SO 125 0 min 0,0 UV-I 0 W/m 3,7 C 4,3 C 0,0 km/h
29.09.2020 04:12 4,3 C 96 % 1015,1 hPa 0,0 l/m 0,0 km/h SO 125 0 min 0,0 UV-I 0 W/m 3,7 C 4,3 C 0,0 km/h
29.09.2020 04:11 4,3 C 96 % 1015,1 hPa 0,0 l/m 0,0 km/h SO 125 0 min 0,0 UV-I 0 W/m 3,7 C 4,3 C 0,0 km/h
29.09.2020 04:10 4,4 C 96 % 1015,1 hPa 0,0 l/m 0,0 km/h SO 125 0 min 0,0 UV-I 0 W/m 3,8 C 4,4 C 0,0 km/h
29.09.2020 04:09 4,4 C 96 % 1015,1 hPa 0,0 l/m 0,0 km/h SO 125 0 min 0,0 UV-I 0 W/m 3,8 C 4,4 C 0,0 km/h
29.09.2020 04:08 4,4 C 96 % 1015,1 hPa 0,0 l/m 0,0 km/h SO 125 0 min 0,0 UV-I 0 W/m 3,8 C 4,4 C 0,0 km/h
29.09.2020 04:07 4,4 C 96 % 1015,1 hPa 0,0 l/m 0,0 km/h SO 125 0 min 0,0 UV-I 0 W/m 3,8 C 4,4 C 0,0 km/h
29.09.2020 04:06 4,4 C 96 % 1015,1 hPa 0,0 l/m 0,0 km/h SO 125 0 min 0,0 UV-I 0 W/m 3,8 C 4,4 C 0,0 km/h
29.09.2020 04:05 4,4 C 96 % 1015,1 hPa 0,0 l/m 0,0 km/h SO 125 0 min 0,0 UV-I 0 W/m 3,8 C 4,4 C 0,0 km/h
29.09.2020 04:04 4,4 C 96 % 1015,1 hPa 0,0 l/m 0,0 km/h SO 125 0 min 0,0 UV-I 0 W/m 3,8 C 4,4 C 0,0 km/h
29.09.2020 04:03 4,4 C 96 % 1015,1 hPa 0,0 l/m 0,0 km/h SO 125 0 min 0,0 UV-I 0 W/m 3,8 C 4,4 C 0,0 km/h
29.09.2020 04:02 4,4 C 96 % 1015,1 hPa 0,0 l/m 0,0 km/h SO 125 0 min 0,0 UV-I 0 W/m 3,8 C 4,4 C 0,0 km/h
29.09.2020 04:01 4,5 C 96 % 1015,1 hPa 0,0 l/m 0,0 km/h SO 125 0 min 0,0 UV-I 0 W/m 3,9 C 4,5 C 0,0 km/h
29.09.2020 04:00 4,5 C 96 % 1015,1 hPa 0,0 l/m 0,0 km/h SO 125 0 min 0,0 UV-I 0 W/m 3,9 C 4,5 C 0,0 km/h
29.09.2020 03:59 4,6 C 96 % 1015,0 hPa 0,0 l/m 0,0 km/h SO 125 0 min 0,0 UV-I 0 W/m 4,0 C 4,6 C 0,0 km/h
29.09.2020 03:58 4,6 C 96 % 1015,1 hPa 0,0 l/m 0,0 km/h SO 125 0 min 0,0 UV-I 0 W/m 4,0 C 4,6 C 0,0 km/h
29.09.2020 03:57 4,6 C 96 % 1015,1 hPa 0,0 l/m 0,0 km/h SO 125 0 min 0,0 UV-I 0 W/m 4,0 C 4,6 C 0,0 km/h
29.09.2020 03:56 4,7 C 97 % 1015,0 hPa 0,0 l/m 0,0 km/h SO 125 0 min 0,0 UV-I 0 W/m 4,3 C 4,7 C 0,0 km/h
29.09.2020 03:55 4,7 C 97 % 1015,0 hPa 0,0 l/m 0,0 km/h SO 125 0 min 0,0 UV-I 0 W/m 4,3 C 4,7 C 0,0 km/h
29.09.2020 03:54 4,7 C 97 % 1015,0 hPa 0,0 l/m 0,0 km/h SO 125 0 min 0,0 UV-I 0 W/m 4,3 C 4,7 C 0,0 km/h
29.09.2020 03:53 4,7 C 97 % 1015,0 hPa 0,0 l/m 0,0 km/h SO 125 0 min 0,0 UV-I 0 W/m 4,3 C 4,7 C 0,0 km/h
29.09.2020 03:52 4,7 C 97 % 1015,0 hPa 0,0 l/m 0,0 km/h SO 125 0 min 0,0 UV-I 0 W/m 4,3 C 4,7 C 0,0 km/h
29.09.2020 03:51 4,6 C 97 % 1015,0 hPa 0,0 l/m 0,0 km/h SO 125 0 min 0,0 UV-I 0 W/m 4,2 C 4,6 C 0,0 km/h
29.09.2020 03:50 4,5 C 97 % 1014,9 hPa 0,0 l/m 0,0 km/h SO 125 0 min 0,0 UV-I 0 W/m 4,1 C 4,5 C 0,0 km/h
29.09.2020 03:49 4,4 C 97 % 1014,9 hPa 0,0 l/m 0,0 km/h SO 125 0 min 0,0 UV-I 0 W/m 4,0 C 4,4 C 0,0 km/h
29.09.2020 03:48 4,4 C 96 % 1014,9 hPa 0,0 l/m 0,0 km/h SO 125 0 min 0,0 UV-I 0 W/m 3,8 C 4,4 C 0,0 km/h
29.09.2020 03:47 4,3 C 96 % 1014,9 hPa 0,0 l/m 0,0 km/h SO 125 0 min 0,0 UV-I 0 W/m 3,7 C 4,3 C 0,0 km/h
29.09.2020 03:46 4,3 C 96 % 1014,9 hPa 0,0 l/m 0,0 km/h SO 125 0 min 0,0 UV-I 0 W/m 3,7 C 4,3 C 0,0 km/h
29.09.2020 03:45 4,3 C 96 % 1014,8 hPa 0,0 l/m 0,0 km/h SO 125 0 min 0,0 UV-I 0 W/m 3,7 C 4,3 C 0,0 km/h
29.09.2020 03:44 4,3 C 96 % 1014,8 hPa 0,0 l/m 0,0 km/h SO 125 0 min 0,0 UV-I 0 W/m 3,7 C 4,3 C 0,0 km/h
29.09.2020 03:43 4,3 C 96 % 1014,8 hPa 0,0 l/m 0,0 km/h SO 125 0 min 0,0 UV-I 0 W/m 3,7 C 4,3 C 0,0 km/h
29.09.2020 03:42 4,3 C 96 % 1014,9 hPa 0,0 l/m 0,0 km/h SO 125 0 min 0,0 UV-I 0 W/m 3,7 C 4,3 C 0,0 km/h
29.09.2020 03:41 4,3 C 96 % 1014,9 hPa 0,0 l/m 0,0 km/h SO 125 0 min 0,0 UV-I 0 W/m 3,7 C 4,3 C 0,0 km/h
29.09.2020 03:40 4,3 C 96 % 1014,8 hPa 0,0 l/m 0,0 km/h SO 125 0 min 0,0 UV-I 0 W/m 3,7 C 4,3 C 0,0 km/h
29.09.2020 03:39 4,4 C 96 % 1014,8 hPa 0,0 l/m 0,0 km/h SO 125 0 min 0,0 UV-I 0 W/m 3,8 C 4,4 C 0,0 km/h
29.09.2020 03:38 4,4 C 96 % 1014,8 hPa 0,0 l/m 0,0 km/h SO 125 0 min 0,0 UV-I 0 W/m 3,8 C 4,4 C 0,0 km/h
29.09.2020 03:37 4,4 C 96 % 1014,8 hPa 0,0 l/m 0,0 km/h SO 125 0 min 0,0 UV-I 0 W/m 3,8 C 4,4 C 0,0 km/h
29.09.2020 03:36 4,4 C 96 % 1014,8 hPa 0,0 l/m 0,0 km/h SO 131 0 min 0,0 UV-I 0 W/m 3,8 C 4,4 C 0,0 km/h
29.09.2020 03:35 4,4 C 96 % 1014,9 hPa 0,0 l/m 0,0 km/h SO 131 0 min 0,0 UV-I 0 W/m 3,8 C 4,4 C 0,0 km/h
29.09.2020 03:34 4,4 C 96 % 1014,9 hPa 0,0 l/m 0,0 km/h W-NW 283 0 min 0,0 UV-I 0 W/m 3,8 C 4,4 C 0,0 km/h
29.09.2020 03:33 4,5 C 96 % 1014,9 hPa 0,0 l/m 0,0 km/h W-NW 283 0 min 0,0 UV-I 0 W/m 3,9 C 4,5 C 0,0 km/h
29.09.2020 03:32 4,4 C 96 % 1014,9 hPa 0,0 l/m 0,0 km/h W-NW 283 0 min 0,0 UV-I 0 W/m 3,8 C 4,4 C 0,0 km/h
29.09.2020 03:31 4,5 C 96 % 1014,9 hPa 0,0 l/m 0,0 km/h W-NW 283 0 min 0,0 UV-I 0 W/m 3,9 C 4,5 C 0,0 km/h
29.09.2020 03:30 4,5 C 96 % 1014,9 hPa 0,0 l/m 0,0 km/h W-NW 283 0 min 0,0 UV-I 0 W/m 3,9 C 4,5 C 0,0 km/h
29.09.2020 03:29 4,6 C 96 % 1014,9 hPa 0,0 l/m 0,0 km/h W-NW 283 0 min 0,0 UV-I 0 W/m 4,0 C 4,6 C 0,0 km/h
29.09.2020 03:28 4,6 C 96 % 1014,9 hPa 0,0 l/m 0,0 km/h W-NW 283 0 min 0,0 UV-I 0 W/m 4,0 C 4,6 C 0,0 km/h
29.09.2020 03:27 4,6 C 96 % 1014,9 hPa 0,0 l/m 0,0 km/h W-NW 283 0 min 0,0 UV-I 0 W/m 4,0 C 4,6 C 0,0 km/h
29.09.2020 03:26 4,6 C 96 % 1014,9 hPa 0,0 l/m 0,0 km/h W-NW 283 0 min 0,0 UV-I 0 W/m 4,0 C 4,6 C 0,0 km/h
29.09.2020 03:25 4,6 C 96 % 1015,0 hPa 0,0 l/m 0,0 km/h W-NW 283 0 min 0,0 UV-I 0 W/m 4,0 C 4,6 C 0,0 km/h
29.09.2020 03:24 4,6 C 96 % 1014,9 hPa 0,0 l/m 0,0 km/h W-NW 283 0 min 0,0 UV-I 0 W/m 4,0 C 4,6 C 0,0 km/h
29.09.2020 03:23 4,6 C 96 % 1015,0 hPa 0,0 l/m 0,0 km/h W-NW 283 0 min 0,0 UV-I 0 W/m 4,0 C 4,6 C 0,0 km/h
29.09.2020 03:22 4,6 C 96 % 1015,0 hPa 0,0 l/m 0,0 km/h W-NW 283 0 min 0,0 UV-I 0 W/m 4,0 C 4,6 C 0,0 km/h
29.09.2020 03:21 4,6 C 96 % 1015,0 hPa 0,0 l/m 0,0 km/h W-NW 283 0 min 0,0 UV-I 0 W/m 4,0 C 4,6 C 0,0 km/h
29.09.2020 03:20 4,6 C 96 % 1015,0 hPa 0,0 l/m 0,0 km/h W-NW 283 0 min 0,0 UV-I 0 W/m 4,0 C 4,6 C 0,0 km/h
29.09.2020 03:19 4,6 C 96 % 1015,0 hPa 0,0 l/m 0,0 km/h W-NW 283 0 min 0,0 UV-I 0 W/m 4,0 C 4,6 C 0,0 km/h
29.09.2020 03:18 4,6 C 96 % 1015,1 hPa 0,0 l/m 0,0 km/h W-NW 283 0 min 0,0 UV-I 0 W/m 4,0 C 4,6 C 0,0 km/h
29.09.2020 03:17 4,6 C 95 % 1015,1 hPa 0,0 l/m 0,0 km/h W-NW 283 0 min 0,0 UV-I 0 W/m 3,9 C 4,6 C 0,0 km/h
29.09.2020 03:16 4,6 C 95 % 1015,1 hPa 0,0 l/m 0,0 km/h W-NW 283 0 min 0,0 UV-I 0 W/m 3,9 C 4,6 C 0,0 km/h
29.09.2020 03:15 4,7 C 95 % 1015,0 hPa 0,0 l/m 0,0 km/h W-NW 283 0 min 0,0 UV-I 0 W/m 4,0 C 4,7 C 0,0 km/h
29.09.2020 03:14 4,7 C 95 % 1015,1 hPa 0,0 l/m 0,0 km/h W-NW 283 0 min 0,0 UV-I 0 W/m 4,0 C 4,7 C 0,0 km/h
29.09.2020 03:13 4,7 C 95 % 1015,0 hPa 0,0 l/m 0,0 km/h W-NW 283 0 min 0,0 UV-I 0 W/m 4,0 C 4,7 C 0,0 km/h
29.09.2020 03:12 4,7 C 96 % 1015,0 hPa 0,0 l/m 0,0 km/h W-NW 283 0 min 0,0 UV-I 0 W/m 4,1 C 4,7 C 0,0 km/h
29.09.2020 03:11 4,8 C 96 % 1015,1 hPa 0,0 l/m 0,0 km/h W-NW 283 0 min 0,0 UV-I 0 W/m 4,2 C 4,8 C 0,0 km/h
29.09.2020 03:10 4,8 C 96 % 1015,1 hPa 0,0 l/m 0,0 km/h W-NW 283 0 min 0,0 UV-I 0 W/m 4,2 C 4,8 C 0,0 km/h
29.09.2020 03:09 4,8 C 96 % 1015,0 hPa 0,0 l/m 0,0 km/h W-NW 283 0 min 0,0 UV-I 0 W/m 4,2 C 4,8 C 0,0 km/h
29.09.2020 03:08 4,9 C 96 % 1015,0 hPa 0,0 l/m 0,0 km/h W-NW 283 0 min 0,0 UV-I 0 W/m 4,3 C 4,9 C 0,0 km/h
29.09.2020 03:07 4,9 C 96 % 1015,0 hPa 0,0 l/m 0,0 km/h W-NW 283 0 min 0,0 UV-I 0 W/m 4,3 C 4,9 C 0,0 km/h
29.09.2020 03:06 4,9 C 96 % 1015,0 hPa 0,0 l/m 0,0 km/h W-NW 283 0 min 0,0 UV-I 0 W/m 4,3 C 4,9 C 0,0 km/h
29.09.2020 03:05 4,9 C 96 % 1015,0 hPa 0,0 l/m 0,0 km/h W-NW 283 0 min 0,0 UV-I 0 W/m 4,3 C 4,9 C 0,0 km/h
29.09.2020 03:04 5,0 C 96 % 1015,0 hPa 0,0 l/m 0,0 km/h W-NW 283 0 min 0,0 UV-I 0 W/m 4,4 C 5,0 C 0,0 km/h
29.09.2020 03:03 5,0 C 96 % 1015,0 hPa 0,0 l/m 0,0 km/h W-NW 283 0 min 0,0 UV-I 0 W/m 4,4 C 5,0 C 0,0 km/h
29.09.2020 03:02 5,0 C 96 % 1015,0 hPa 0,0 l/m 0,0 km/h W-NW 283 0 min 0,0 UV-I 0 W/m 4,4 C 5,0 C 0,0 km/h
29.09.2020 03:01 5,1 C 96 % 1015,0 hPa 0,0 l/m 0,0 km/h W-NW 283 0 min 0,0 UV-I 0 W/m 4,5 C 5,1 C 0,0 km/h
29.09.2020 03:00 5,1 C 96 % 1015,1 hPa 0,0 l/m 0,0 km/h W-NW 283 0 min 0,0 UV-I 0 W/m 4,5 C 5,1 C 0,0 km/h
29.09.2020 02:59 5,1 C 96 % 1015,1 hPa 0,0 l/m 0,0 km/h W-NW 283 0 min 0,0 UV-I 0 W/m 4,5 C 5,1 C 0,0 km/h
29.09.2020 02:58 5,2 C 96 % 1015,0 hPa 0,0 l/m 0,0 km/h W-NW 283 0 min 0,0 UV-I 0 W/m 4,6 C 5,2 C 0,0 km/h
29.09.2020 02:57 5,2 C 96 % 1015,1 hPa 0,0 l/m 0,0 km/h W-NW 283 0 min 0,0 UV-I 0 W/m 4,6 C 5,2 C 0,0 km/h
29.09.2020 02:56 5,2 C 96 % 1015,1 hPa 0,0 l/m 0,0 km/h W-NW 283 0 min 0,0 UV-I 0 W/m 4,6 C 5,2 C 0,0 km/h
29.09.2020 02:55 5,2 C 96 % 1015,1 hPa 0,0 l/m 0,0 km/h W-NW 283 0 min 0,0 UV-I 0 W/m 4,6 C 5,2 C 0,0 km/h
29.09.2020 02:54 5,2 C 96 % 1015,1 hPa 0,0 l/m 0,0 km/h W-NW 283 0 min 0,0 UV-I 0 W/m 4,6 C 5,2 C 0,0 km/h
29.09.2020 02:53 5,2 C 96 % 1015,1 hPa 0,0 l/m 0,0 km/h W-NW 283 0 min 0,0 UV-I 0 W/m 4,6 C 5,2 C 0,0 km/h
29.09.2020 02:52 5,2 C 96 % 1015,1 hPa 0,0 l/m 0,0 km/h W-NW 283 0 min 0,0 UV-I 0 W/m 4,6 C 5,2 C 0,0 km/h
29.09.2020 02:51 5,3 C 96 % 1015,1 hPa 0,0 l/m 0,0 km/h W-NW 283 0 min 0,0 UV-I 0 W/m 4,7 C 5,3 C 0,0 km/h
29.09.2020 02:50 5,2 C 96 % 1015,2 hPa 0,0 l/m 0,0 km/h W-NW 283 0 min 0,0 UV-I 0 W/m 4,6 C 5,2 C 0,0 km/h
29.09.2020 02:49 5,2 C 96 % 1015,2 hPa 0,0 l/m 0,0 km/h W-NW 283 0 min 0,0 UV-I 0 W/m 4,6 C 5,2 C 0,0 km/h
29.09.2020 02:48 5,2 C 96 % 1015,2 hPa 0,0 l/m 0,0 km/h W-NW 283 0 min 0,0 UV-I 0 W/m 4,6 C 5,2 C 0,0 km/h
29.09.2020 02:47 5,2 C 96 % 1015,1 hPa 0,0 l/m 0,0 km/h W-NW 283 0 min 0,0 UV-I 0 W/m 4,6 C 5,2 C 0,0 km/h
29.09.2020 02:46 5,2 C 96 % 1015,2 hPa 0,0 l/m 0,0 km/h W-NW 283 0 min 0,0 UV-I 0 W/m 4,6 C 5,2 C 0,0 km/h
29.09.2020 02:45 5,1 C 96 % 1015,2 hPa 0,0 l/m 0,0 km/h W-NW 283 0 min 0,0 UV-I 0 W/m 4,5 C 5,1 C 0,0 km/h
29.09.2020 02:44 5,1 C 96 % 1015,2 hPa 0,0 l/m 0,0 km/h W-NW 283 0 min 0,0 UV-I 0 W/m 4,5 C 5,1 C 0,0 km/h
29.09.2020 02:43 5,1 C 96 % 1015,2 hPa 0,0 l/m 0,0 km/h W-NW 283 0 min 0,0 UV-I 0 W/m 4,5 C 5,1 C 0,0 km/h
29.09.2020 02:42 5,1 C 96 % 1015,2 hPa 0,0 l/m 0,0 km/h W-NW 283 0 min 0,0 UV-I 0 W/m 4,5 C 5,1 C 0,0 km/h
29.09.2020 02:41 5,1 C 96 % 1015,2 hPa 0,0 l/m 0,0 km/h W-NW 283 0 min 0,0 UV-I 0 W/m 4,5 C 5,1 C 0,0 km/h
29.09.2020 02:40 5,1 C 96 % 1015,2 hPa 0,0 l/m 0,0 km/h W-NW 283 0 min 0,0 UV-I 0 W/m 4,5 C 5,1 C 0,0 km/h
29.09.2020 02:39 5,1 C 96 % 1015,2 hPa 0,0 l/m 0,0 km/h W-NW 283 0 min 0,0 UV-I 0 W/m 4,5 C 5,1 C 0,0 km/h
29.09.2020 02:38 5,2 C 96 % 1015,2 hPa 0,0 l/m 0,0 km/h W-NW 283 0 min 0,0 UV-I 0 W/m 4,6 C 5,2 C 0,0 km/h
29.09.2020 02:37 5,2 C 96 % 1015,2 hPa 0,0 l/m 0,0 km/h W-NW 283 0 min 0,0 UV-I 0 W/m 4,6 C 5,2 C 0,0 km/h
29.09.2020 02:36 5,2 C 96 % 1015,2 hPa 0,0 l/m 0,0 km/h W-NW 283 0 min 0,0 UV-I 0 W/m 4,6 C 5,2 C 0,0 km/h
29.09.2020 02:35 5,2 C 95 % 1015,2 hPa 0,0 l/m 0,0 km/h W-NW 283 0 min 0,0 UV-I 0 W/m 4,5 C 5,2 C 0,0 km/h
29.09.2020 02:34 5,2 C 95 % 1015,2 hPa 0,0 l/m 0,0 km/h W-NW 283 0 min 0,0 UV-I 0 W/m 4,5 C 5,2 C 0,0 km/h
29.09.2020 02:33 5,2 C 95 % 1015,2 hPa 0,0 l/m 0,0 km/h W-NW 283 0 min 0,0 UV-I 0 W/m 4,5 C 5,2 C 0,0 km/h
29.09.2020 02:32 5,2 C 95 % 1015,2 hPa 0,0 l/m 0,0 km/h W-NW 283 0 min 0,0 UV-I 0 W/m 4,5 C 5,2 C 0,0 km/h
29.09.2020 02:31 5,3 C 95 % 1015,2 hPa 0,0 l/m 0,0 km/h W-NW 283 0 min 0,0 UV-I 0 W/m 4,6 C 5,3 C 0,0 km/h
29.09.2020 02:30 5,3 C 95 % 1015,2 hPa 0,0 l/m 0,0 km/h W-NW 283 0 min 0,0 UV-I 0 W/m 4,6 C 5,3 C 0,0 km/h
29.09.2020 02:29 5,3 C 95 % 1015,2 hPa 0,0 l/m 0,0 km/h W-NW 283 0 min 0,0 UV-I 0 W/m 4,6 C 5,3 C 0,0 km/h
29.09.2020 02:28 5,3 C 95 % 1015,3 hPa 0,0 l/m 0,0 km/h W-NW 283 0 min 0,0 UV-I 0 W/m 4,6 C 5,3 C 0,0 km/h
29.09.2020 02:27 5,3 C 95 % 1015,3 hPa 0,0 l/m 0,0 km/h W-NW 283 0 min 0,0 UV-I 0 W/m 4,6 C 5,3 C 0,0 km/h
29.09.2020 02:26 5,3 C 95 % 1015,3 hPa 0,0 l/m 0,0 km/h W-NW 283 0 min 0,0 UV-I 0 W/m 4,6 C 5,3 C 0,0 km/h
29.09.2020 02:25 5,3 C 95 % 1015,3 hPa 0,0 l/m 0,0 km/h W-NW 283 0 min 0,0 UV-I 0 W/m 4,6 C 5,3 C 0,0 km/h
29.09.2020 02:24 5,4 C 95 % 1015,2 hPa 0,0 l/m 0,0 km/h W-NW 283 0 min 0,0 UV-I 0 W/m 4,7 C 5,4 C 0,0 km/h
29.09.2020 02:23 5,4 C 95 % 1015,2 hPa 0,0 l/m 0,0 km/h W-NW 283 0 min 0,0 UV-I 0 W/m 4,7 C 5,4 C 0,0 km/h
29.09.2020 02:22 5,5 C 95 % 1015,2 hPa 0,0 l/m 0,0 km/h W-NW 283 0 min 0,0 UV-I 0 W/m 4,8 C 5,5 C 0,0 km/h
29.09.2020 02:21 5,4 C 95 % 1015,2 hPa 0,0 l/m 0,0 km/h W-NW 283 0 min 0,0 UV-I 0 W/m 4,7 C 5,4 C 0,0 km/h
29.09.2020 02:20 5,5 C 95 % 1015,2 hPa 0,0 l/m 0,0 km/h W-NW 283 0 min 0,0 UV-I 0 W/m 4,8 C 5,5 C 0,0 km/h
29.09.2020 02:19 5,5 C 95 % 1015,1 hPa 0,0 l/m 0,0 km/h W-NW 283 0 min 0,0 UV-I 0 W/m 4,8 C 5,5 C 0,0 km/h
29.09.2020 02:18 5,6 C 95 % 1015,1 hPa 0,0 l/m 0,0 km/h W-NW 283 0 min 0,0 UV-I 0 W/m 4,9 C 5,6 C 0,0 km/h
29.09.2020 02:17 5,6 C 95 % 1015,1 hPa 0,0 l/m 0,0 km/h W-NW 283 0 min 0,0 UV-I 0 W/m 4,9 C 5,6 C 0,0 km/h
29.09.2020 02:16 5,6 C 95 % 1015,1 hPa 0,0 l/m 0,0 km/h W-NW 283 0 min 0,0 UV-I 0 W/m 4,9 C 5,6 C 0,0 km/h
29.09.2020 02:15 5,7 C 95 % 1015,1 hPa 0,0 l/m 0,0 km/h W-NW 283 0 min 0,0 UV-I 0 W/m 5,0 C 5,7 C 0,0 km/h
29.09.2020 02:14 5,7 C 95 % 1015,1 hPa 0,0 l/m 0,0 km/h W-NW 283 0 min 0,0 UV-I 0 W/m 5,0 C 5,7 C 0,0 km/h
29.09.2020 02:13 5,7 C 95 % 1015,1 hPa 0,0 l/m 0,0 km/h W-NW 283 0 min 0,0 UV-I 0 W/m 5,0 C 5,7 C 0,0 km/h
29.09.2020 02:12 5,7 C 95 % 1015,1 hPa 0,0 l/m 0,0 km/h W-NW 283 0 min 0,0 UV-I 0 W/m 5,0 C 5,7 C 0,0 km/h
29.09.2020 02:11 5,7 C 95 % 1015,1 hPa 0,0 l/m 0,0 km/h W-NW 283 0 min 0,0 UV-I 0 W/m 5,0 C 5,7 C 0,0 km/h
29.09.2020 02:10 5,8 C 95 % 1015,1 hPa 0,0 l/m 0,0 km/h W-NW 283 0 min 0,0 UV-I 0 W/m 5,1 C 5,8 C 0,0 km/h
29.09.2020 02:09 5,8 C 95 % 1015,1 hPa 0,0 l/m 0,0 km/h W-NW 283 0 min 0,0 UV-I 0 W/m 5,1 C 5,8 C 0,0 km/h
29.09.2020 02:08 5,8 C 95 % 1015,1 hPa 0,0 l/m 0,0 km/h W-NW 283 0 min 0,0 UV-I 0 W/m 5,1 C 5,8 C 0,0 km/h
29.09.2020 02:07 5,8 C 95 % 1015,1 hPa 0,0 l/m 0,0 km/h W-NW 283 0 min 0,0 UV-I 0 W/m 5,1 C 5,8 C 0,0 km/h
29.09.2020 02:06 5,8 C 95 % 1015,1 hPa 0,0 l/m 0,0 km/h W-NW 283 0 min 0,0 UV-I 0 W/m 5,1 C 5,8 C 0,0 km/h
29.09.2020 02:05 5,9 C 95 % 1015,1 hPa 0,0 l/m 0,0 km/h W-NW 283 0 min 0,0 UV-I 0 W/m 5,2 C 5,9 C 0,0 km/h
29.09.2020 02:04 5,9 C 95 % 1015,1 hPa 0,0 l/m 0,0 km/h W-NW 283 0 min 0,0 UV-I 0 W/m 5,2 C 5,9 C 0,0 km/h
29.09.2020 02:03 5,9 C 95 % 1015,1 hPa 0,0 l/m 0,0 km/h W-NW 283 0 min 0,0 UV-I 0 W/m 5,2 C 5,9 C 0,0 km/h
29.09.2020 02:02 6,0 C 95 % 1015,1 hPa 0,0 l/m 0,0 km/h W-NW 283 0 min 0,0 UV-I 0 W/m 5,3 C 6,0 C 0,0 km/h
29.09.2020 02:01 6,0 C 95 % 1015,1 hPa 0,0 l/m 0,0 km/h W-NW 283 0 min 0,0 UV-I 0 W/m 5,3 C 6,0 C 0,0 km/h
29.09.2020 02:00 6,1 C 95 % 1015,1 hPa 0,0 l/m 0,0 km/h W-NW 283 0 min 0,0 UV-I 0 W/m 5,4 C 6,1 C 0,0 km/h
29.09.2020 01:59 6,1 C 96 % 1015,1 hPa 0,0 l/m 0,0 km/h W-NW 283 0 min 0,0 UV-I 0 W/m 5,5 C 6,1 C 0,0 km/h
29.09.2020 01:58 6,1 C 96 % 1015,1 hPa 0,0 l/m 0,0 km/h W-NW 283 0 min 0,0 UV-I 0 W/m 5,5 C 6,1 C 0,0 km/h
29.09.2020 01:57 6,2 C 96 % 1015,1 hPa 0,0 l/m 0,0 km/h W-NW 283 0 min 0,0 UV-I 0 W/m 5,6 C 6,2 C 0,0 km/h
29.09.2020 01:56 6,2 C 96 % 1015,1 hPa 0,0 l/m 0,0 km/h W-NW 283 0 min 0,0 UV-I 0 W/m 5,6 C 6,2 C 0,0 km/h
29.09.2020 01:55 6,2 C 96 % 1015,1 hPa 0,0 l/m 0,0 km/h W-NW 283 0 min 0,0 UV-I 0 W/m 5,6 C 6,2 C 0,0 km/h
29.09.2020 01:54 6,2 C 96 % 1015,1 hPa 0,0 l/m 0,0 km/h W-NW 283 0 min 0,0 UV-I 0 W/m 5,6 C 6,2 C 0,0 km/h
29.09.2020 01:53 6,2 C 96 % 1015,1 hPa 0,0 l/m 0,0 km/h W-NW 283 0 min 0,0 UV-I 0 W/m 5,6 C 6,2 C 0,0 km/h
29.09.2020 01:52 6,2 C 96 % 1015,1 hPa 0,0 l/m 0,0 km/h W-NW 283 0 min 0,0 UV-I 0 W/m 5,6 C 6,2 C 0,0 km/h
29.09.2020 01:51 6,2 C 96 % 1015,1 hPa 0,0 l/m 0,0 km/h W-NW 283 0 min 0,0 UV-I 0 W/m 5,6 C 6,2 C 0,0 km/h
29.09.2020 01:50 6,3 C 96 % 1015,1 hPa 0,0 l/m 0,0 km/h W-NW 283 0 min 0,0 UV-I 0 W/m 5,7 C 6,3 C 0,0 km/h
29.09.2020 01:49 6,3 C 96 % 1015,1 hPa 0,0 l/m 0,0 km/h W-NW 283 0 min 0,0 UV-I 0 W/m 5,7 C 6,3 C 0,0 km/h
29.09.2020 01:48 6,3 C 96 % 1015,1 hPa 0,0 l/m 0,0 km/h W-NW 283 0 min 0,0 UV-I 0 W/m 5,7 C 6,3 C 0,0 km/h
29.09.2020 01:47 6,3 C 95 % 1015,0 hPa 0,0 l/m 0,0 km/h W-NW 283 0 min 0,0 UV-I 0 W/m 5,6 C 6,3 C 0,0 km/h
29.09.2020 01:46 6,2 C 95 % 1015,1 hPa 0,0 l/m 0,0 km/h W-NW 283 0 min 0,0 UV-I 0 W/m 5,5 C 6,2 C 0,0 km/h
29.09.2020 01:45 6,3 C 95 % 1015,1 hPa 0,0 l/m 0,0 km/h W-NW 283 0 min 0,0 UV-I 0 W/m 5,6 C 6,3 C 0,0 km/h
29.09.2020 01:44 6,3 C 95 % 1015,1 hPa 0,0 l/m 0,0 km/h W-NW 283 0 min 0,0 UV-I 0 W/m 5,6 C 6,3 C 0,0 km/h
29.09.2020 01:43 6,3 C 95 % 1015,1 hPa 0,0 l/m 0,0 km/h W-NW 283 0 min 0,0 UV-I 0 W/m 5,6 C 6,3 C 0,0 km/h
29.09.2020 01:42 6,3 C 95 % 1015,1 hPa 0,0 l/m 0,0 km/h W-NW 283 0 min 0,0 UV-I 0 W/m 5,6 C 6,3 C 0,0 km/h
29.09.2020 01:41 6,4 C 95 % 1015,0 hPa 0,0 l/m 0,0 km/h W-NW 283 0 min 0,0 UV-I 0 W/m 5,7 C 6,4 C 0,0 km/h
29.09.2020 01:40 6,4 C 95 % 1015,0 hPa 0,0 l/m 0,0 km/h W-NW 283 0 min 0,0 UV-I 0 W/m 5,7 C 6,4 C 0,0 km/h
29.09.2020 01:39 6,4 C 95 % 1015,0 hPa 0,0 l/m 0,0 km/h W-NW 283 0 min 0,0 UV-I 0 W/m 5,7 C 6,4 C 0,0 km/h
29.09.2020 01:38 6,5 C 95 % 1015,0 hPa 0,0 l/m 0,0 km/h W-NW 283 0 min 0,0 UV-I 0 W/m 5,8 C 6,5 C 0,0 km/h
29.09.2020 01:37 6,5 C 95 % 1014,9 hPa 0,0 l/m 0,0 km/h W-NW 283 0 min 0,0 UV-I 0 W/m 5,8 C 6,5 C 0,0 km/h
29.09.2020 01:36 6,5 C 95 % 1014,9 hPa 0,0 l/m 0,0 km/h W-NW 283 0 min 0,0 UV-I 0 W/m 5,8 C 6,5 C 0,0 km/h
29.09.2020 01:35 6,5 C 95 % 1014,9 hPa 0,0 l/m 0,0 km/h W-NW 283 0 min 0,0 UV-I 0 W/m 5,8 C 6,5 C 0,0 km/h
29.09.2020 01:34 6,6 C 95 % 1014,9 hPa 0,0 l/m 0,0 km/h W-NW 283 0 min 0,0 UV-I 0 W/m 5,9 C 6,6 C 0,0 km/h
29.09.2020 01:33 6,6 C 95 % 1014,9 hPa 0,0 l/m 0,0 km/h W-NW 283 0 min 0,0 UV-I 0 W/m 5,9 C 6,6 C 0,0 km/h
29.09.2020 01:32 6,6 C 95 % 1014,9 hPa 0,0 l/m 0,0 km/h W-NW 283 0 min 0,0 UV-I 0 W/m 5,9 C 6,6 C 0,0 km/h
29.09.2020 01:31 6,6 C 95 % 1014,9 hPa 0,0 l/m 0,0 km/h W-NW 283 0 min 0,0 UV-I 0 W/m 5,9 C 6,6 C 0,0 km/h
29.09.2020 01:30 6,7 C 95 % 1014,9 hPa 0,0 l/m 0,0 km/h W-NW 283 0 min 0,0 UV-I 0 W/m 6,0 C 6,7 C 0,0 km/h
29.09.2020 01:29 6,7 C 95 % 1014,9 hPa 0,0 l/m 0,0 km/h W-NW 283 0 min 0,0 UV-I 0 W/m 6,0 C 6,7 C 0,0 km/h
29.09.2020 01:28 6,7 C 95 % 1014,8 hPa 0,0 l/m 0,0 km/h W-NW 283 0 min 0,0 UV-I 0 W/m 6,0 C 6,7 C 0,0 km/h
29.09.2020 01:27 6,7 C 95 % 1014,9 hPa 0,0 l/m 0,0 km/h W-NW 283 0 min 0,0 UV-I 0 W/m 6,0 C 6,7 C 0,0 km/h
29.09.2020 01:26 6,7 C 95 % 1014,9 hPa 0,0 l/m 0,0 km/h W-NW 283 0 min 0,0 UV-I 0 W/m 6,0 C 6,7 C 0,0 km/h
29.09.2020 01:25 6,8 C 95 % 1014,9 hPa 0,0 l/m 0,0 km/h W-NW 283 0 min 0,0 UV-I 0 W/m 6,1 C 6,8 C 0,0 km/h
29.09.2020 01:24 6,8 C 95 % 1014,9 hPa 0,0 l/m 0,0 km/h W-NW 283 0 min 0,0 UV-I 0 W/m 6,1 C 6,8 C 0,0 km/h
29.09.2020 01:23 6,8 C 95 % 1014,9 hPa 0,0 l/m 0,0 km/h W-NW 283 0 min 0,0 UV-I 0 W/m 6,1 C 6,8 C 0,0 km/h
29.09.2020 01:22 6,9 C 95 % 1014,8 hPa 0,0 l/m 0,0 km/h W-NW 283 0 min 0,0 UV-I 0 W/m 6,2 C 6,9 C 0,0 km/h
29.09.2020 01:21 6,9 C 95 % 1014,8 hPa 0,0 l/m 0,0 km/h W-NW 283 0 min 0,0 UV-I 0 W/m 6,2 C 6,9 C 0,0 km/h
29.09.2020 01:20 6,9 C 95 % 1014,8 hPa 0,0 l/m 0,0 km/h W-NW 283 0 min 0,0 UV-I 0 W/m 6,2 C 6,9 C 0,0 km/h
29.09.2020 01:19 7,0 C 95 % 1014,8 hPa 0,0 l/m 0,0 km/h W-NW 283 0 min 0,0 UV-I 0 W/m 6,3 C 7,0 C 0,0 km/h
29.09.2020 01:18 7,1 C 95 % 1014,7 hPa 0,0 l/m 0,0 km/h W-NW 283 0 min 0,0 UV-I 0 W/m 6,4 C 7,1 C 0,0 km/h
29.09.2020 01:17 7,1 C 95 % 1014,7 hPa 0,0 l/m 0,0 km/h W-NW 283 0 min 0,0 UV-I 0 W/m 6,4 C 7,1 C 0,0 km/h
29.09.2020 01:16 7,1 C 96 % 1014,8 hPa 0,0 l/m 0,0 km/h W-NW 283 0 min 0,0 UV-I 0 W/m 6,5 C 7,1 C 0,0 km/h
29.09.2020 01:15 7,1 C 96 % 1014,7 hPa 0,0 l/m 0,0 km/h W-NW 283 0 min 0,0 UV-I 0 W/m 6,5 C 7,1 C 0,0 km/h
29.09.2020 01:14 7,1 C 96 % 1014,7 hPa 0,0 l/m 0,0 km/h W-NW 283 0 min 0,0 UV-I 0 W/m 6,5 C 7,1 C 0,0 km/h
29.09.2020 01:13 7,2 C 95 % 1014,7 hPa 0,0 l/m 0,0 km/h W-NW 283 0 min 0,0 UV-I 0 W/m 6,5 C 7,2 C 0,0 km/h
29.09.2020 01:12 7,2 C 95 % 1014,7 hPa 0,0 l/m 0,0 km/h W-NW 283 0 min 0,0 UV-I 0 W/m 6,5 C 7,2 C 0,0 km/h
29.09.2020 01:11 7,2 C 96 % 1014,7 hPa 0,0 l/m 0,0 km/h W-NW 283 0 min 0,0 UV-I 0 W/m 6,6 C 7,2 C 0,0 km/h
29.09.2020 01:10 7,2 C 95 % 1014,8 hPa 0,0 l/m 0,0 km/h W-NW 283 0 min 0,0 UV-I 0 W/m 6,5 C 7,2 C 0,0 km/h
29.09.2020 01:09 7,3 C 96 % 1014,8 hPa 0,0 l/m 0,0 km/h W-NW 283 0 min 0,0 UV-I 0 W/m 6,7 C 7,3 C 0,0 km/h
29.09.2020 01:08 7,3 C 96 % 1014,8 hPa 0,0 l/m 0,0 km/h W-NW 283 0 min 0,0 UV-I 0 W/m 6,7 C 7,3 C 0,0 km/h
29.09.2020 01:07 7,3 C 96 % 1014,8 hPa 0,0 l/m 0,0 km/h W-NW 283 0 min 0,0 UV-I 0 W/m 6,7 C 7,3 C 0,0 km/h
29.09.2020 01:06 7,3 C 96 % 1014,8 hPa 0,0 l/m 0,0 km/h W-NW 283 0 min 0,0 UV-I 0 W/m 6,7 C 7,3 C 0,0 km/h
29.09.2020 01:05 7,3 C 96 % 1014,9 hPa 0,0 l/m 0,0 km/h W-NW 283 0 min 0,0 UV-I 0 W/m 6,7 C 7,3 C 0,0 km/h
29.09.2020 01:04 7,4 C 96 % 1014,8 hPa 0,0 l/m 0,0 km/h W-NW 283 0 min 0,0 UV-I 0 W/m 6,8 C 7,4 C 0,0 km/h
29.09.2020 01:03 7,4 C 96 % 1014,9 hPa 0,0 l/m 0,0 km/h W-NW 283 0 min 0,0 UV-I 0 W/m 6,8 C 7,4 C 0,0 km/h
29.09.2020 01:02 7,4 C 96 % 1014,9 hPa 0,0 l/m 0,0 km/h W-NW 283 0 min 0,0 UV-I 0 W/m 6,8 C 7,4 C 0,0 km/h
29.09.2020 01:01 7,4 C 96 % 1014,8 hPa 0,0 l/m 0,0 km/h W-NW 283 0 min 0,0 UV-I 0 W/m 6,8 C 7,4 C 0,0 km/h
29.09.2020 01:00 7,4 C 96 % 1014,9 hPa 0,0 l/m 0,0 km/h W-NW 283 0 min 0,0 UV-I 0 W/m 6,8 C 7,4 C 0,0 km/h
29.09.2020 00:59 7,4 C 96 % 1014,9 hPa 0,0 l/m 0,0 km/h W-NW 283 0 min 0,0 UV-I 0 W/m 6,8 C 7,4 C 0,0 km/h
29.09.2020 00:58 7,5 C 96 % 1014,9 hPa 0,0 l/m 0,0 km/h W-NW 283 0 min 0,0 UV-I 0 W/m 6,9 C 7,5 C 0,0 km/h
29.09.2020 00:57 7,5 C 96 % 1014,9 hPa 0,0 l/m 0,0 km/h W-NW 283 0 min 0,0 UV-I 0 W/m 6,9 C 7,5 C 0,0 km/h
29.09.2020 00:56 7,5 C 96 % 1014,9 hPa 0,0 l/m 0,0 km/h W-NW 283 0 min 0,0 UV-I 0 W/m 6,9 C 7,5 C 0,0 km/h
29.09.2020 00:55 7,5 C 96 % 1014,8 hPa 0,0 l/m 0,0 km/h W-NW 283 0 min 0,0 UV-I 0 W/m 6,9 C 7,5 C 0,0 km/h
29.09.2020 00:54 7,5 C 96 % 1014,7 hPa 0,0 l/m 0,0 km/h W-NW 283 0 min 0,0 UV-I 0 W/m 6,9 C 7,5 C 0,0 km/h
29.09.2020 00:53 7,5 C 96 % 1014,8 hPa 0,0 l/m 0,0 km/h W-NW 283 0 min 0,0 UV-I 0 W/m 6,9 C 7,5 C 0,0 km/h
29.09.2020 00:52 7,5 C 96 % 1014,8 hPa 0,0 l/m 0,0 km/h W-NW 283 0 min 0,0 UV-I 0 W/m 6,9 C 7,5 C 0,0 km/h
29.09.2020 00:51 7,6 C 96 % 1014,7 hPa 0,0 l/m 0,0 km/h W-NW 283 0 min 0,0 UV-I 0 W/m 7,0 C 7,6 C 0,0 km/h
29.09.2020 00:50 7,6 C 96 % 1014,7 hPa 0,0 l/m 0,0 km/h W-NW 283 0 min 0,0 UV-I 0 W/m 7,0 C 7,6 C 0,0 km/h
29.09.2020 00:49 7,6 C 96 % 1014,7 hPa 0,0 l/m 0,0 km/h W-NW 283 0 min 0,0 UV-I 0 W/m 7,0 C 7,6 C 0,0 km/h
29.09.2020 00:48 7,6 C 96 % 1014,8 hPa 0,0 l/m 0,0 km/h W-NW 283 0 min 0,0 UV-I 0 W/m 7,0 C 7,6 C 0,0 km/h
29.09.2020 00:47 7,5 C 96 % 1014,7 hPa 0,0 l/m 0,0 km/h W-NW 283 0 min 0,0 UV-I 0 W/m 6,9 C 7,5 C 0,0 km/h
29.09.2020 00:46 7,6 C 96 % 1014,7 hPa 0,0 l/m 0,0 km/h W-NW 283 0 min 0,0 UV-I 0 W/m 7,0 C 7,6 C 0,0 km/h
29.09.2020 00:45 7,6 C 96 % 1014,7 hPa 0,0 l/m 0,0 km/h W-NW 283 0 min 0,0 UV-I 0 W/m 7,0 C 7,6 C 0,0 km/h
29.09.2020 00:44 7,6 C 96 % 1014,7 hPa 0,0 l/m 0,0 km/h W-NW 283 0 min 0,0 UV-I 0 W/m 7,0 C 7,6 C 0,0 km/h
29.09.2020 00:43 7,6 C 96 % 1014,7 hPa 0,0 l/m 0,0 km/h W-NW 283 0 min 0,0 UV-I 0 W/m 7,0 C 7,6 C 0,0 km/h
29.09.2020 00:42 7,6 C 96 % 1014,7 hPa 0,0 l/m 0,0 km/h W-NW 283 0 min 0,0 UV-I 0 W/m 7,0 C 7,6 C 0,0 km/h
29.09.2020 00:41 7,6 C 96 % 1014,7 hPa 0,0 l/m 0,0 km/h W-NW 283 0 min 0,0 UV-I 0 W/m 7,0 C 7,6 C 0,0 km/h
29.09.2020 00:40 7,6 C 96 % 1014,7 hPa 0,0 l/m 0,0 km/h W-NW 283 0 min 0,0 UV-I 0 W/m 7,0 C 7,6 C 0,0 km/h
29.09.2020 00:39 7,6 C 96 % 1014,7 hPa 0,0 l/m 0,0 km/h W-NW 283 0 min 0,0 UV-I 0 W/m 7,0 C 7,6 C 0,0 km/h
29.09.2020 00:38 7,6 C 96 % 1014,7 hPa 0,0 l/m 0,0 km/h W-NW 283 0 min 0,0 UV-I 0 W/m 7,0 C 7,6 C 0,0 km/h
29.09.2020 00:37 7,6 C 96 % 1014,7 hPa 0,0 l/m 0,0 km/h W-NW 283 0 min 0,0 UV-I 0 W/m 7,0 C 7,6 C 0,0 km/h
29.09.2020 00:36 7,6 C 96 % 1014,7 hPa 0,0 l/m 0,0 km/h W-NW 283 0 min 0,0 UV-I 0 W/m 7,0 C 7,6 C 0,0 km/h
29.09.2020 00:35 7,6 C 96 % 1014,8 hPa 0,0 l/m 0,0 km/h W-NW 283 0 min 0,0 UV-I 0 W/m 7,0 C 7,6 C 0,0 km/h
29.09.2020 00:34 7,7 C 96 % 1014,8 hPa 0,0 l/m 0,0 km/h W-NW 283 0 min 0,0 UV-I 0 W/m 7,1 C 7,7 C 0,0 km/h
29.09.2020 00:33 7,7 C 96 % 1014,7 hPa 0,0 l/m 0,0 km/h W-NW 283 0 min 0,0 UV-I 0 W/m 7,1 C 7,7 C 0,0 km/h
29.09.2020 00:32 7,7 C 96 % 1014,7 hPa 0,0 l/m 0,0 km/h W-NW 283 0 min 0,0 UV-I 0 W/m 7,1 C 7,7 C 0,0 km/h
29.09.2020 00:31 7,7 C 96 % 1014,7 hPa 0,0 l/m 0,0 km/h W-NW 283 0 min 0,0 UV-I 0 W/m 7,1 C 7,7 C 0,0 km/h
29.09.2020 00:30 7,7 C 96 % 1014,7 hPa 0,0 l/m 0,0 km/h W-NW 283 0 min 0,0 UV-I 0 W/m 7,1 C 7,7 C 0,0 km/h
29.09.2020 00:29 7,7 C 95 % 1014,7 hPa 0,0 l/m 0,0 km/h W-NW 283 0 min 0,0 UV-I 0 W/m 7,0 C 7,7 C 0,0 km/h
29.09.2020 00:28 7,7 C 95 % 1014,7 hPa 0,0 l/m 0,0 km/h W-NW 283 0 min 0,0 UV-I 0 W/m 7,0 C 7,7 C 0,0 km/h
29.09.2020 00:27 7,7 C 96 % 1014,7 hPa 0,0 l/m 0,0 km/h W-NW 283 0 min 0,0 UV-I 0 W/m 7,1 C 7,7 C 0,0 km/h
29.09.2020 00:26 7,8 C 96 % 1014,7 hPa 0,0 l/m 0,0 km/h W-NW 283 0 min 0,0 UV-I 0 W/m 7,2 C 7,8 C 0,0 km/h
29.09.2020 00:25 7,8 C 96 % 1014,6 hPa 0,0 l/m 0,0 km/h W-NW 283 0 min 0,0 UV-I 0 W/m 7,2 C 7,8 C 0,0 km/h
29.09.2020 00:24 7,8 C 96 % 1014,7 hPa 0,0 l/m 0,0 km/h W-NW 283 0 min 0,0 UV-I 0 W/m 7,2 C 7,8 C 0,0 km/h
29.09.2020 00:23 7,8 C 96 % 1014,7 hPa 0,0 l/m 0,0 km/h W-NW 283 0 min 0,0 UV-I 0 W/m 7,2 C 7,8 C 0,0 km/h
29.09.2020 00:22 7,8 C 96 % 1014,7 hPa 0,0 l/m 0,0 km/h W-NW 283 0 min 0,0 UV-I 0 W/m 7,2 C 7,8 C 0,0 km/h
29.09.2020 00:21 7,8 C 96 % 1014,7 hPa 0,0 l/m 0,0 km/h W-NW 283 0 min 0,0 UV-I 0 W/m 7,2 C 7,8 C 0,0 km/h
29.09.2020 00:20 7,8 C 96 % 1014,7 hPa 0,0 l/m 0,0 km/h W-NW 283 0 min 0,0 UV-I 0 W/m 7,2 C 7,8 C 0,0 km/h
29.09.2020 00:19 7,8 C 96 % 1014,6 hPa 0,0 l/m 0,0 km/h W-NW 283 0 min 0,0 UV-I 0 W/m 7,2 C 7,8 C 0,0 km/h
29.09.2020 00:18 7,8 C 96 % 1014,6 hPa 0,0 l/m 0,0 km/h W-NW 283 0 min 0,0 UV-I 0 W/m 7,2 C 7,8 C 0,0 km/h
29.09.2020 00:17 7,8 C 96 % 1014,6 hPa 0,0 l/m 0,0 km/h W-NW 283 0 min 0,0 UV-I 0 W/m 7,2 C 7,8 C 0,0 km/h
29.09.2020 00:16 7,8 C 96 % 1014,6 hPa 0,0 l/m 0,0 km/h W-NW 283 0 min 0,0 UV-I 0 W/m 7,2 C 7,8 C 0,0 km/h
29.09.2020 00:15 7,8 C 96 % 1014,6 hPa 0,0 l/m 0,0 km/h W-NW 283 0 min 0,0 UV-I 0 W/m 7,2 C 7,8 C 0,0 km/h
29.09.2020 00:14 7,8 C 96 % 1014,6 hPa 0,0 l/m 0,0 km/h W-NW 283 0 min 0,0 UV-I 0 W/m 7,2 C 7,8 C 0,0 km/h
29.09.2020 00:13 7,8 C 96 % 1014,6 hPa 0,0 l/m 0,0 km/h W-NW 283 0 min 0,0 UV-I 0 W/m 7,2 C 7,8 C 0,0 km/h
29.09.2020 00:12 7,8 C 96 % 1014,6 hPa 0,0 l/m 0,0 km/h W-NW 283 0 min 0,0 UV-I 0 W/m 7,2 C 7,8 C 0,0 km/h
29.09.2020 00:11 7,7 C 96 % 1014,7 hPa 0,0 l/m 0,0 km/h W-NW 283 0 min 0,0 UV-I 0 W/m 7,1 C 7,7 C 0,0 km/h
29.09.2020 00:10 7,8 C 96 % 1014,7 hPa 0,0 l/m 0,0 km/h W-NW 283 0 min 0,0 UV-I 0 W/m 7,2 C 7,8 C 0,0 km/h
29.09.2020 00:09 7,8 C 95 % 1014,6 hPa 0,0 l/m 0,0 km/h W-NW 283 0 min 0,0 UV-I 0 W/m 7,0 C 7,8 C 0,0 km/h
29.09.2020 00:08 7,8 C 96 % 1014,7 hPa 0,0 l/m 0,0 km/h W-NW 283 0 min 0,0 UV-I 0 W/m 7,2 C 7,8 C 0,0 km/h
29.09.2020 00:07 7,8 C 96 % 1014,7 hPa 0,0 l/m 0,0 km/h W-NW 283 0 min 0,0 UV-I 0 W/m 7,2 C 7,8 C 0,0 km/h
29.09.2020 00:06 7,8 C 96 % 1014,6 hPa 0,0 l/m 0,0 km/h W-NW 283 0 min 0,0 UV-I 0 W/m 7,2 C 7,8 C 0,0 km/h
29.09.2020 00:05 7,8 C 96 % 1014,7 hPa 0,0 l/m 0,0 km/h W-NW 283 0 min 0,0 UV-I 0 W/m 7,2 C 7,8 C 0,0 km/h
29.09.2020 00:04 7,8 C 96 % 1014,7 hPa 0,0 l/m 0,0 km/h W-NW 283 0 min 0,0 UV-I 0 W/m 7,2 C 7,8 C 0,0 km/h
29.09.2020 00:03 7,8 C 96 % 1014,7 hPa 0,0 l/m 0,0 km/h W-NW 283 0 min 0,0 UV-I 0 W/m 7,2 C 7,8 C 0,0 km/h
29.09.2020 00:02 7,8 C 96 % 1014,7 hPa 0,0 l/m 0,0 km/h W-NW 283 0 min 0,0 UV-I 0 W/m 7,2 C 7,8 C 0,0 km/h
29.09.2020 00:01 7,8 C 96 % 1014,7 hPa 0,0 l/m 0,0 km/h W-NW 283 0 min 0,0 UV-I 0 W/m 7,2 C 7,8 C 0,0 km/h
29.09.2020 00:00 7,7 C 96 % 1014,8 hPa 0,0 l/m 0,0 km/h W-NW 283 0 min 0,0 UV-I 0 W/m 7,1 C 7,7 C 0,0 km/h
28.09.2020 23:59 7,8 C 96 % 1014,7 hPa 0,0 l/m 0,0 km/h W-NW 283 0 min 0,0 UV-I 0 W/m 7,2 C 7,8 C 0,0 km/h
28.09.2020 23:58 7,8 C 95 % 1014,7 hPa 0,0 l/m 0,0 km/h W-NW 283 0 min 0,0 UV-I 0 W/m 7,0 C 7,8 C 0,0 km/h
28.09.2020 23:57 7,8 C 95 % 1014,7 hPa 0,0 l/m 0,0 km/h W-NW 283 0 min 0,0 UV-I 0 W/m 7,0 C 7,8 C 0,0 km/h
28.09.2020 23:56 7,8 C 95 % 1014,7 hPa 0,0 l/m 0,0 km/h W-NW 283 0 min 0,0 UV-I 0 W/m 7,0 C 7,8 C 0,0 km/h
28.09.2020 23:55 7,8 C 95 % 1014,7 hPa 0,0 l/m 0,0 km/h W-NW 283 0 min 0,0 UV-I 0 W/m 7,0 C 7,8 C 0,0 km/h
28.09.2020 23:54 7,8 C 95 % 1014,7 hPa 0,0 l/m 0,0 km/h W-NW 283 0 min 0,0 UV-I 0 W/m 7,0 C 7,8 C 0,0 km/h
28.09.2020 23:53 7,8 C 95 % 1014,7 hPa 0,0 l/m 0,0 km/h W-NW 283 0 min 0,0 UV-I 0 W/m 7,0 C 7,8 C 0,0 km/h
28.09.2020 23:52 7,8 C 95 % 1014,7 hPa 0,0 l/m 0,0 km/h W-NW 283 0 min 0,0 UV-I 0 W/m 7,0 C 7,8 C 0,0 km/h
28.09.2020 23:51 7,8 C 95 % 1014,7 hPa 0,0 l/m 0,0 km/h W-NW 283 0 min 0,0 UV-I 0 W/m 7,0 C 7,8 C 0,0 km/h
28.09.2020 23:50 7,8 C 95 % 1014,7 hPa 0,0 l/m 0,0 km/h W-NW 283 0 min 0,0 UV-I 0 W/m 7,0 C 7,8 C 0,0 km/h
28.09.2020 23:49 7,8 C 95 % 1014,7 hPa 0,0 l/m 0,0 km/h W-NW 283 0 min 0,0 UV-I 0 W/m 7,0 C 7,8 C 0,0 km/h
28.09.2020 23:48 7,9 C 95 % 1014,7 hPa 0,0 l/m 0,0 km/h W-NW 283 0 min 0,0 UV-I 0 W/m 7,1 C 7,9 C 0,0 km/h
28.09.2020 23:47 7,8 C 95 % 1014,6 hPa 0,0 l/m 0,0 km/h W-NW 283 0 min 0,0 UV-I 0 W/m 7,0 C 7,8 C 0,0 km/h
28.09.2020 23:46 7,8 C 95 % 1014,6 hPa 0,0 l/m 0,0 km/h W-NW 283 0 min 0,0 UV-I 0 W/m 7,0 C 7,8 C 0,0 km/h
28.09.2020 23:45 7,8 C 95 % 1014,6 hPa 0,0 l/m 0,0 km/h W-NW 283 0 min 0,0 UV-I 0 W/m 7,0 C 7,8 C 0,0 km/h
28.09.2020 23:44 7,9 C 95 % 1014,6 hPa 0,0 l/m 0,0 km/h W-NW 283 0 min 0,0 UV-I 0 W/m 7,1 C 7,9 C 0,0 km/h
28.09.2020 23:43 7,9 C 95 % 1014,6 hPa 0,0 l/m 0,0 km/h W-NW 283 0 min 0,0 UV-I 0 W/m 7,1 C 7,9 C 0,0 km/h
28.09.2020 23:42 7,9 C 95 % 1014,6 hPa 0,0 l/m 0,0 km/h W-NW 283 0 min 0,0 UV-I 0 W/m 7,1 C 7,9 C 0,0 km/h
28.09.2020 23:41 7,9 C 95 % 1014,6 hPa 0,0 l/m 0,0 km/h W-NW 283 0 min 0,0 UV-I 0 W/m 7,1 C 7,9 C 0,0 km/h
28.09.2020 23:40 7,9 C 95 % 1014,6 hPa 0,0 l/m 0,0 km/h W-NW 283 0 min 0,0 UV-I 0 W/m 7,1 C 7,9 C 0,0 km/h
28.09.2020 23:39 7,9 C 95 % 1014,6 hPa 0,0 l/m 0,0 km/h W-NW 283 0 min 0,0 UV-I 0 W/m 7,1 C 7,9 C 0,0 km/h
28.09.2020 23:38 7,9 C 95 % 1014,6 hPa 0,0 l/m 0,0 km/h W-NW 283 0 min 0,0 UV-I 0 W/m 7,1 C 7,9 C 0,0 km/h
28.09.2020 23:37 7,9 C 95 % 1014,5 hPa 0,0 l/m 0,0 km/h W-NW 283 0 min 0,0 UV-I 0 W/m 7,1 C 7,9 C 0,0 km/h
28.09.2020 23:36 7,9 C 95 % 1014,6 hPa 0,0 l/m 0,0 km/h W-NW 283 0 min 0,0 UV-I 0 W/m 7,1 C 7,9 C 0,0 km/h
28.09.2020 23:35 7,9 C 95 % 1014,6 hPa 0,0 l/m 0,0 km/h W-NW 283 0 min 0,0 UV-I 0 W/m 7,1 C 7,9 C 0,0 km/h
28.09.2020 23:34 8,0 C 95 % 1014,6 hPa 0,0 l/m 0,0 km/h W-NW 283 0 min 0,0 UV-I 0 W/m 7,2 C 8,0 C 0,0 km/h
28.09.2020 23:33 8,0 C 95 % 1014,6 hPa 0,0 l/m 0,0 km/h W-NW 283 0 min 0,0 UV-I 0 W/m 7,2 C 8,0 C 0,0 km/h
28.09.2020 23:32 8,0 C 95 % 1014,6 hPa 0,0 l/m 0,0 km/h W-NW 283 0 min 0,0 UV-I 0 W/m 7,2 C 8,0 C 0,0 km/h
28.09.2020 23:31 8,0 C 95 % 1014,6 hPa 0,0 l/m 0,0 km/h W-NW 283 0 min 0,0 UV-I 0 W/m 7,2 C 8,0 C 0,0 km/h
28.09.2020 23:30 8,1 C 95 % 1014,5 hPa 0,0 l/m 0,0 km/h W-NW 283 0 min 0,0 UV-I 0 W/m 7,3 C 8,1 C 0,0 km/h
28.09.2020 23:29 8,1 C 95 % 1014,5 hPa 0,0 l/m 0,0 km/h W-NW 283 0 min 0,0 UV-I 0 W/m 7,3 C 8,1 C 0,0 km/h
28.09.2020 23:28 8,1 C 95 % 1014,5 hPa 0,0 l/m 0,0 km/h W-NW 283 0 min 0,0 UV-I 0 W/m 7,3 C 8,1 C 0,0 km/h
28.09.2020 23:27 8,1 C 95 % 1014,5 hPa 0,0 l/m 0,0 km/h W-NW 283 0 min 0,0 UV-I 0 W/m 7,3 C 8,1 C 0,0 km/h
28.09.2020 23:26 8,1 C 95 % 1014,5 hPa 0,0 l/m 0,0 km/h W-NW 283 0 min 0,0 UV-I 0 W/m 7,3 C 8,1 C 0,0 km/h
28.09.2020 23:25 8,1 C 95 % 1014,5 hPa 0,0 l/m 0,0 km/h W-NW 283 0 min 0,0 UV-I 0 W/m 7,3 C 8,1 C 0,0 km/h
28.09.2020 23:24 8,1 C 95 % 1014,5 hPa 0,0 l/m 0,0 km/h W-NW 283 0 min 0,0 UV-I 0 W/m 7,3 C 8,1 C 0,0 km/h
28.09.2020 23:23 8,1 C 95 % 1014,5 hPa 0,0 l/m 0,0 km/h W-NW 283 0 min 0,0 UV-I 0 W/m 7,3 C 8,1 C 0,0 km/h
28.09.2020 23:22 8,1 C 95 % 1014,5 hPa 0,0 l/m 0,0 km/h W-NW 283 0 min 0,0 UV-I 0 W/m 7,3 C 8,1 C 0,0 km/h
28.09.2020 23:21 8,2 C 95 % 1014,5 hPa 0,0 l/m 0,0 km/h W-NW 283 0 min 0,0 UV-I 0 W/m 7,4 C 8,2 C 0,0 km/h
28.09.2020 23:20 8,2 C 95 % 1014,5 hPa 0,0 l/m 0,0 km/h W-NW 283 0 min 0,0 UV-I 0 W/m 7,4 C 8,2 C 0,0 km/h
28.09.2020 23:19 8,2 C 95 % 1014,5 hPa 0,0 l/m 0,0 km/h W-NW 283 0 min 0,0 UV-I 0 W/m 7,4 C 8,2 C 0,0 km/h
28.09.2020 23:18 8,2 C 95 % 1014,4 hPa 0,0 l/m 0,0 km/h W-NW 283 0 min 0,0 UV-I 0 W/m 7,4 C 8,2 C 0,0 km/h
28.09.2020 23:17 8,2 C 95 % 1014,5 hPa 0,0 l/m 0,0 km/h W-NW 283 0 min 0,0 UV-I 0 W/m 7,4 C 8,2 C 0,0 km/h
28.09.2020 23:16 8,2 C 95 % 1014,5 hPa 0,0 l/m 0,0 km/h W-NW 283 0 min 0,0 UV-I 0 W/m 7,4 C 8,2 C 0,0 km/h
28.09.2020 23:15 8,2 C 95 % 1014,4 hPa 0,0 l/m 0,0 km/h W-NW 283 0 min 0,0 UV-I 0 W/m 7,4 C 8,2 C 0,0 km/h
28.09.2020 23:14 8,3 C 95 % 1014,4 hPa 0,0 l/m 0,0 km/h W-NW 283 0 min 0,0 UV-I 0 W/m 7,5 C 8,3 C 0,0 km/h
28.09.2020 23:13 8,3 C 95 % 1014,4 hPa 0,0 l/m 0,0 km/h W-NW 283 0 min 0,0 UV-I 0 W/m 7,5 C 8,3 C 0,0 km/h
28.09.2020 23:12 8,3 C 95 % 1014,4 hPa 0,0 l/m 0,0 km/h W-NW 283 0 min 0,0 UV-I 0 W/m 7,5 C 8,3 C 0,0 km/h
28.09.2020 23:11 8,3 C 95 % 1014,5 hPa 0,0 l/m 0,0 km/h W-NW 283 0 min 0,0 UV-I 0 W/m 7,5 C 8,3 C 0,0 km/h
28.09.2020 23:10 8,3 C 95 % 1014,4 hPa 0,0 l/m 0,0 km/h W-NW 283 0 min 0,0 UV-I 0 W/m 7,5 C 8,3 C 0,0 km/h
28.09.2020 23:09 8,3 C 95 % 1014,4 hPa 0,0 l/m 0,0 km/h W-NW 283 0 min 0,0 UV-I 0 W/m 7,5 C 8,3 C 0,0 km/h
28.09.2020 23:08 8,3 C 95 % 1014,4 hPa 0,0 l/m 0,0 km/h W-NW 283 0 min 0,0 UV-I 0 W/m 7,5 C 8,3 C 0,0 km/h
28.09.2020 23:07 8,4 C 95 % 1014,4 hPa 0,0 l/m 0,0 km/h W-NW 283 0 min 0,0 UV-I 0 W/m 7,6 C 8,4 C 0,0 km/h
28.09.2020 23:06 8,4 C 95 % 1014,4 hPa 0,0 l/m 0,0 km/h W-NW 283 0 min 0,0 UV-I 0 W/m 7,6 C 8,4 C 0,0 km/h
28.09.2020 23:05 8,4 C 95 % 1014,4 hPa 0,0 l/m 0,0 km/h W-NW 283 0 min 0,0 UV-I 0 W/m 7,6 C 8,4 C 0,0 km/h
28.09.2020 23:04 8,4 C 95 % 1014,4 hPa 0,0 l/m 0,0 km/h W-NW 283 0 min 0,0 UV-I 0 W/m 7,6 C 8,4 C 0,0 km/h
28.09.2020 23:03 8,5 C 95 % 1014,4 hPa 0,0 l/m 0,0 km/h W-NW 283 0 min 0,0 UV-I 0 W/m 7,7 C 8,5 C 0,0 km/h
28.09.2020 23:02 8,5 C 95 % 1014,4 hPa 0,0 l/m 0,0 km/h W-NW 283 0 min 0,0 UV-I 0 W/m 7,7 C 8,5 C 0,0 km/h
28.09.2020 23:01 8,5 C 95 % 1014,3 hPa 0,0 l/m 0,0 km/h W-NW 283 0 min 0,0 UV-I 0 W/m 7,7 C 8,5 C 0,0 km/h
28.09.2020 23:00 8,6 C 95 % 1014,3 hPa 0,0 l/m 0,0 km/h W-NW 283 0 min 0,0 UV-I 0 W/m 7,8 C 8,6 C 0,0 km/h
28.09.2020 22:59 8,6 C 95 % 1014,3 hPa 0,0 l/m 0,0 km/h W-NW 283 0 min 0,0 UV-I 0 W/m 7,8 C 8,6 C 0,0 km/h
28.09.2020 22:58 8,6 C 95 % 1014,3 hPa 0,0 l/m 0,0 km/h W-NW 283 0 min 0,0 UV-I 0 W/m 7,8 C 8,6 C 0,0 km/h
28.09.2020 22:57 8,6 C 95 % 1014,3 hPa 0,0 l/m 0,0 km/h W-NW 283 0 min 0,0 UV-I 0 W/m 7,8 C 8,6 C 0,0 km/h
28.09.2020 22:56 8,6 C 95 % 1014,3 hPa 0,0 l/m 0,0 km/h W-NW 283 0 min 0,0 UV-I 0 W/m 7,8 C 8,6 C 0,0 km/h
28.09.2020 22:55 8,6 C 95 % 1014,3 hPa 0,0 l/m 0,0 km/h W-NW 283 0 min 0,0 UV-I 0 W/m 7,8 C 8,6 C 0,0 km/h
28.09.2020 22:54 8,6 C 95 % 1014,2 hPa 0,0 l/m 0,0 km/h W-NW 283 0 min 0,0 UV-I 0 W/m 7,8 C 8,6 C 0,0 km/h
28.09.2020 22:53 8,6 C 95 % 1014,3 hPa 0,0 l/m 0,0 km/h W-NW 283 0 min 0,0 UV-I 0 W/m 7,8 C 8,6 C 0,0 km/h
28.09.2020 22:52 8,6 C 95 % 1014,3 hPa 0,0 l/m 0,0 km/h W-NW 283 0 min 0,0 UV-I 0 W/m 7,8 C 8,6 C 0,0 km/h
28.09.2020 22:51 8,6 C 95 % 1014,2 hPa 0,0 l/m 0,0 km/h W-NW 283 0 min 0,0 UV-I 0 W/m 7,8 C 8,6 C 0,0 km/h
28.09.2020 22:50 8,5 C 95 % 1014,3 hPa 0,0 l/m 0,0 km/h W-NW 283 0 min 0,0 UV-I 0 W/m 7,7 C 8,5 C 0,0 km/h
28.09.2020 22:49 8,5 C 95 % 1014,3 hPa 0,0 l/m 0,0 km/h W-NW 283 0 min 0,0 UV-I 0 W/m 7,7 C 8,5 C 0,0 km/h
28.09.2020 22:48 8,5 C 95 % 1014,3 hPa 0,0 l/m 0,0 km/h W-NW 283 0 min 0,0 UV-I 0 W/m 7,7 C 8,5 C 0,0 km/h
28.09.2020 22:47 8,5 C 95 % 1014,3 hPa 0,0 l/m 0,0 km/h W-NW 283 0 min 0,0 UV-I 0 W/m 7,7 C 8,5 C 0,0 km/h
28.09.2020 22:46 8,5 C 94 % 1014,3 hPa 0,0 l/m 0,0 km/h W-NW 283 0 min 0,0 UV-I 0 W/m 7,6 C 8,5 C 0,0 km/h
28.09.2020 22:45 8,6 C 94 % 1014,3 hPa 0,0 l/m 0,0 km/h W-NW 283 0 min 0,0 UV-I 0 W/m 7,7 C 8,6 C 0,0 km/h
28.09.2020 22:44 8,6 C 94 % 1014,3 hPa 0,0 l/m 0,0 km/h W-NW 283 0 min 0,0 UV-I 0 W/m 7,7 C 8,6 C 0,0 km/h
28.09.2020 22:43 8,6 C 95 % 1014,3 hPa 0,0 l/m 0,0 km/h W-NW 283 0 min 0,0 UV-I 0 W/m 7,8 C 8,6 C 0,0 km/h
28.09.2020 22:42 8,6 C 95 % 1014,3 hPa 0,0 l/m 0,0 km/h W-NW 283 0 min 0,0 UV-I 0 W/m 7,8 C 8,6 C 0,0 km/h
28.09.2020 22:41 8,6 C 95 % 1014,2 hPa 0,0 l/m 0,0 km/h W-NW 283 0 min 0,0 UV-I 0 W/m 7,8 C 8,6 C 0,0 km/h
28.09.2020 22:40 8,6 C 94 % 1014,2 hPa 0,0 l/m 0,0 km/h W-NW 283 0 min 0,0 UV-I 0 W/m 7,7 C 8,6 C 0,0 km/h
28.09.2020 22:39 8,6 C 94 % 1014,2 hPa 0,0 l/m 0,0 km/h W-NW 283 0 min 0,0 UV-I 0 W/m 7,7 C 8,6 C 0,0 km/h
28.09.2020 22:38 8,6 C 94 % 1014,2 hPa 0,0 l/m 0,0 km/h W-NW 283 0 min 0,0 UV-I 0 W/m 7,7 C 8,6 C 0,0 km/h
28.09.2020 22:37 8,7 C 94 % 1014,2 hPa 0,0 l/m 0,0 km/h W-NW 283 0 min 0,0 UV-I 0 W/m 7,8 C 8,7 C 0,0 km/h
28.09.2020 22:36 8,7 C 94 % 1014,2 hPa 0,0 l/m 0,0 km/h W-NW 283 0 min 0,0 UV-I 0 W/m 7,8 C 8,7 C 0,0 km/h
28.09.2020 22:35 8,7 C 94 % 1014,2 hPa 0,0 l/m 0,0 km/h W-NW 283 0 min 0,0 UV-I 0 W/m 7,8 C 8,7 C 0,0 km/h
28.09.2020 22:34 8,7 C 94 % 1014,2 hPa 0,0 l/m 0,0 km/h W-NW 283 0 min 0,0 UV-I 0 W/m 7,8 C 8,7 C 0,0 km/h
28.09.2020 22:33 8,7 C 94 % 1014,2 hPa 0,0 l/m 0,0 km/h W-NW 283 0 min 0,0 UV-I 0 W/m 7,8 C 8,7 C 0,0 km/h
28.09.2020 22:32 8,7 C 94 % 1014,2 hPa 0,0 l/m 0,0 km/h W-NW 283 0 min 0,0 UV-I 0 W/m 7,8 C 8,7 C 0,0 km/h
28.09.2020 22:31 8,7 C 94 % 1014,2 hPa 0,0 l/m 0,0 km/h W-NW 283 0 min 0,0 UV-I 0 W/m 7,8 C 8,7 C 0,0 km/h
28.09.2020 22:30 8,7 C 94 % 1014,2 hPa 0,0 l/m 0,0 km/h W-NW 283 0 min 0,0 UV-I 0 W/m 7,8 C 8,7 C 0,0 km/h
28.09.2020 22:29 8,8 C 94 % 1014,2 hPa 0,0 l/m 0,0 km/h W-NW 283 0 min 0,0 UV-I 0 W/m 7,9 C 8,8 C 0,0 km/h
28.09.2020 22:28 8,8 C 94 % 1014,2 hPa 0,0 l/m 0,0 km/h W-NW 283 0 min 0,0 UV-I 0 W/m 7,9 C 8,8 C 0,0 km/h
28.09.2020 22:27 8,8 C 94 % 1014,2 hPa 0,0 l/m 0,0 km/h W-NW 283 0 min 0,0 UV-I 0 W/m 7,9 C 8,8 C 0,0 km/h
28.09.2020 22:26 8,8 C 94 % 1014,2 hPa 0,0 l/m 0,0 km/h W-NW 283 0 min 0,0 UV-I 0 W/m 7,9 C 8,8 C 0,0 km/h
28.09.2020 22:25 8,8 C 94 % 1014,2 hPa 0,0 l/m 0,0 km/h W-NW 283 0 min 0,0 UV-I 0 W/m 7,9 C 8,8 C 0,0 km/h
28.09.2020 22:24 8,8 C 94 % 1014,2 hPa 0,0 l/m 0,0 km/h W-NW 283 0 min 0,0 UV-I 0 W/m 7,9 C 8,8 C 0,0 km/h
28.09.2020 22:23 8,8 C 94 % 1014,2 hPa 0,0 l/m 0,0 km/h W-NW 283 0 min 0,0 UV-I 0 W/m 7,9 C 8,8 C 0,0 km/h
28.09.2020 22:22 8,8 C 94 % 1014,2 hPa 0,0 l/m 0,0 km/h W-NW 283 0 min 0,0 UV-I 0 W/m 7,9 C 8,8 C 0,0 km/h
28.09.2020 22:21 8,8 C 95 % 1014,2 hPa 0,0 l/m 0,0 km/h W-NW 283 0 min 0,0 UV-I 0 W/m 8,0 C 8,8 C 0,0 km/h
28.09.2020 22:20 8,8 C 94 % 1014,2 hPa 0,0 l/m 0,0 km/h W-NW 283 0 min 0,0 UV-I 0 W/m 7,9 C 8,8 C 0,0 km/h
28.09.2020 22:19 8,9 C 94 % 1014,1 hPa 0,0 l/m 0,0 km/h W-NW 283 0 min 0,0 UV-I 0 W/m 8,0 C 8,9 C 0,0 km/h
28.09.2020 22:18 8,8 C 94 % 1014,2 hPa 0,0 l/m 0,0 km/h W-NW 283 0 min 0,0 UV-I 0 W/m 7,9 C 8,8 C 0,0 km/h
28.09.2020 22:17 8,8 C 94 % 1014,2 hPa 0,0 l/m 0,0 km/h W-NW 283 0 min 0,0 UV-I 0 W/m 7,9 C 8,8 C 0,0 km/h
28.09.2020 22:16 8,9 C 94 % 1014,2 hPa 0,0 l/m 0,0 km/h W-NW 283 0 min 0,0 UV-I 0 W/m 8,0 C 8,9 C 0,0 km/h
28.09.2020 22:15 8,9 C 94 % 1014,2 hPa 0,0 l/m 0,0 km/h W-NW 283 0 min 0,0 UV-I 0 W/m 8,0 C 8,9 C 0,0 km/h
28.09.2020 22:14 8,9 C 94 % 1014,1 hPa 0,0 l/m 0,0 km/h W-NW 283 0 min 0,0 UV-I 0 W/m 8,0 C 8,9 C 0,0 km/h
28.09.2020 22:13 8,9 C 94 % 1014,2 hPa 0,0 l/m 0,0 km/h W-NW 283 0 min 0,0 UV-I 0 W/m 8,0 C 8,9 C 0,0 km/h
28.09.2020 22:12 8,9 C 94 % 1014,2 hPa 0,0 l/m 0,0 km/h W-NW 283 0 min 0,0 UV-I 0 W/m 8,0 C 8,9 C 0,0 km/h
28.09.2020 22:11 8,9 C 94 % 1014,2 hPa 0,0 l/m 0,0 km/h W-NW 283 0 min 0,0 UV-I 0 W/m 8,0 C 8,9 C 0,0 km/h
28.09.2020 22:10 8,9 C 94 % 1014,1 hPa 0,0 l/m 0,0 km/h W-NW 283 0 min 0,0 UV-I 0 W/m 8,0 C 8,9 C 0,0 km/h
28.09.2020 22:09 8,9 C 94 % 1014,1 hPa 0,0 l/m 0,0 km/h W-NW 283 0 min 0,0 UV-I 0 W/m 8,0 C 8,9 C 0,0 km/h
28.09.2020 22:08 8,9 C 94 % 1014,2 hPa 0,0 l/m 0,0 km/h W-NW 283 0 min 0,0 UV-I 0 W/m 8,0 C 8,9 C 0,0 km/h
28.09.2020 22:07 8,9 C 94 % 1014,1 hPa 0,0 l/m 0,0 km/h W-NW 283 0 min 0,0 UV-I 0 W/m 8,0 C 8,9 C 0,0 km/h
28.09.2020 22:06 9,0 C 94 % 1014,1 hPa 0,0 l/m 0,0 km/h W-NW 283 0 min 0,0 UV-I 0 W/m 8,1 C 9,0 C 0,0 km/h
28.09.2020 22:05 9,1 C 94 % 1014,1 hPa 0,0 l/m 0,0 km/h W-NW 283 0 min 0,0 UV-I 0 W/m 8,2 C 9,1 C 0,0 km/h
28.09.2020 22:04 9,0 C 94 % 1014,1 hPa 0,0 l/m 0,0 km/h W-NW 283 0 min 0,0 UV-I 0 W/m 8,1 C 9,0 C 0,0 km/h
28.09.2020 22:03 9,1 C 94 % 1014,1 hPa 0,0 l/m 0,0 km/h W-NW 283 0 min 0,0 UV-I 0 W/m 8,2 C 9,1 C 0,0 km/h
28.09.2020 22:02 9,1 C 94 % 1014,1 hPa 0,0 l/m 0,0 km/h W-NW 283 0 min 0,0 UV-I 0 W/m 8,2 C 9,1 C 0,0 km/h
28.09.2020 22:01 9,1 C 94 % 1014,1 hPa 0,0 l/m 0,0 km/h W-NW 283 0 min 0,0 UV-I 0 W/m 8,2 C 9,1 C 0,0 km/h
28.09.2020 22:00 9,1 C 94 % 1014,1 hPa 0,0 l/m 0,0 km/h W-NW 283 0 min 0,0 UV-I 0 W/m 8,2 C 9,1 C 0,0 km/h
28.09.2020 21:59 9,1 C 94 % 1014,1 hPa 0,0 l/m 0,0 km/h W-NW 283 0 min 0,0 UV-I 0 W/m 8,2 C 9,1 C 0,0 km/h
28.09.2020 21:58 9,1 C 94 % 1014,1 hPa 0,0 l/m 0,0 km/h W-NW 283 0 min 0,0 UV-I 0 W/m 8,2 C 9,1 C 0,0 km/h
28.09.2020 21:57 9,1 C 94 % 1014,0 hPa 0,0 l/m 0,0 km/h W-NW 283 0 min 0,0 UV-I 0 W/m 8,2 C 9,1 C 0,0 km/h
28.09.2020 21:56 9,1 C 94 % 1014,0 hPa 0,0 l/m 0,0 km/h W-NW 283 0 min 0,0 UV-I 0 W/m 8,2 C 9,1 C 0,0 km/h
28.09.2020 21:55 9,1 C 94 % 1014,0 hPa 0,0 l/m 0,0 km/h W-NW 283 0 min 0,0 UV-I 0 W/m 8,2 C 9,1 C 0,0 km/h
28.09.2020 21:54 9,1 C 94 % 1014,0 hPa 0,0 l/m 0,0 km/h W-NW 283 0 min 0,0 UV-I 0 W/m 8,2 C 9,1 C 0,0 km/h
28.09.2020 21:53 9,1 C 94 % 1014,0 hPa 0,0 l/m 0,0 km/h W-NW 283 0 min 0,0 UV-I 0 W/m 8,2 C 9,1 C 0,0 km/h
28.09.2020 21:52 9,1 C 94 % 1014,0 hPa 0,0 l/m 0,0 km/h W-NW 283 0 min 0,0 UV-I 0 W/m 8,2 C 9,1 C 0,0 km/h
28.09.2020 21:51 9,1 C 94 % 1014,0 hPa 0,0 l/m 0,0 km/h W-NW 283 0 min 0,0 UV-I 0 W/m 8,2 C 9,1 C 0,0 km/h
28.09.2020 21:50 9,1 C 94 % 1014,0 hPa 0,0 l/m 0,0 km/h W-NW 283 0 min 0,0 UV-I 0 W/m 8,2 C 9,1 C 0,0 km/h
28.09.2020 21:49 9,1 C 94 % 1013,9 hPa 0,0 l/m 0,0 km/h W-NW 283 0 min 0,0 UV-I 0 W/m 8,2 C 9,1 C 0,0 km/h
28.09.2020 21:48 9,1 C 94 % 1014,0 hPa 0,0 l/m 0,0 km/h W-NW 283 0 min 0,0 UV-I 0 W/m 8,2 C 9,1 C 0,0 km/h
28.09.2020 21:47 9,1 C 94 % 1013,9 hPa 0,0 l/m 0,0 km/h W-NW 283 0 min 0,0 UV-I 0 W/m 8,2 C 9,1 C 0,0 km/h
28.09.2020 21:46 9,1 C 94 % 1013,9 hPa 0,0 l/m 0,0 km/h W-NW 283 0 min 0,0 UV-I 0 W/m 8,2 C 9,1 C 0,0 km/h
28.09.2020 21:45 9,1 C 94 % 1013,9 hPa 0,0 l/m 0,0 km/h W-NW 283 0 min 0,0 UV-I 0 W/m 8,2 C 9,1 C 0,0 km/h
28.09.2020 21:44 9,1 C 94 % 1013,9 hPa 0,0 l/m 0,0 km/h W-NW 283 0 min 0,0 UV-I 0 W/m 8,2 C 9,1 C 0,0 km/h
28.09.2020 21:43 9,1 C 94 % 1013,9 hPa 0,0 l/m 0,0 km/h W-NW 283 0 min 0,0 UV-I 0 W/m 8,2 C 9,1 C 0,0 km/h
28.09.2020 21:42 9,1 C 94 % 1013,9 hPa 0,0 l/m 0,0 km/h W-NW 283 0 min 0,0 UV-I 0 W/m 8,2 C 9,1 C 0,0 km/h
28.09.2020 21:41 9,1 C 94 % 1013,9 hPa 0,0 l/m 0,0 km/h W-NW 283 0 min 0,0 UV-I 0 W/m 8,2 C 9,1 C 0,0 km/h
28.09.2020 21:40 9,1 C 94 % 1013,9 hPa 0,0 l/m 0,0 km/h W-NW 283 0 min 0,0 UV-I 0 W/m 8,2 C 9,1 C 0,0 km/h
28.09.2020 21:39 9,1 C 94 % 1013,9 hPa 0,0 l/m 0,0 km/h W-NW 283 0 min 0,0 UV-I 0 W/m 8,2 C 9,1 C 0,0 km/h
28.09.2020 21:38 9,1 C 94 % 1013,9 hPa 0,0 l/m 0,0 km/h W-NW 283 0 min 0,0 UV-I 0 W/m 8,2 C 9,1 C 0,0 km/h
28.09.2020 21:37 9,1 C 94 % 1013,8 hPa 0,0 l/m 0,0 km/h W-NW 283 0 min 0,0 UV-I 0 W/m 8,2 C 9,1 C 0,0 km/h
28.09.2020 21:36 9,1 C 94 % 1013,8 hPa 0,0 l/m 0,0 km/h W-NW 283 0 min 0,0 UV-I 0 W/m 8,2 C 9,1 C 0,0 km/h
28.09.2020 21:35 9,2 C 94 % 1013,8 hPa 0,0 l/m 0,0 km/h W-NW 283 0 min 0,0 UV-I 0 W/m 8,3 C 9,2 C 0,0 km/h
28.09.2020 21:34 9,1 C 94 % 1013,8 hPa 0,0 l/m 0,0 km/h W-NW 283 0 min 0,0 UV-I 0 W/m 8,2 C 9,1 C 0,0 km/h
28.09.2020 21:33 9,1 C 94 % 1013,8 hPa 0,0 l/m 0,0 km/h W-NW 283 0 min 0,0 UV-I 0 W/m 8,2 C 9,1 C 0,0 km/h
28.09.2020 21:32 9,2 C 94 % 1013,7 hPa 0,0 l/m 0,0 km/h W-NW 283 0 min 0,0 UV-I 0 W/m 8,3 C 9,2 C 0,0 km/h
28.09.2020 21:31 9,2 C 94 % 1013,7 hPa 0,0 l/m 0,0 km/h W-NW 283 0 min 0,0 UV-I 0 W/m 8,3 C 9,2 C 0,0 km/h
28.09.2020 21:30 9,2 C 94 % 1013,7 hPa 0,0 l/m 0,0 km/h W-NW 283 0 min 0,0 UV-I 0 W/m 8,3 C 9,2 C 0,0 km/h
28.09.2020 21:29 9,2 C 94 % 1013,7 hPa 0,0 l/m 0,0 km/h W-NW 283 0 min 0,0 UV-I 0 W/m 8,3 C 9,2 C 0,0 km/h
28.09.2020 21:28 9,2 C 94 % 1013,7 hPa 0,0 l/m 0,0 km/h W-NW 283 0 min 0,0 UV-I 0 W/m 8,3 C 9,2 C 0,0 km/h
28.09.2020 21:27 9,2 C 94 % 1013,7 hPa 0,0 l/m 0,0 km/h W-NW 283 0 min 0,0 UV-I 0 W/m 8,3 C 9,2 C 0,0 km/h
28.09.2020 21:26 9,2 C 94 % 1013,7 hPa 0,0 l/m 0,0 km/h W-NW 283 0 min 0,0 UV-I 0 W/m 8,3 C 9,2 C 0,0 km/h
28.09.2020 21:25 9,2 C 94 % 1013,7 hPa 0,0 l/m 0,0 km/h W-NW 283 0 min 0,0 UV-I 0 W/m 8,3 C 9,2 C 0,0 km/h
28.09.2020 21:24 9,2 C 94 % 1013,7 hPa 0,0 l/m 0,0 km/h W-NW 283 0 min 0,0 UV-I 0 W/m 8,3 C 9,2 C 0,0 km/h
28.09.2020 21:23 9,2 C 94 % 1013,7 hPa 0,0 l/m 0,0 km/h W-NW 283 0 min 0,0 UV-I 0 W/m 8,3 C 9,2 C 0,0 km/h
28.09.2020 21:22 9,2 C 94 % 1013,7 hPa 0,0 l/m 0,0 km/h W-NW 283 0 min 0,0 UV-I 0 W/m 8,3 C 9,2 C 0,0 km/h
28.09.2020 21:21 9,3 C 94 % 1013,7 hPa 0,0 l/m 0,0 km/h W-NW 283 0 min 0,0 UV-I 0 W/m 8,4 C 9,3 C 0,0 km/h
28.09.2020 21:20 9,2 C 94 % 1013,7 hPa 0,0 l/m 0,0 km/h W-NW 283 0 min 0,0 UV-I 0 W/m 8,3 C 9,2 C 0,0 km/h
28.09.2020 21:19 9,3 C 94 % 1013,7 hPa 0,0 l/m 0,0 km/h W-NW 283 0 min 0,0 UV-I 0 W/m 8,4 C 9,3 C 0,0 km/h
28.09.2020 21:18 9,3 C 94 % 1013,7 hPa 0,0 l/m 0,0 km/h W-NW 283 0 min 0,0 UV-I 0 W/m 8,4 C 9,3 C 0,0 km/h
28.09.2020 21:17 9,3 C 94 % 1013,7 hPa 0,0 l/m 0,0 km/h W-NW 283 0 min 0,0 UV-I 0 W/m 8,4 C 9,3 C 0,0 km/h
28.09.2020 21:16 9,3 C 94 % 1013,7 hPa 0,0 l/m 0,0 km/h W-NW 283 0 min 0,0 UV-I 0 W/m 8,4 C 9,3 C 0,0 km/h
28.09.2020 21:15 9,3 C 94 % 1013,6 hPa 0,0 l/m 0,0 km/h W-NW 283 0 min 0,0 UV-I 0 W/m 8,4 C 9,3 C 0,0 km/h
28.09.2020 21:14 9,3 C 94 % 1013,6 hPa 0,0 l/m 0,0 km/h W-NW 283 0 min 0,0 UV-I 0 W/m 8,4 C 9,3 C 0,0 km/h
28.09.2020 21:13 9,3 C 94 % 1013,6 hPa 0,0 l/m 0,0 km/h W-NW 283 0 min 0,0 UV-I 0 W/m 8,4 C 9,3 C 0,0 km/h
28.09.2020 21:12 9,3 C 94 % 1013,6 hPa 0,0 l/m 0,0 km/h W-NW 283 0 min 0,0 UV-I 0 W/m 8,4 C 9,3 C 0,0 km/h
28.09.2020 21:11 9,3 C 94 % 1013,6 hPa 0,0 l/m 0,0 km/h W-NW 283 0 min 0,0 UV-I 0 W/m 8,4 C 9,3 C 0,0 km/h
28.09.2020 21:10 9,3 C 94 % 1013,6 hPa 0,0 l/m 0,0 km/h W-NW 283 0 min 0,0 UV-I 0 W/m 8,4 C 9,3 C 0,0 km/h
28.09.2020 21:09 9,3 C 94 % 1013,5 hPa 0,0 l/m 0,0 km/h W-NW 283 0 min 0,0 UV-I 0 W/m 8,4 C 9,3 C 0,0 km/h
28.09.2020 21:08 9,3 C 94 % 1013,6 hPa 0,0 l/m 0,0 km/h W-NW 283 0 min 0,0 UV-I 0 W/m 8,4 C 9,3 C 0,0 km/h
28.09.2020 21:07 9,3 C 94 % 1013,6 hPa 0,0 l/m 0,0 km/h W-NW 283 0 min 0,0 UV-I 0 W/m 8,4 C 9,3 C 0,0 km/h
28.09.2020 21:06 9,3 C 94 % 1013,6 hPa 0,0 l/m 0,0 km/h W-NW 283 0 min 0,0 UV-I 0 W/m 8,4 C 9,3 C 0,0 km/h
28.09.2020 21:05 9,3 C 94 % 1013,6 hPa 0,0 l/m 0,0 km/h W-NW 283 0 min 0,0 UV-I 0 W/m 8,4 C 9,3 C 0,0 km/h
28.09.2020 21:04 9,3 C 94 % 1013,6 hPa 0,0 l/m 0,0 km/h W-NW 283 0 min 0,0 UV-I 0 W/m 8,4 C 9,3 C 0,0 km/h
28.09.2020 21:03 9,3 C 94 % 1013,6 hPa 0,0 l/m 0,0 km/h W-NW 283 0 min 0,0 UV-I 0 W/m 8,4 C 9,3 C 0,0 km/h
28.09.2020 21:02 9,3 C 94 % 1013,6 hPa 0,0 l/m 0,0 km/h W-NW 283 0 min 0,0 UV-I 0 W/m 8,4 C 9,3 C 0,0 km/h
28.09.2020 21:01 9,3 C 94 % 1013,5 hPa 0,0 l/m 0,0 km/h W-NW 283 0 min 0,0 UV-I 0 W/m 8,4 C 9,3 C 0,0 km/h
28.09.2020 21:00 9,4 C 93 % 1013,6 hPa 0,0 l/m 0,0 km/h W-NW 283 0 min 0,0 UV-I 0 W/m 8,3 C 9,4 C 0,0 km/h
28.09.2020 20:59 9,3 C 93 % 1013,5 hPa 0,0 l/m 0,0 km/h W-NW 283 0 min 0,0 UV-I 0 W/m 8,2 C 9,3 C 0,0 km/h
28.09.2020 20:58 9,3 C 93 % 1013,5 hPa 0,0 l/m 0,0 km/h W-NW 283 0 min 0,0 UV-I 0 W/m 8,2 C 9,3 C 0,0 km/h
28.09.2020 20:57 9,4 C 93 % 1013,5 hPa 0,0 l/m 0,0 km/h W-NW 283 0 min 0,0 UV-I 0 W/m 8,3 C 9,4 C 0,0 km/h
28.09.2020 20:56 9,3 C 93 % 1013,5 hPa 0,0 l/m 0,0 km/h W-NW 283 0 min 0,0 UV-I 0 W/m 8,2 C 9,3 C 0,0 km/h
28.09.2020 20:55 9,4 C 93 % 1013,5 hPa 0,0 l/m 0,0 km/h W-NW 283 0 min 0,0 UV-I 0 W/m 8,3 C 9,4 C 0,0 km/h
28.09.2020 20:54 9,4 C 93 % 1013,5 hPa 0,0 l/m 0,0 km/h W-NW 283 0 min 0,0 UV-I 0 W/m 8,3 C 9,4 C 0,0 km/h
28.09.2020 20:53 9,4 C 93 % 1013,5 hPa 0,0 l/m 0,0 km/h W-NW 283 0 min 0,0 UV-I 0 W/m 8,3 C 9,4 C 0,0 km/h
28.09.2020 20:52 9,4 C 93 % 1013,5 hPa 0,0 l/m 0,0 km/h W-NW 283 0 min 0,0 UV-I 0 W/m 8,3 C 9,4 C 0,0 km/h
28.09.2020 20:51 9,4 C 93 % 1013,5 hPa 0,0 l/m 0,0 km/h W-NW 283 0 min 0,0 UV-I 0 W/m 8,3 C 9,4 C 0,0 km/h
28.09.2020 20:50 9,4 C 93 % 1013,5 hPa 0,0 l/m 0,0 km/h W-NW 283 0 min 0,0 UV-I 0 W/m 8,3 C 9,4 C 0,0 km/h
28.09.2020 20:49 9,4 C 93 % 1013,5 hPa 0,0 l/m 0,0 km/h W-NW 283 0 min 0,0 UV-I 0 W/m 8,3 C 9,4 C 0,0 km/h
28.09.2020 20:48 9,4 C 93 % 1013,5 hPa 0,0 l/m 0,0 km/h W-NW 283 0 min 0,0 UV-I 0 W/m 8,3 C 9,4 C 0,0 km/h
28.09.2020 20:47 9,4 C 93 % 1013,5 hPa 0,0 l/m 0,0 km/h W-NW 283 0 min 0,0 UV-I 0 W/m 8,3 C 9,4 C 0,0 km/h
28.09.2020 20:46 9,4 C 93 % 1013,5 hPa 0,0 l/m 0,0 km/h W-NW 283 0 min 0,0 UV-I 0 W/m 8,3 C 9,4 C 0,0 km/h
28.09.2020 20:45 9,4 C 93 % 1013,5 hPa 0,0 l/m 0,0 km/h W-NW 283 0 min 0,0 UV-I 0 W/m 8,3 C 9,4 C 0,0 km/h
28.09.2020 20:44 9,4 C 93 % 1013,5 hPa 0,0 l/m 0,0 km/h W-NW 283 0 min 0,0 UV-I 0 W/m 8,3 C 9,4 C 0,0 km/h
28.09.2020 20:43 9,4 C 93 % 1013,4 hPa 0,0 l/m 0,0 km/h W-NW 283 0 min 0,0 UV-I 0 W/m 8,3 C 9,4 C 0,0 km/h
28.09.2020 20:42 9,5 C 93 % 1013,4 hPa 0,0 l/m 0,0 km/h W-NW 283 0 min 0,0 UV-I 0 W/m 8,4 C 9,5 C 0,0 km/h
28.09.2020 20:41 9,5 C 93 % 1013,4 hPa 0,0 l/m 0,0 km/h W-NW 283 0 min 0,0 UV-I 0 W/m 8,4 C 9,5 C 0,0 km/h
28.09.2020 20:40 9,6 C 93 % 1013,4 hPa 0,0 l/m 0,0 km/h W-NW 283 0 min 0,0 UV-I 0 W/m 8,5 C 9,6 C 0,0 km/h
28.09.2020 20:39 9,6 C 93 % 1013,4 hPa 0,0 l/m 0,0 km/h W-NW 283 0 min 0,0 UV-I 0 W/m 8,5 C 9,6 C 0,0 km/h
28.09.2020 20:38 9,6 C 93 % 1013,4 hPa 0,0 l/m 0,0 km/h W-NW 283 0 min 0,0 UV-I 0 W/m 8,5 C 9,6 C 0,0 km/h
28.09.2020 20:37 9,6 C 93 % 1013,4 hPa 0,0 l/m 0,0 km/h W-NW 283 0 min 0,0 UV-I 0 W/m 8,5 C 9,6 C 0,0 km/h
28.09.2020 20:36 9,6 C 93 % 1013,4 hPa 0,0 l/m 0,0 km/h W-NW 283 0 min 0,0 UV-I 0 W/m 8,5 C 9,6 C 0,0 km/h
28.09.2020 20:35 9,6 C 93 % 1013,4 hPa 0,0 l/m 0,0 km/h W-NW 283 0 min 0,0 UV-I 0 W/m 8,5 C 9,6 C 0,0 km/h
28.09.2020 20:34 9,6 C 93 % 1013,4 hPa 0,0 l/m 0,0 km/h W-NW 283 0 min 0,0 UV-I 0 W/m 8,5 C 9,6 C 0,0 km/h
28.09.2020 20:33 9,6 C 93 % 1013,4 hPa 0,0 l/m 0,0 km/h W-NW 283 0 min 0,0 UV-I 0 W/m 8,5 C 9,6 C 0,0 km/h
28.09.2020 20:32 9,6 C 93 % 1013,3 hPa 0,0 l/m 0,0 km/h W-NW 283 0 min 0,0 UV-I 0 W/m 8,5 C 9,6 C 0,0 km/h
28.09.2020 20:31 9,6 C 93 % 1013,3 hPa 0,0 l/m 0,0 km/h W-NW 283 0 min 0,0 UV-I 0 W/m 8,5 C 9,6 C 0,0 km/h
28.09.2020 20:30 9,6 C 93 % 1013,3 hPa 0,0 l/m 0,0 km/h W-NW 283 0 min 0,0 UV-I 0 W/m 8,5 C 9,6 C 0,0 km/h
28.09.2020 20:29 9,6 C 93 % 1013,3 hPa 0,0 l/m 0,0 km/h W-NW 283 0 min 0,0 UV-I 0 W/m 8,5 C 9,6 C 0,0 km/h
28.09.2020 20:28 9,6 C 93 % 1013,3 hPa 0,0 l/m 0,0 km/h W-NW 283 0 min 0,0 UV-I 0 W/m 8,5 C 9,6 C 0,0 km/h
28.09.2020 20:27 9,6 C 93 % 1013,3 hPa 0,0 l/m 0,0 km/h W-NW 283 0 min 0,0 UV-I 0 W/m 8,5 C 9,6 C 0,0 km/h
28.09.2020 20:26 9,6 C 93 % 1013,2 hPa 0,0 l/m 0,0 km/h W-NW 283 0 min 0,0 UV-I 0 W/m 8,5 C 9,6 C 0,0 km/h
28.09.2020 20:25 9,7 C 93 % 1013,2 hPa 0,0 l/m 0,0 km/h W-NW 283 0 min 0,0 UV-I 0 W/m 8,6 C 9,7 C 0,0 km/h
28.09.2020 20:24 9,7 C 93 % 1013,2 hPa 0,0 l/m 0,0 km/h W-NW 283 0 min 0,0 UV-I 0 W/m 8,6 C 9,7 C 0,0 km/h
28.09.2020 20:23 9,7 C 93 % 1013,2 hPa 0,0 l/m 0,0 km/h W-NW 283 0 min 0,0 UV-I 0 W/m 8,6 C 9,7 C 0,0 km/h
28.09.2020 20:22 9,7 C 93 % 1013,2 hPa 0,0 l/m 0,0 km/h W-NW 283 0 min 0,0 UV-I 0 W/m 8,6 C 9,7 C 0,0 km/h
28.09.2020 20:21 9,7 C 93 % 1013,2 hPa 0,0 l/m 0,0 km/h W-NW 283 0 min 0,0 UV-I 0 W/m 8,6 C 9,7 C 0,0 km/h
28.09.2020 20:20 9,7 C 93 % 1013,2 hPa 0,0 l/m 0,0 km/h W-NW 283 0 min 0,0 UV-I 0 W/m 8,6 C 9,7 C 0,0 km/h
28.09.2020 20:19 9,6 C 93 % 1013,1 hPa 0,0 l/m 0,0 km/h W-NW 283 0 min 0,0 UV-I 0 W/m 8,5 C 9,6 C 0,0 km/h
28.09.2020 20:18 9,7 C 93 % 1013,1 hPa 0,0 l/m 0,0 km/h W-NW 283 0 min 0,0 UV-I 0 W/m 8,6 C 9,7 C 0,0 km/h
28.09.2020 20:17 9,7 C 92 % 1013,1 hPa 0,0 l/m 0,0 km/h W-NW 283 0 min 0,0 UV-I 0 W/m 8,5 C 9,7 C 0,0 km/h
28.09.2020 20:16 9,7 C 92 % 1013,1 hPa 0,0 l/m 0,0 km/h W-NW 283 0 min 0,0 UV-I 0 W/m 8,5 C 9,7 C 0,0 km/h
28.09.2020 20:15 9,7 C 93 % 1013,0 hPa 0,0 l/m 0,0 km/h W-NW 283 0 min 0,0 UV-I 0 W/m 8,6 C 9,7 C 0,0 km/h
28.09.2020 20:14 9,7 C 93 % 1013,1 hPa 0,0 l/m 0,0 km/h W-NW 283 0 min 0,0 UV-I 0 W/m 8,6 C 9,7 C 0,0 km/h
28.09.2020 20:13 9,7 C 93 % 1013,1 hPa 0,0 l/m 0,0 km/h W-NW 283 0 min 0,0 UV-I 0 W/m 8,6 C 9,7 C 0,0 km/h
28.09.2020 20:12 9,7 C 93 % 1013,1 hPa 0,0 l/m 0,0 km/h W-NW 283 0 min 0,0 UV-I 0 W/m 8,6 C 9,7 C 0,0 km/h
28.09.2020 20:11 9,7 C 92 % 1013,0 hPa 0,0 l/m 0,0 km/h W-NW 283 0 min 0,0 UV-I 0 W/m 8,5 C 9,7 C 0,0 km/h
28.09.2020 20:10 9,7 C 92 % 1013,0 hPa 0,0 l/m 0,0 km/h W-NW 283 0 min 0,0 UV-I 0 W/m 8,5 C 9,7 C 0,0 km/h
28.09.2020 20:09 9,7 C 92 % 1013,0 hPa 0,0 l/m 0,0 km/h W-NW 283 0 min 0,0 UV-I 0 W/m 8,5 C 9,7 C 0,0 km/h
28.09.2020 20:08 9,7 C 92 % 1013,0 hPa 0,0 l/m 0,0 km/h W-NW 283 0 min 0,0 UV-I 0 W/m 8,5 C 9,7 C 0,0 km/h
28.09.2020 20:07 9,8 C 92 % 1013,0 hPa 0,0 l/m 0,0 km/h W-NW 283 0 min 0,0 UV-I 0 W/m 8,6 C 9,8 C 0,0 km/h
28.09.2020 20:06 9,8 C 92 % 1013,0 hPa 0,0 l/m 0,0 km/h W-NW 283 0 min 0,0 UV-I 0 W/m 8,6 C 9,8 C 0,0 km/h
28.09.2020 20:05 9,8 C 92 % 1012,9 hPa 0,0 l/m 0,0 km/h W-NW 283 0 min 0,0 UV-I 0 W/m 8,6 C 9,8 C 0,0 km/h
28.09.2020 20:04 9,8 C 92 % 1013,0 hPa 0,0 l/m 0,0 km/h W-NW 283 0 min 0,0 UV-I 0 W/m 8,6 C 9,8 C 0,0 km/h
28.09.2020 20:03 9,8 C 92 % 1012,9 hPa 0,0 l/m 0,0 km/h W-NW 283 0 min 0,0 UV-I 0 W/m 8,6 C 9,8 C 0,0 km/h
28.09.2020 20:02 9,8 C 91 % 1012,9 hPa 0,0 l/m 0,0 km/h W-NW 283 0 min 0,0 UV-I 0 W/m 8,4 C 9,8 C 0,0 km/h
28.09.2020 20:01 9,9 C 91 % 1012,9 hPa 0,0 l/m 0,0 km/h W-NW 283 0 min 0,0 UV-I 0 W/m 8,5 C 9,9 C 0,0 km/h
28.09.2020 20:00 9,9 C 91 % 1012,9 hPa 0,0 l/m 0,0 km/h W-NW 283 0 min 0,0 UV-I 0 W/m 8,5 C 9,9 C 0,0 km/h
28.09.2020 19:59 9,9 C 91 % 1012,9 hPa 0,0 l/m 0,0 km/h W-NW 283 0 min 0,0 UV-I 0 W/m 8,5 C 9,9 C 0,0 km/h
28.09.2020 19:58 9,9 C 91 % 1012,8 hPa 0,0 l/m 0,0 km/h W-NW 283 0 min 0,0 UV-I 0 W/m 8,5 C 9,9 C 0,0 km/h
28.09.2020 19:57 9,9 C 91 % 1012,8 hPa 0,0 l/m 0,0 km/h W-NW 283 0 min 0,0 UV-I 0 W/m 8,5 C 9,9 C 0,0 km/h
28.09.2020 19:56 10,0 C 91 % 1012,8 hPa 0,0 l/m 0,0 km/h W-NW 283 0 min 0,0 UV-I 0 W/m 8,6 C 10,0 C 0,0 km/h
28.09.2020 19:55 10,0 C 91 % 1012,8 hPa 0,0 l/m 0,0 km/h W-NW 283 0 min 0,0 UV-I 0 W/m 8,6 C 10,0 C 0,0 km/h
28.09.2020 19:54 10,1 C 91 % 1012,8 hPa 0,0 l/m 0,0 km/h W-NW 283 0 min 0,0 UV-I 0 W/m 8,7 C 10,1 C 0,0 km/h
28.09.2020 19:53 10,1 C 91 % 1012,8 hPa 0,0 l/m 0,0 km/h W-NW 283 0 min 0,0 UV-I 0 W/m 8,7 C 10,1 C 0,0 km/h
28.09.2020 19:52 10,1 C 91 % 1012,8 hPa 0,0 l/m 0,0 km/h W-NW 283 0 min 0,0 UV-I 0 W/m 8,7 C 10,1 C 0,0 km/h
28.09.2020 19:51 10,2 C 91 % 1012,8 hPa 0,0 l/m 0,0 km/h W-NW 283 0 min 0,0 UV-I 0 W/m 8,8 C 10,2 C 0,0 km/h
28.09.2020 19:50 10,2 C 91 % 1012,8 hPa 0,0 l/m 0,0 km/h W-NW 283 0 min 0,0 UV-I 0 W/m 8,8 C 10,2 C 0,0 km/h
28.09.2020 19:49 10,2 C 91 % 1012,8 hPa 0,0 l/m 0,0 km/h W-NW 283 0 min 0,0 UV-I 0 W/m 8,8 C 10,2 C 0,0 km/h
28.09.2020 19:48 10,2 C 91 % 1012,8 hPa 0,0 l/m 0,0 km/h W-NW 283 0 min 0,0 UV-I 0 W/m 8,8 C 10,2 C 0,0 km/h
28.09.2020 19:47 10,2 C 90 % 1012,7 hPa 0,0 l/m 0,0 km/h W-NW 283 0 min 0,0 UV-I 0 W/m 8,6 C 10,2 C 0,0 km/h
28.09.2020 19:46 10,2 C 91 % 1012,7 hPa 0,0 l/m 0,0 km/h W-NW 283 0 min 0,0 UV-I 0 W/m 8,8 C 10,2 C 0,0 km/h
28.09.2020 19:45 10,3 C 91 % 1012,7 hPa 0,0 l/m 0,0 km/h W-NW 283 0 min 0,0 UV-I 0 W/m 8,9 C 10,3 C 0,0 km/h
28.09.2020 19:44 10,3 C 91 % 1012,7 hPa 0,0 l/m 0,0 km/h W-NW 283 0 min 0,0 UV-I 0 W/m 8,9 C 10,3 C 0,0 km/h
28.09.2020 19:43 10,3 C 91 % 1012,7 hPa 0,0 l/m 0,0 km/h W-NW 283 0 min 0,0 UV-I 0 W/m 8,9 C 10,3 C 0,0 km/h
28.09.2020 19:42 10,3 C 90 % 1012,7 hPa 0,0 l/m 0,0 km/h W-NW 283 0 min 0,0 UV-I 0 W/m 8,7 C 10,3 C 0,0 km/h
28.09.2020 19:41 10,3 C 90 % 1012,6 hPa 0,0 l/m 0,0 km/h W-NW 283 0 min 0,0 UV-I 0 W/m 8,7 C 10,3 C 0,0 km/h
28.09.2020 19:40 10,4 C 90 % 1012,6 hPa 0,0 l/m 0,0 km/h W-NW 283 0 min 0,0 UV-I 0 W/m 8,8 C 10,4 C 0,0 km/h
28.09.2020 19:39 10,4 C 90 % 1012,6 hPa 0,0 l/m 0,0 km/h W-NW 283 0 min 0,0 UV-I 0 W/m 8,8 C 10,4 C 0,0 km/h
28.09.2020 19:38 10,4 C 90 % 1012,6 hPa 0,0 l/m 0,0 km/h W-NW 283 0 min 0,0 UV-I 0 W/m 8,8 C 10,4 C 0,0 km/h
28.09.2020 19:37 10,5 C 90 % 1012,6 hPa 0,0 l/m 0,0 km/h W-NW 283 0 min 0,0 UV-I 0 W/m 8,9 C 10,5 C 0,0 km/h
28.09.2020 19:36 10,5 C 90 % 1012,5 hPa 0,0 l/m 0,0 km/h W-NW 283 0 min 0,0 UV-I 0 W/m 8,9 C 10,5 C 0,0 km/h
28.09.2020 19:35 10,6 C 90 % 1012,5 hPa 0,0 l/m 0,0 km/h W-NW 283 0 min 0,0 UV-I 0 W/m 9,0 C 10,6 C 0,0 km/h
28.09.2020 19:34 10,6 C 89 % 1012,5 hPa 0,0 l/m 0,0 km/h W-NW 283 0 min 0,0 UV-I 0 W/m 8,9 C 10,6 C 0,0 km/h
28.09.2020 19:33 10,6 C 89 % 1012,6 hPa 0,0 l/m 0,0 km/h W-NW 283 0 min 0,0 UV-I 0 W/m 8,9 C 10,6 C 0,0 km/h
28.09.2020 19:32 10,6 C 89 % 1012,5 hPa 0,0 l/m 0,0 km/h W-NW 283 0 min 0,0 UV-I 0 W/m 8,9 C 10,6 C 0,0 km/h
28.09.2020 19:31 10,6 C 89 % 1012,5 hPa 0,0 l/m 0,0 km/h W-NW 283 0 min 0,0 UV-I 0 W/m 8,9 C 10,6 C 0,0 km/h
28.09.2020 19:30 10,7 C 89 % 1012,5 hPa 0,0 l/m 0,0 km/h W-NW 283 0 min 0,0 UV-I 0 W/m 9,0 C 10,7 C 0,0 km/h
28.09.2020 19:29 10,7 C 89 % 1012,5 hPa 0,0 l/m 0,0 km/h W-NW 283 0 min 0,0 UV-I 0 W/m 9,0 C 10,7 C 0,0 km/h
28.09.2020 19:28 10,7 C 89 % 1012,5 hPa 0,0 l/m 0,0 km/h W-NW 283 0 min 0,0 UV-I 0 W/m 9,0 C 10,7 C 0,0 km/h
28.09.2020 19:27 10,7 C 89 % 1012,5 hPa 0,0 l/m 0,0 km/h W-NW 283 0 min 0,0 UV-I 0 W/m 9,0 C 10,7 C 0,0 km/h
28.09.2020 19:26 10,7 C 89 % 1012,5 hPa 0,0 l/m 0,0 km/h W-NW 283 0 min 0,0 UV-I 0 W/m 9,0 C 10,7 C 0,0 km/h
28.09.2020 19:25 10,7 C 89 % 1012,5 hPa 0,0 l/m 0,0 km/h W-NW 283 0 min 0,0 UV-I 0 W/m 9,0 C 10,7 C 0,0 km/h
28.09.2020 19:24 10,7 C 89 % 1012,4 hPa 0,0 l/m 0,0 km/h W-NW 283 0 min 0,0 UV-I 0 W/m 9,0 C 10,7 C 0,0 km/h
28.09.2020 19:23 10,7 C 89 % 1012,4 hPa 0,0 l/m 0,0 km/h W-NW 283 0 min 0,0 UV-I 0 W/m 9,0 C 10,7 C 0,0 km/h
28.09.2020 19:22 10,8 C 89 % 1012,5 hPa 0,0 l/m 0,0 km/h W-NW 283 0 min 0,0 UV-I 0 W/m 9,1 C 10,8 C 0,0 km/h
28.09.2020 19:21 10,8 C 89 % 1012,4 hPa 0,0 l/m 0,0 km/h W-NW 283 0 min 0,0 UV-I 0 W/m 9,1 C 10,8 C 0,0 km/h
28.09.2020 19:20 10,8 C 89 % 1012,4 hPa 0,0 l/m 0,0 km/h W-NW 283 0 min 0,0 UV-I 0 W/m 9,1 C 10,8 C 0,0 km/h
28.09.2020 19:19 10,8 C 89 % 1012,4 hPa 0,0 l/m 0,0 km/h W-NW 283 0 min 0,0 UV-I 0 W/m 9,1 C 10,8 C 0,0 km/h
28.09.2020 19:18 10,8 C 89 % 1012,4 hPa 0,0 l/m 0,0 km/h W-NW 283 0 min 0,0 UV-I 0 W/m 9,1 C 10,8 C 0,0 km/h
28.09.2020 19:17 10,8 C 89 % 1012,4 hPa 0,0 l/m 0,0 km/h W-NW 283 0 min 0,0 UV-I 0 W/m 9,1 C 10,8 C 0,0 km/h
28.09.2020 19:16 10,9 C 88 % 1012,4 hPa 0,0 l/m 0,0 km/h W-NW 283 0 min 0,0 UV-I 0 W/m 9,0 C 10,9 C 0,0 km/h
28.09.2020 19:15 10,9 C 88 % 1012,4 hPa 0,0 l/m 0,0 km/h W-NW 283 0 min 0,0 UV-I 0 W/m 9,0 C 10,9 C 0,0 km/h
28.09.2020 19:14 10,9 C 88 % 1012,4 hPa 0,0 l/m 0,0 km/h W-NW 283 0 min 0,0 UV-I 0 W/m 9,0 C 10,9 C 0,0 km/h
28.09.2020 19:13 11,0 C 87 % 1012,3 hPa 0,0 l/m 0,0 km/h W-NW 283 0 min 0,0 UV-I 0 W/m 8,9 C 11,0 C 0,0 km/h
28.09.2020 19:12 11,1 C 87 % 1012,3 hPa 0,0 l/m 0,0 km/h W-NW 283 0 min 0,0 UV-I 0 W/m 9,0 C 11,1 C 0,0 km/h
28.09.2020 19:11 11,1 C 87 % 1012,3 hPa 0,0 l/m 0,0 km/h W-NW 283 0 min 0,0 UV-I 0 W/m 9,0 C 11,1 C 0,0 km/h
28.09.2020 19:10 11,2 C 87 % 1012,3 hPa 0,0 l/m 0,0 km/h W-NW 283 0 min 0,0 UV-I 0 W/m 9,1 C 11,2 C 0,0 km/h
28.09.2020 19:09 11,2 C 86 % 1012,2 hPa 0,0 l/m 0,0 km/h W-NW 283 0 min 0,0 UV-I 0 W/m 8,9 C 11,2 C 0,0 km/h
28.09.2020 19:08 11,3 C 86 % 1012,3 hPa 0,0 l/m 0,0 km/h W-NW 283 0 min 0,0 UV-I 0 W/m 9,0 C 11,3 C 0,0 km/h
28.09.2020 19:07 11,3 C 86 % 1012,3 hPa 0,0 l/m 0,0 km/h W-NW 283 0 min 0,0 UV-I 0 W/m 9,0 C 11,3 C 0,0 km/h
28.09.2020 19:06 11,3 C 86 % 1012,2 hPa 0,0 l/m 0,0 km/h W-NW 283 0 min 0,0 UV-I 0 W/m 9,0 C 11,3 C 0,0 km/h
28.09.2020 19:05 11,3 C 86 % 1012,2 hPa 0,0 l/m 0,0 km/h W-NW 283 0 min 0,0 UV-I 0 W/m 9,0 C 11,3 C 0,0 km/h
28.09.2020 19:04 11,4 C 85 % 1012,3 hPa 0,0 l/m 0,0 km/h W-NW 283 0 min 0,0 UV-I 0 W/m 9,0 C 11,4 C 0,0 km/h
28.09.2020 19:03 11,4 C 85 % 1012,2 hPa 0,0 l/m 0,0 km/h W-NW 283 0 min 0,0 UV-I 0 W/m 9,0 C 11,4 C 0,0 km/h
28.09.2020 19:02 11,4 C 85 % 1012,3 hPa 0,0 l/m 0,0 km/h W-NW 283 0 min 0,0 UV-I 0 W/m 9,0 C 11,4 C 0,0 km/h
28.09.2020 19:01 11,5 C 85 % 1012,2 hPa 0,0 l/m 0,0 km/h W-NW 283 0 min 0,0 UV-I 5 W/m 9,1 C 11,5 C 0,0 km/h
28.09.2020 19:00 11,6 C 85 % 1012,2 hPa 0,0 l/m 0,0 km/h W-NW 283 0 min 0,0 UV-I 6 W/m 9,2 C 11,6 C 0,0 km/h
28.09.2020 18:59 11,6 C 85 % 1012,2 hPa 0,0 l/m 0,0 km/h W-NW 283 0 min 0,0 UV-I 7 W/m 9,2 C 11,6 C 0,0 km/h
28.09.2020 18:58 11,6 C 85 % 1012,2 hPa 0,0 l/m 0,0 km/h W-NW 283 0 min 0,0 UV-I 7 W/m 9,2 C 11,6 C 0,0 km/h
28.09.2020 18:57 11,6 C 85 % 1012,2 hPa 0,0 l/m 0,0 km/h W-NW 283 0 min 0,0 UV-I 7 W/m 9,2 C 11,6 C 0,0 km/h
28.09.2020 18:56 11,7 C 84 % 1012,1 hPa 0,0 l/m 0,0 km/h W-NW 283 0 min 0,0 UV-I 9 W/m 9,1 C 11,7 C 0,0 km/h
28.09.2020 18:55 11,7 C 84 % 1012,1 hPa 0,0 l/m 0,0 km/h W-NW 283 0 min 0,0 UV-I 9 W/m 9,1 C 11,7 C 0,0 km/h
28.09.2020 18:54 11,8 C 84 % 1012,1 hPa 0,0 l/m 0,0 km/h W-NW 283 0 min 0,0 UV-I 9 W/m 9,2 C 11,8 C 0,0 km/h
28.09.2020 18:53 11,8 C 84 % 1012,1 hPa 0,0 l/m 0,0 km/h W-NW 283 0 min 0,0 UV-I 9 W/m 9,2 C 11,8 C 0,0 km/h
28.09.2020 18:52 11,8 C 84 % 1012,1 hPa 0,0 l/m 0,0 km/h W-NW 283 0 min 0,0 UV-I 10 W/m 9,2 C 11,8 C 0,0 km/h
28.09.2020 18:51 11,9 C 84 % 1012,1 hPa 0,0 l/m 0,0 km/h W-NW 283 0 min 0,0 UV-I 11 W/m 9,3 C 11,9 C 0,0 km/h
28.09.2020 18:50 11,9 C 84 % 1012,1 hPa 0,0 l/m 0,0 km/h W-NW 283 0 min 0,0 UV-I 11 W/m 9,3 C 11,9 C 0,0 km/h
28.09.2020 18:49 12,0 C 84 % 1012,1 hPa 0,0 l/m 0,0 km/h W-NW 283 0 min 0,0 UV-I 11 W/m 9,4 C 12,0 C 0,0 km/h
28.09.2020 18:48 12,1 C 83 % 1012,1 hPa 0,0 l/m 0,0 km/h W-NW 283 1 min 0,0 UV-I 12 W/m 9,3 C 12,1 C 0,0 km/h
28.09.2020 18:47 12,1 C 83 % 1012,0 hPa 0,0 l/m 0,0 km/h W-NW 283 1 min 0,0 UV-I 13 W/m 9,3 C 12,1 C 0,0 km/h
28.09.2020 18:46 12,2 C 83 % 1012,0 hPa 0,0 l/m 0,0 km/h W-NW 283 1 min 0,0 UV-I 14 W/m 9,4 C 12,2 C 0,0 km/h
28.09.2020 18:45 12,3 C 83 % 1012,0 hPa 0,0 l/m 0,0 km/h W-NW 283 1 min 0,0 UV-I 14 W/m 9,5 C 12,3 C 0,0 km/h
28.09.2020 18:44 12,3 C 83 % 1012,0 hPa 0,0 l/m 0,0 km/h W-NW 283 1 min 0,0 UV-I 16 W/m 9,5 C 12,3 C 0,0 km/h
28.09.2020 18:43 12,3 C 83 % 1012,0 hPa 0,0 l/m 0,0 km/h W-NW 283 0 min 0,0 UV-I 16 W/m 9,5 C 12,3 C 0,0 km/h
28.09.2020 18:42 12,4 C 83 % 1012,0 hPa 0,0 l/m 0,0 km/h W-NW 283 0 min 0,0 UV-I 18 W/m 9,6 C 12,4 C 0,0 km/h
28.09.2020 18:41 12,4 C 82 % 1012,0 hPa 0,0 l/m 0,0 km/h W-NW 283 0 min 0,0 UV-I 18 W/m 9,4 C 12,4 C 0,0 km/h
28.09.2020 18:40 12,5 C 82 % 1012,0 hPa 0,0 l/m 0,0 km/h W-NW 283 0 min 0,0 UV-I 20 W/m 9,5 C 12,5 C 0,0 km/h
28.09.2020 18:39 12,5 C 82 % 1011,9 hPa 0,0 l/m 0,0 km/h W-NW 283 0 min 0,0 UV-I 21 W/m 9,5 C 12,5 C 0,0 km/h
28.09.2020 18:38 12,5 C 82 % 1011,9 hPa 0,0 l/m 0,0 km/h W-NW 283 0 min 0,0 UV-I 23 W/m 9,5 C 12,5 C 0,0 km/h
28.09.2020 18:37 12,5 C 81 % 1011,9 hPa 0,0 l/m 0,0 km/h W-NW 283 0 min 0,0 UV-I 23 W/m 9,3 C 12,5 C 0,0 km/h
28.09.2020 18:36 12,5 C 81 % 1011,9 hPa 0,0 l/m 0,0 km/h W-NW 283 0 min 0,0 UV-I 25 W/m 9,3 C 12,5 C 0,0 km/h
28.09.2020 18:35 12,5 C 81 % 1011,9 hPa 0,0 l/m 0,0 km/h W-NW 283 0 min 0,0 UV-I 26 W/m 9,3 C 12,5 C 0,0 km/h
28.09.2020 18:34 12,5 C 81 % 1011,9 hPa 0,0 l/m 0,0 km/h W-NW 283 0 min 0,0 UV-I 26 W/m 9,3 C 12,5 C 0,0 km/h
28.09.2020 18:33 12,5 C 81 % 1011,9 hPa 0,0 l/m 0,0 km/h W-NW 283 0 min 0,0 UV-I 26 W/m 9,3 C 12,5 C 0,0 km/h
28.09.2020 18:32 12,5 C 81 % 1011,9 hPa 0,0 l/m 0,0 km/h W-NW 283 0 min 0,0 UV-I 28 W/m 9,3 C 12,5 C 0,0 km/h
28.09.2020 18:31 12,4 C 81 % 1011,9 hPa 0,0 l/m 0,0 km/h W-NW 283 0 min 0,0 UV-I 28 W/m 9,2 C 12,4 C 0,0 km/h
28.09.2020 18:30 12,4 C 81 % 1011,9 hPa 0,0 l/m 0,0 km/h W-NW 283 0 min 0,0 UV-I 28 W/m 9,2 C 12,4 C 0,0 km/h
28.09.2020 18:29 12,4 C 81 % 1011,8 hPa 0,0 l/m 0,0 km/h W-NW 283 0 min 0,0 UV-I 28 W/m 9,2 C 12,4 C 0,0 km/h
28.09.2020 18:28 12,4 C 81 % 1011,8 hPa 0,0 l/m 0,0 km/h W-NW 283 0 min 0,0 UV-I 29 W/m 9,2 C 12,4 C 0,0 km/h
28.09.2020 18:27 12,4 C 81 % 1011,8 hPa 0,0 l/m 0,0 km/h W-NW 283 0 min 0,0 UV-I 30 W/m 9,2 C 12,4 C 0,0 km/h
28.09.2020 18:26 12,4 C 81 % 1011,8 hPa 0,0 l/m 0,0 km/h W-NW 283 0 min 0,0 UV-I 32 W/m 9,2 C 12,4 C 0,0 km/h
28.09.2020 18:25 12,3 C 82 % 1011,8 hPa 0,0 l/m 0,0 km/h W-NW 283 0 min 0,0 UV-I 34 W/m 9,3 C 12,3 C 0,0 km/h
28.09.2020 18:24 12,2 C 83 % 1011,8 hPa 0,0 l/m 0,0 km/h W-NW 283 0 min 0,0 UV-I 38 W/m 9,4 C 12,2 C 0,0 km/h
28.09.2020 18:23 12,2 C 84 % 1011,8 hPa 0,0 l/m 0,0 km/h W-NW 283 1 min 0,0 UV-I 48 W/m 9,6 C 12,2 C 0,0 km/h
28.09.2020 18:22 12,1 C 85 % 1011,8 hPa 0,0 l/m 0,0 km/h W-NW 283 1 min 0,0 UV-I 57 W/m 9,7 C 12,1 C 0,0 km/h
28.09.2020 18:21 12,0 C 85 % 1011,8 hPa 0,0 l/m 0,0 km/h W-NW 283 1 min 0,0 UV-I 61 W/m 9,6 C 12,0 C 0,0 km/h
28.09.2020 18:20 11,9 C 84 % 1011,8 hPa 0,0 l/m 0,0 km/h W-NW 283 1 min 0,0 UV-I 63 W/m 9,3 C 11,9 C 0,0 km/h
28.09.2020 18:19 11,9 C 85 % 1011,8 hPa 0,0 l/m 0,0 km/h W-NW 283 1 min 0,0 UV-I 66 W/m 9,5 C 11,9 C 0,0 km/h
28.09.2020 18:18 11,8 C 84 % 1011,8 hPa 0,0 l/m 0,0 km/h W-NW 283 1 min 0,0 UV-I 68 W/m 9,2 C 11,8 C 0,0 km/h
28.09.2020 18:17 11,8 C 84 % 1011,7 hPa 0,0 l/m 0,0 km/h W-NW 283 1 min 0,0 UV-I 71 W/m 9,2 C 11,8 C 0,0 km/h
28.09.2020 18:16 11,8 C 85 % 1011,8 hPa 0,0 l/m 0,0 km/h W-NW 283 1 min 0,0 UV-I 74 W/m 9,4 C 11,8 C 0,0 km/h
28.09.2020 18:15 11,8 C 85 % 1011,8 hPa 0,0 l/m 0,0 km/h W-NW 283 1 min 0,0 UV-I 76 W/m 9,4 C 11,8 C 0,0 km/h
28.09.2020 18:14 11,7 C 85 % 1011,8 hPa 0,0 l/m 0,0 km/h W-NW 283 1 min 0,0 UV-I 75 W/m 9,3 C 11,7 C 0,0 km/h
28.09.2020 18:13 11,7 C 84 % 1011,8 hPa 0,0 l/m 0,0 km/h W-NW 283 1 min 0,0 UV-I 65 W/m 9,1 C 11,7 C 0,0 km/h
28.09.2020 18:12 11,7 C 84 % 1011,8 hPa 0,0 l/m 0,0 km/h W-NW 283 0 min 0,0 UV-I 51 W/m 9,1 C 11,7 C 0,0 km/h
28.09.2020 18:11 11,7 C 84 % 1011,7 hPa 0,0 l/m 0,0 km/h W-NW 283 0 min 0,0 UV-I 42 W/m 9,1 C 11,7 C 0,0 km/h
28.09.2020 18:10 11,8 C 84 % 1011,7 hPa 0,0 l/m 0,0 km/h W-NW 283 0 min 0,0 UV-I 40 W/m 9,2 C 11,8 C 0,0 km/h
28.09.2020 18:09 11,8 C 84 % 1011,7 hPa 0,0 l/m 0,0 km/h W-NW 283 0 min 0,0 UV-I 40 W/m 9,2 C 11,8 C 0,0 km/h
28.09.2020 18:08 11,8 C 84 % 1011,7 hPa 0,0 l/m 0,0 km/h W-NW 283 0 min 0,0 UV-I 42 W/m 9,2 C 11,8 C 0,0 km/h
28.09.2020 18:07 11,8 C 85 % 1011,7 hPa 0,0 l/m 0,0 km/h W-NW 283 0 min 0,0 UV-I 43 W/m 9,4 C 11,8 C 0,0 km/h
28.09.2020 18:06 11,8 C 84 % 1011,7 hPa 0,0 l/m 0,0 km/h W-NW 283 0 min 0,0 UV-I 44 W/m 9,2 C 11,8 C 0,0 km/h
28.09.2020 18:05 11,8 C 84 % 1011,6 hPa 0,0 l/m 0,0 km/h W-NW 283 0 min 0,0 UV-I 45 W/m 9,2 C 11,8 C 0,0 km/h
28.09.2020 18:04 11,9 C 84 % 1011,7 hPa 0,0 l/m 0,0 km/h W-NW 283 0 min 0,0 UV-I 47 W/m 9,3 C 11,9 C 0,0 km/h
28.09.2020 18:03 11,9 C 84 % 1011,7 hPa 0,0 l/m 0,0 km/h W-NW 283 0 min 0,0 UV-I 47 W/m 9,3 C 11,9 C 0,0 km/h
28.09.2020 18:02 11,9 C 83 % 1011,7 hPa 0,0 l/m 0,0 km/h W-NW 283 0 min 0,0 UV-I 47 W/m 9,1 C 11,9 C 0,0 km/h
28.09.2020 18:01 11,9 C 83 % 1011,7 hPa 0,0 l/m 0,0 km/h W-NW 283 0 min 0,0 UV-I 49 W/m 9,1 C 11,9 C 0,0 km/h
28.09.2020 18:00 11,9 C 83 % 1011,6 hPa 0,0 l/m 0,0 km/h W-NW 283 0 min 0,0 UV-I 49 W/m 9,1 C 11,9 C 0,0 km/h
28.09.2020 17:59 11,9 C 82 % 1011,7 hPa 0,0 l/m 0,0 km/h W-NW 283 0 min 0,0 UV-I 49 W/m 8,9 C 11,9 C 0,0 km/h
28.09.2020 17:58 12,0 C 82 % 1011,7 hPa 0,0 l/m 0,0 km/h W-NW 283 0 min 0,0 UV-I 49 W/m 9,0 C 12,0 C 0,0 km/h
28.09.2020 17:57 12,1 C 82 % 1011,6 hPa 0,0 l/m 0,0 km/h W-NW 283 0 min 0,0 UV-I 49 W/m 9,1 C 12,1 C 0,0 km/h
28.09.2020 17:56 12,0 C 82 % 1011,6 hPa 0,0 l/m 0,0 km/h W-NW 283 0 min 0,0 UV-I 49 W/m 9,0 C 12,0 C 0,0 km/h
28.09.2020 17:55 12,1 C 82 % 1011,6 hPa 0,0 l/m 0,0 km/h W-NW 283 0 min 0,0 UV-I 49 W/m 9,1 C 12,1 C 0,0 km/h
28.09.2020 17:54 12,1 C 81 % 1011,6 hPa 0,0 l/m 0,0 km/h W-NW 283 0 min 0,0 UV-I 49 W/m 8,9 C 12,1 C 0,0 km/h
28.09.2020 17:53 12,2 C 81 % 1011,6 hPa 0,0 l/m 0,0 km/h W-NW 283 0 min 0,0 UV-I 49 W/m 9,0 C 12,2 C 0,0 km/h
28.09.2020 17:52 12,2 C 81 % 1011,6 hPa 0,0 l/m 0,0 km/h W-NW 283 0 min 0,0 UV-I 49 W/m 9,0 C 12,2 C 0,0 km/h
28.09.2020 17:51 12,2 C 81 % 1011,6 hPa 0,0 l/m 0,0 km/h W-NW 283 0 min 0,0 UV-I 51 W/m 9,0 C 12,2 C 0,0 km/h
28.09.2020 17:50 12,2 C 81 % 1011,6 hPa 0,0 l/m 0,0 km/h W-NW 283 0 min 0,0 UV-I 51 W/m 9,0 C 12,2 C 0,0 km/h
28.09.2020 17:49 12,3 C 81 % 1011,6 hPa 0,0 l/m 0,0 km/h W-NW 283 0 min 0,0 UV-I 52 W/m 9,1 C 12,3 C 0,0 km/h
28.09.2020 17:48 12,3 C 81 % 1011,6 hPa 0,0 l/m 0,0 km/h W-NW 283 0 min 0,0 UV-I 53 W/m 9,1 C 12,3 C 0,0 km/h
28.09.2020 17:47 12,3 C 81 % 1011,5 hPa 0,0 l/m 0,0 km/h W-NW 283 0 min 0,0 UV-I 53 W/m 9,1 C 12,3 C 0,0 km/h
28.09.2020 17:46 12,4 C 81 % 1011,5 hPa 0,0 l/m 0,0 km/h W-NW 283 0 min 0,0 UV-I 53 W/m 9,2 C 12,4 C 0,0 km/h
28.09.2020 17:45 12,4 C 81 % 1011,5 hPa 0,0 l/m 0,0 km/h W-NW 283 0 min 0,0 UV-I 53 W/m 9,2 C 12,4 C 0,0 km/h
28.09.2020 17:44 12,4 C 81 % 1011,6 hPa 0,0 l/m 0,0 km/h W-NW 283 0 min 0,0 UV-I 53 W/m 9,2 C 12,4 C 0,0 km/h
28.09.2020 17:43 12,4 C 80 % 1011,5 hPa 0,0 l/m 0,0 km/h W-NW 283 0 min 0,0 UV-I 52 W/m 9,0 C 12,4 C 0,0 km/h
28.09.2020 17:42 12,5 C 80 % 1011,6 hPa 0,0 l/m 0,0 km/h W-NW 283 0 min 0,0 UV-I 51 W/m 9,1 C 12,5 C 0,0 km/h
28.09.2020 17:41 12,6 C 80 % 1011,5 hPa 0,0 l/m 0,0 km/h W-NW 283 0 min 0,0 UV-I 50 W/m 9,2 C 12,6 C 0,0 km/h
28.09.2020 17:40 12,6 C 80 % 1011,4 hPa 0,0 l/m 0,0 km/h W-NW 283 0 min 0,0 UV-I 49 W/m 9,2 C 12,6 C 0,0 km/h
28.09.2020 17:39 12,7 C 80 % 1011,5 hPa 0,0 l/m 0,0 km/h W-NW 283 0 min 0,0 UV-I 49 W/m 9,3 C 12,7 C 0,0 km/h
28.09.2020 17:38 12,7 C 80 % 1011,5 hPa 0,0 l/m 0,0 km/h W-NW 283 0 min 0,0 UV-I 47 W/m 9,3 C 12,7 C 0,0 km/h
28.09.2020 17:37 12,8 C 79 % 1011,5 hPa 0,0 l/m 0,0 km/h W-NW 283 0 min 0,0 UV-I 47 W/m 9,2 C 12,8 C 0,0 km/h
28.09.2020 17:36 12,8 C 79 % 1011,5 hPa 0,0 l/m 0,0 km/h W-NW 283 0 min 0,0 UV-I 47 W/m 9,2 C 12,8 C 0,0 km/h
28.09.2020 17:35 12,9 C 79 % 1011,5 hPa 0,0 l/m 0,0 km/h W-NW 283 0 min 0,0 UV-I 47 W/m 9,3 C 12,9 C 0,0 km/h
28.09.2020 17:34 13,0 C 78 % 1011,5 hPa 0,0 l/m 0,0 km/h W-NW 283 0 min 0,0 UV-I 47 W/m 9,3 C 13,0 C 0,0 km/h
28.09.2020 17:33 13,1 C 78 % 1011,5 hPa 0,0 l/m 0,0 km/h W-NW 283 0 min 0,0 UV-I 47 W/m 9,4 C 13,1 C 0,0 km/h
28.09.2020 17:32 13,2 C 78 % 1011,4 hPa 0,0 l/m 0,0 km/h W-NW 283 0 min 0,0 UV-I 47 W/m 9,4 C 13,2 C 0,0 km/h
28.09.2020 17:31 13,3 C 78 % 1011,4 hPa 0,0 l/m 0,0 km/h W-NW 283 0 min 0,0 UV-I 47 W/m 9,5 C 13,3 C 0,0 km/h
28.09.2020 17:30 13,4 C 77 % 1011,4 hPa 0,0 l/m 0,0 km/h W-NW 283 0 min 0,0 UV-I 48 W/m 9,5 C 13,4 C 0,0 km/h
28.09.2020 17:29 13,6 C 77 % 1011,4 hPa 0,0 l/m 0,0 km/h W-NW 283 0 min 0,0 UV-I 49 W/m 9,6 C 13,6 C 0,0 km/h
28.09.2020 17:28 13,6 C 77 % 1011,4 hPa 0,0 l/m 0,0 km/h W-NW 283 0 min 0,0 UV-I 49 W/m 9,6 C 13,6 C 0,0 km/h
28.09.2020 17:27 13,7 C 77 % 1011,4 hPa 0,0 l/m 0,0 km/h W-NW 283 0 min 0,0 UV-I 49 W/m 9,7 C 13,7 C 0,0 km/h
28.09.2020 17:26 13,8 C 77 % 1011,4 hPa 0,0 l/m 0,0 km/h W-NW 283 0 min 0,0 UV-I 49 W/m 9,8 C 13,8 C 0,0 km/h
28.09.2020 17:25 13,9 C 76 % 1011,4 hPa 0,0 l/m 0,0 km/h W-NW 283 0 min 0,0 UV-I 50 W/m 9,7 C 13,9 C 0,0 km/h
28.09.2020 17:24 14,0 C 76 % 1011,3 hPa 0,0 l/m 0,0 km/h W-NW 283 0 min 0,0 UV-I 51 W/m 9,8 C 14,0 C 0,0 km/h
28.09.2020 17:23 14,1 C 76 % 1011,4 hPa 0,0 l/m 0,0 km/h W-NW 283 0 min 0,0 UV-I 53 W/m 9,9 C 14,1 C 0,0 km/h
28.09.2020 17:22 14,1 C 75 % 1011,4 hPa 0,0 l/m 0,0 km/h W-NW 283 0 min 0,0 UV-I 54 W/m 9,7 C 14,1 C 0,0 km/h
28.09.2020 17:21 14,1 C 75 % 1011,4 hPa 0,0 l/m 0,0 km/h W-NW 283 0 min 0,0 UV-I 54 W/m 9,7 C 14,1 C 0,0 km/h
28.09.2020 17:20 14,2 C 75 % 1011,4 hPa 0,0 l/m 0,0 km/h W-NW 283 0 min 0,0 UV-I 57 W/m 9,8 C 14,2 C 0,0 km/h
28.09.2020 17:19 14,2 C 75 % 1011,4 hPa 0,0 l/m 0,0 km/h W-NW 283 0 min 0,0 UV-I 58 W/m 9,8 C 14,2 C 0,0 km/h
28.09.2020 17:18 14,2 C 75 % 1011,4 hPa 0,0 l/m 0,0 km/h W-NW 283 0 min 0,0 UV-I 59 W/m 9,8 C 14,2 C 0,0 km/h
28.09.2020 17:17 14,2 C 75 % 1011,4 hPa 0,0 l/m 0,0 km/h W-NW 283 0 min 0,0 UV-I 60 W/m 9,8 C 14,2 C 0,0 km/h
28.09.2020 17:16 14,3 C 75 % 1011,4 hPa 0,0 l/m 0,0 km/h W-NW 283 0 min 0,0 UV-I 62 W/m 9,9 C 14,3 C 0,0 km/h
28.09.2020 17:15 14,3 C 75 % 1011,4 hPa 0,0 l/m 0,0 km/h W-NW 283 0 min 0,0 UV-I 62 W/m 9,9 C 14,3 C 0,0 km/h
28.09.2020 17:14 14,3 C 75 % 1011,4 hPa 0,0 l/m 0,0 km/h W-NW 283 0 min 0,0 UV-I 64 W/m 9,9 C 14,3 C 0,0 km/h
28.09.2020 17:13 14,3 C 74 % 1011,4 hPa 0,0 l/m 0,0 km/h W-NW 283 0 min 0,0 UV-I 65 W/m 9,7 C 14,3 C 0,0 km/h
28.09.2020 17:12 14,4 C 74 % 1011,4 hPa 0,0 l/m 0,0 km/h W-NW 283 0 min 0,0 UV-I 67 W/m 9,8 C 14,4 C 0,0 km/h
28.09.2020 17:11 14,4 C 73 % 1011,4 hPa 0,0 l/m 0,0 km/h W-NW 283 0 min 0,0 UV-I 67 W/m 9,6 C 14,4 C 0,0 km/h
28.09.2020 17:10 14,4 C 71 % 1011,4 hPa 0,0 l/m 0,0 km/h W-NW 283 0 min 0,0 UV-I 69 W/m 9,2 C 14,4 C 0,0 km/h
28.09.2020 17:09 14,5 C 72 % 1011,3 hPa 0,0 l/m 0,0 km/h W-NW 283 0 min 0,0 UV-I 70 W/m 9,5 C 14,5 C 0,0 km/h
28.09.2020 17:08 14,6 C 70 % 1011,4 hPa 0,0 l/m 0,1 km/h W-NW 283 0 min 0,0 UV-I 71 W/m 9,2 C 14,6 C 1,6 km/h
28.09.2020 17:07 14,6 C 68 % 1011,4 hPa 0,0 l/m 0,1 km/h W-NW 283 0 min 0,0 UV-I 73 W/m 8,8 C 14,6 C 1,6 km/h
28.09.2020 17:06 14,6 C 64 % 1011,4 hPa 0,0 l/m 0,1 km/h W-NW 283 0 min 0,0 UV-I 75 W/m 7,9 C 14,6 C 1,6 km/h
28.09.2020 17:05 14,6 C 63 % 1011,3 hPa 0,0 l/m 0,5 km/h W-NW 283 0 min 0,0 UV-I 77 W/m 7,6 C 14,6 C 1,6 km/h
28.09.2020 17:04 14,6 C 65 % 1011,4 hPa 0,0 l/m 0,3 km/h W-NW 283 0 min 0,0 UV-I 79 W/m 8,1 C 14,6 C 1,6 km/h
28.09.2020 17:03 14,7 C 62 % 1011,4 hPa 0,0 l/m 0,4 km/h W-NW 283 0 min 0,0 UV-I 82 W/m 7,5 C 14,7 C 1,6 km/h
28.09.2020 17:02 14,7 C 62 % 1011,3 hPa 0,0 l/m 0,8 km/h W-NW 283 0 min 0,0 UV-I 84 W/m 7,5 C 14,7 C 1,6 km/h
28.09.2020 17:01 14,7 C 65 % 1011,3 hPa 0,0 l/m 0,6 km/h W-NW 283 0 min 0,0 UV-I 85 W/m 8,2 C 14,7 C 1,6 km/h
28.09.2020 17:00 14,7 C 62 % 1011,3 hPa 0,0 l/m 0,7 km/h W-NW 283 0 min 0,0 UV-I 86 W/m 7,5 C 14,7 C 1,6 km/h
_ Min-Zeit 07:38 17:03 17:24 - 12:14 - - - - - 07:38 07:38 12:14
Minimum _ 2,1 C 62 % 1011,3 hPa - 0,0 km/h - - - - - 1,5 C 2,1 C 0,0 km/h
_ Max-Zeit 15:25 09:09 11:59 16:56 14:26 - - 16:56 13:11 13:39 12:55 15:25 15:09
Maximum _ 16,4 C 98 % 1017,7 hPa 0,0 l/m 14,8 km/h
W-SW
- - 1 min 2,6 UV-I 726 W/m 10,6 C 16,4 C 17,7 km/h
W-NW
Durchschnitt _ 9,5 C 85 % 1015,1 hPa #0,0 l/m 0,9 km/h W-NW - #6:35 h 1,6 UV-I 353 W/m 7,0 C 9,5 C 1,6 km/h